[[{"header":{"parameterUnit":"m.s-1","parameterCategory":1,"la1":31.0,"la2":29.5877,"lo1":-88.7671,"lo2":-86.6584,"dx":0.0162,"dy":0.0185,"nx":115,"ny":88,"refTime":"2022-12-20T06:00:00:Z","depth":0,"parameterNumber":2,"parameterNumberName":"U-component_of_WINDS"},"data":[0.0,0.0,0.0,0.0,0.0,0.0,0.0,0.0,0.0,0.0,0.0,0.0,0.0,0.0,0.0,0.0,0.0,0.0,0.0,0.0,0.0,0.0,0.0,0.0,0.0,0.0,0.0,0.0,0.0,0.0,0.0,0.0,0.0,0.0,0.0,0.0,0.0,0.0,0.0,0.0,0.0,0.0,0.0,0.0,0.0,0.0,0.0,0.0,0.0,0.0,0.0,0.0,0.0,0.0,0.0,0.0,0.0,0.0,0.0,0.0,0.0,0.0,0.0,0.0,0.0,0.0,0.0,0.0,0.0,0.0,0.0,0.0,0.0,0.0,0.0,0.0,0.0,0.0,0.0,0.0,0.0,0.0,0.0,0.0,0.0,0.0,0.0,0.0,0.0,0.0,0.0,0.0,0.0,0.0,0.0,0.0,0.0,0.0,0.0,0.0,0.0,0.0,0.0,0.0,0.0,0.0,0.0,0.0,0.0,0.0,0.0,0.0,0.0,0.0,0.0,0.0,0.0,0.0,0.0,0.0,0.0,0.0,0.0,0.0,0.0,0.0,0.0,0.0,0.0,0.0,0.0,0.0,0.0,0.0,0.0,0.0,0.0,0.0,0.0,0.0,0.0,0.0,0.0,0.0,0.0,0.0,0.0,0.0,0.0,0.0,0.0,0.0,0.0,0.0,0.0,0.0,0.0,0.0,0.0,0.0,0.0,0.0,0.0,0.0,0.0,0.0,0.0,0.0,0.0,0.0,0.0,0.0,0.0,0.0,0.0,0.0,0.0,0.0,0.0,0.0,0.0,0.0,0.0,0.0,0.0,0.0,0.0,0.0,0.0,0.0,0.0,0.0,0.0,0.0,0.0,0.0,0.0,0.0,0.0,0.0,0.0,0.0,0.0,0.0,0.0,0.0,0.0,0.0,0.0,0.0,0.0,0.0,0.0,0.0,0.0,0.0,0.0,0.0,0.0,0.0,0.0,0.0,0.0,0.0,0.0,0.0,0.0,0.0,0.0,0.0,0.0,0.0,0.0,0.0,0.0,0.0,0.0,0.0,0.0,0.0,0.0,0.0,0.0,0.0,0.0,0.0,0.0,0.0,0.0,0.0,0.0,0.0,0.0,0.0,0.0,0.0,0.0,0.0,0.0,0.0,0.0,0.0,0.0,0.0,0.0,0.0,0.0,0.0,0.0,0.0,0.0,0.0,0.0,0.0,0.0,0.0,0.0,0.0,0.0,0.0,0.0,0.0,0.0,0.0,0.0,0.0,0.0,0.0,0.0,0.0,0.0,0.0,0.0,0.0,0.0,0.0,0.0,0.0,0.0,0.0,0.0,0.0,0.0,0.0,0.0,0.0,0.0,0.0,0.0,0.0,0.0,0.0,0.0,0.0,0.0,0.0,0.0,0.0,0.0,0.0,0.0,0.0,0.0,0.0,0.0,0.0,0.0,0.0,0.0,0.0,0.0,0.0,0.0,0.0,0.0,0.0,0.0,0.0,0.0,0.0,0.0,0.0,0.0,0.0,0.0,0.0,0.0,0.0,0.0,0.0,0.0,0.0,0.0,0.0,0.0,0.0,0.0,0.0,0.0,0.0,0.0,0.0,0.0,0.0,0.0,0.0,0.0,0.0,0.0,0.0,0.0,0.0,0.0,0.0,0.0,0.0,0.0,0.0,0.0,0.0,0.0,0.0,0.0,0.0,0.0,0.0,0.0,0.0,0.0,0.0,0.0,0.0,0.0,0.0,0.0,0.0,0.0,0.0,0.0,0.0,0.0,0.0,0.0,0.0,0.0,0.0,0.0,0.0,0.0,0.0,0.0,0.0,0.0,0.0,0.0,0.0,0.0,0.0,0.0,0.0,0.0,0.0,0.0,0.0,0.0,0.0,0.0,0.0,0.0,0.0,0.0,0.0,0.0,0.0,0.0,0.0,0.0,0.0,0.0,0.0,0.0,0.0,0.0,0.0,0.0,0.0,0.0,0.0,0.0,0.0,0.0,0.0,0.0,0.0,0.0,0.0,0.0,0.0,0.0,0.0,0.0,0.0,0.0,0.0,0.0,0.0,0.0,0.0,0.0,0.0,0.0,0.0,0.0,0.0,0.0,0.0,0.0,0.0,0.0,0.0,0.0,0.0,0.0,0.0,0.0,0.0,0.0,0.0,0.0,0.0,0.0,0.0,0.0,0.0,0.0,0.0,0.0,0.0,0.0,0.0,0.0,0.0,0.0,0.0,0.0,0.0,0.0,0.0,0.0,0.0,0.0,0.0,0.0,0.0,0.0,0.0,0.0,0.0,0.0,0.0,0.0,0.0,0.0,0.0,0.0,0.0,0.0,0.0,0.0,0.0,0.0,0.0,0.0,0.0,0.0,0.0,0.0,0.0,0.0,0.0,0.0,0.0,0.0,0.0,0.0,0.0,0.0,0.0,0.0,0.0,0.0,0.0,0.0,0.0,0.0,0.0,0.0,0.0,0.0,0.0,0.0,0.0,0.0,0.0,0.0,0.0,0.0,0.0,0.0,0.0,0.0,0.0,0.0,0.0,0.0,0.0,0.0,0.0,0.0,0.0,0.0,0.0,0.0,0.0,0.0,0.0,0.0,0.0,0.0,0.0,0.0,0.0,0.0,0.0,0.0,0.0,0.0,0.0,0.0,0.0,0.0,0.0,0.0,0.0,0.0,0.0,0.0,0.0,0.0,0.0,0.0,0.0,0.0,0.0,0.0,0.0,0.0,0.0,0.0,0.0,0.0,0.0,0.0,0.0,0.0,0.0,0.0,0.0,0.0,0.0,0.0,0.0,0.0,0.0,0.0,0.0,0.0,0.0,0.0,0.0,0.0,0.0,0.0,0.0,0.0,0.0,0.0,0.0,0.0,0.0,0.0,0.0,0.0,0.0,0.0,0.0,0.0,0.0,0.0,0.0,0.0,0.0,0.0,0.0,0.0,0.0,0.0,0.0,0.0,0.0,0.0,0.0,0.0,0.0,0.0,0.0,0.0,0.0,0.0,0.0,0.0,0.0,0.0,0.0,0.0,0.0,0.0,0.0,0.0,0.0,0.0,0.0,0.0,0.0,0.0,0.0,0.0,0.0,0.0,0.0,0.0,0.0,0.0,0.0,0.0,0.0,0.0,0.0,0.0,0.0,0.0,0.0,0.0,0.0,0.0,0.0,0.0,0.0,0.0,0.0,0.0,0.0,0.0,0.0,0.0,0.0,0.0,0.0,0.0,0.0,0.0,0.0,0.0,0.0,0.0,0.0,0.0,0.0,0.0,0.0,0.0,0.0,0.0,0.0,0.0,0.0,0.0,0.0,0.0,0.0,0.0,0.0,0.0,0.0,0.0,0.0,0.0,0.0,0.0,0.0,0.0,0.0,0.0,0.0,0.0,0.0,0.0,0.0,0.0,0.0,0.0,0.0,0.0,0.0,0.0,0.0,0.0,0.0,0.0,0.0,0.0,0.0,0.0,0.0,0.0,0.0,0.0,0.0,0.0,0.0,0.0,0.0,0.0,0.0,0.0,0.0,0.0,0.0,0.0,0.0,0.0,0.0,0.0,0.0,0.0,0.0,0.0,0.0,0.0,0.0,0.0,0.0,0.0,0.0,0.0,0.0,0.0,0.0,0.0,0.0,0.0,0.0,0.0,0.0,0.0,0.0,0.0,0.0,0.0,0.0,0.0,0.0,0.0,0.0,0.0,0.0,0.0,0.0,0.0,0.0,0.0,0.0,0.0,0.0,0.0,0.0,0.0,0.0,0.0,0.0,0.0,0.0,0.0,0.0,0.0,0.0,0.0,0.0,0.0,0.0,0.0,0.0,0.0,0.0,0.0,0.0,0.0,0.0,0.0,0.0,0.0,0.0,0.0,0.0,0.0,0.0,0.0,0.0,0.0,0.0,0.0,0.0,0.0,0.0,0.0,0.0,0.0,0.0,0.0,0.0,0.0,0.0,0.0,0.0,0.0,0.0,0.0,0.0,0.0,0.0,0.0,0.0,0.0,0.0,0.0,0.0,0.0,0.0,0.0,0.0,0.0,0.0,0.0,0.0,0.0,0.0,0.0,0.0,0.0,0.0,0.0,0.0,0.0,0.0,0.0,0.0,0.0,0.0,0.0,0.0,0.0,0.0,0.0,0.0,0.0,0.0,0.0,0.0,0.0,0.0,0.0,0.0,0.0,0.0,0.0,0.0,0.0,0.0,0.0,0.0,0.0,0.0,0.0,0.0,0.0,0.0,0.0,0.0,0.0,0.0,0.0,0.0,-2.021,0.0,0.0,0.0,-2.0382,0.0,0.0,0.0,0.0,0.0,0.0,0.0,0.0,0.0,0.0,0.0,0.0,0.0,0.0,0.0,0.0,0.0,0.0,0.0,0.0,0.0,0.0,0.0,0.0,0.0,0.0,0.0,0.0,0.0,0.0,0.0,0.0,0.0,0.0,0.0,0.0,0.0,0.0,0.0,0.0,0.0,0.0,0.0,0.0,0.0,0.0,0.0,0.0,0.0,0.0,0.0,0.0,0.0,0.0,0.0,0.0,0.0,0.0,0.0,0.0,0.0,0.0,0.0,0.0,0.0,0.0,0.0,0.0,0.0,0.0,0.0,0.0,0.0,0.0,0.0,0.0,0.0,0.0,0.0,0.0,0.0,0.0,0.0,0.0,0.0,0.0,0.0,0.0,0.0,0.0,0.0,0.0,0.0,0.0,0.0,0.0,0.0,0.0,0.0,0.0,0.0,0.0,0.0,0.0,0.0,0.0,0.0,0.0,0.0,0.0,-2.0557,-2.218,-2.0172,-1.9651,-2.0907,0.0,0.0,0.0,0.0,0.0,0.0,0.0,0.0,0.0,0.0,0.0,0.0,0.0,0.0,0.0,0.0,0.0,0.0,0.0,0.0,0.0,0.0,0.0,0.0,0.0,0.0,0.0,0.0,0.0,0.0,0.0,0.0,0.0,0.0,0.0,0.0,0.0,0.0,0.0,0.0,0.0,0.0,0.0,0.0,0.0,0.0,0.0,0.0,0.0,0.0,0.0,0.0,0.0,0.0,0.0,0.0,0.0,0.0,0.0,0.0,0.0,0.0,0.0,0.0,0.0,0.0,0.0,0.0,0.0,0.0,0.0,0.0,0.0,0.0,0.0,0.0,0.0,0.0,0.0,0.0,0.0,0.0,0.0,0.0,0.0,0.0,0.0,0.0,0.0,0.0,0.0,0.0,0.0,0.0,0.0,0.0,0.0,0.0,0.0,0.0,0.0,0.0,0.0,0.0,0.0,0.0,0.0,0.0,0.0,0.0,0.0,0.0,-1.9848,-1.9298,-2.044,0.0,0.0,0.0,0.0,0.0,0.0,0.0,0.0,0.0,0.0,0.0,0.0,0.0,0.0,0.0,0.0,0.0,0.0,0.0,0.0,0.0,0.0,0.0,0.0,0.0,0.0,0.0,0.0,0.0,0.0,0.0,0.0,0.0,0.0,0.0,0.0,0.0,0.0,0.0,0.0,0.0,0.0,0.0,0.0,0.0,0.0,0.0,0.0,0.0,0.0,0.0,0.0,0.0,0.0,0.0,0.0,0.0,0.0,0.0,0.0,0.0,0.0,0.0,0.0,0.0,0.0,0.0,0.0,0.0,0.0,0.0,0.0,0.0,0.0,0.0,0.0,0.0,0.0,0.0,0.0,0.0,0.0,0.0,0.0,0.0,0.0,0.0,0.0,0.0,0.0,0.0,0.0,0.0,0.0,0.0,0.0,0.0,0.0,0.0,0.0,0.0,0.0,0.0,0.0,0.0,0.0,0.0,0.0,0.0,0.0,-1.9656,-1.8983,-1.9022,0.0,-1.8455,0.0,0.0,0.0,0.0,0.0,0.0,0.0,0.0,0.0,0.0,0.0,0.0,0.0,0.0,0.0,0.0,0.0,0.0,0.0,0.0,0.0,0.0,0.0,0.0,0.0,0.0,0.0,0.0,0.0,0.0,0.0,0.0,0.0,0.0,0.0,0.0,0.0,0.0,0.0,0.0,0.0,0.0,0.0,0.0,0.0,0.0,0.0,0.0,0.0,0.0,0.0,0.0,0.0,0.0,0.0,0.0,0.0,0.0,0.0,0.0,0.0,0.0,0.0,0.0,0.0,0.0,0.0,0.0,0.0,0.0,0.0,0.0,0.0,0.0,0.0,0.0,0.0,0.0,0.0,0.0,0.0,0.0,0.0,0.0,0.0,0.0,0.0,0.0,0.0,0.0,0.0,0.0,0.0,0.0,0.0,0.0,0.0,0.0,0.0,0.0,0.0,0.0,0.0,0.0,0.0,0.0,0.0,0.0,0.0,0.0,-1.9841,-1.9087,-1.8859,-1.8641,0.0,0.0,0.0,0.0,0.0,0.0,0.0,0.0,0.0,0.0,0.0,0.0,0.0,0.0,0.0,0.0,0.0,0.0,0.0,0.0,0.0,0.0,0.0,0.0,0.0,0.0,0.0,0.0,0.0,0.0,0.0,0.0,0.0,0.0,0.0,0.0,0.0,0.0,0.0,0.0,0.0,0.0,0.0,0.0,0.0,0.0,0.0,0.0,0.0,0.0,0.0,0.0,0.0,0.0,0.0,0.0,0.0,0.0,0.0,0.0,0.0,0.0,0.0,0.0,0.0,0.0,0.0,0.0,0.0,0.0,0.0,0.0,0.0,0.0,0.0,0.0,0.0,0.0,0.0,0.0,0.0,0.0,0.0,0.0,0.0,0.0,0.0,0.0,0.0,0.0,0.0,0.0,0.0,0.0,0.0,0.0,0.0,0.0,0.0,0.0,0.0,0.0,0.0,0.0,0.0,0.0,0.0,0.0,0.0,0.0,-1.926,-1.9135,-1.8553,-1.8422,-1.8205,-1.7765,0.0,0.0,0.0,0.0,0.0,0.0,0.0,0.0,0.0,0.0,0.0,0.0,0.0,0.0,0.0,0.0,0.0,0.0,0.0,0.0,0.0,0.0,0.0,0.0,0.0,0.0,0.0,0.0,0.0,0.0,0.0,0.0,0.0,0.0,0.0,0.0,0.0,0.0,0.0,0.0,0.0,0.0,0.0,0.0,0.0,0.0,0.0,0.0,0.0,0.0,0.0,0.0,0.0,0.0,0.0,0.0,0.0,0.0,0.0,0.0,0.0,0.0,0.0,0.0,0.0,0.0,0.0,0.0,0.0,0.0,0.0,0.0,0.0,0.0,0.0,0.0,0.0,0.0,0.0,0.0,0.0,0.0,0.0,0.0,0.0,0.0,0.0,0.0,0.0,0.0,0.0,0.0,0.0,0.0,0.0,0.0,0.0,0.0,0.0,0.0,0.0,0.0,0.0,0.0,0.0,0.0,0.0,0.0,-1.7547,-1.7328,-1.6951,-1.6478,-1.7483,-1.7292,0.0,0.0,0.0,0.0,0.0,0.0,0.0,0.0,0.0,0.0,0.0,0.0,0.0,0.0,0.0,0.0,0.0,0.0,0.0,0.0,0.0,0.0,0.0,0.0,0.0,0.0,0.0,0.0,0.0,0.0,0.0,0.0,0.0,0.0,0.0,0.0,0.0,0.0,0.0,0.0,0.0,0.0,0.0,0.0,0.0,0.0,0.0,0.0,0.0,0.0,0.0,0.0,0.0,0.0,0.0,0.0,0.0,0.0,0.0,0.0,0.0,0.0,0.0,0.0,0.0,0.0,0.0,0.0,0.0,0.0,0.0,0.0,0.0,0.0,0.0,0.0,0.0,0.0,0.0,0.0,0.0,0.0,0.0,0.0,0.0,0.0,0.0,0.0,0.0,0.0,0.0,0.0,0.0,0.0,0.0,0.0,0.0,0.0,0.0,0.0,0.0,0.0,0.0,0.0,0.0,0.0,0.0,0.0,0.0,-1.6297,-1.6027,-1.6175,-1.6652,-1.6615,-1.6362,0.0,0.0,0.0,0.0,0.0,0.0,0.0,0.0,0.0,0.0,0.0,0.0,0.0,0.0,0.0,0.0,0.0,0.0,0.0,0.0,0.0,0.0,0.0,0.0,0.0,0.0,0.0,0.0,0.0,0.0,0.0,0.0,0.0,0.0,0.0,0.0,0.0,0.0,0.0,0.0,0.0,0.0,0.0,0.0,0.0,0.0,0.0,0.0,0.0,0.0,0.0,0.0,0.0,0.0,0.0,0.0,0.0,0.0,0.0,0.0,0.0,0.0,0.0,0.0,0.0,0.0,0.0,0.0,0.0,0.0,0.0,0.0,0.0,0.0,0.0,0.0,0.0,0.0,0.0,0.0,0.0,0.0,0.0,0.0,0.0,0.0,0.0,0.0,0.0,0.0,0.0,0.0,0.0,0.0,0.0,0.0,0.0,0.0,0.0,0.0,0.0,0.0,0.0,0.0,0.0,0.0,0.0,0.0,0.0,-1.5408,-1.5334,-1.5653,-1.6251,-1.5927,-1.5798,0.0,0.0,0.0,0.0,0.0,0.0,0.0,0.0,0.0,0.0,0.0,0.0,0.0,0.0,0.0,0.0,0.0,0.0,0.0,0.0,0.0,0.0,0.0,0.0,0.0,0.0,0.0,0.0,0.0,0.0,0.0,0.0,0.0,0.0,0.0,0.0,0.0,0.0,0.0,0.0,0.0,0.0,0.0,0.0,0.0,0.0,0.0,0.0,0.0,0.0,0.0,0.0,0.0,0.0,0.0,0.0,0.0,0.0,0.0,0.0,0.0,0.0,0.0,0.0,0.0,0.0,0.0,0.0,0.0,0.0,0.0,0.0,0.0,0.0,0.0,0.0,0.0,0.0,0.0,0.0,0.0,0.0,0.0,0.0,0.0,0.0,0.0,0.0,0.0,0.0,0.0,0.0,0.0,0.0,0.0,0.0,0.0,0.0,0.0,0.0,0.0,0.0,0.0,0.0,0.0,0.0,0.0,0.0,-1.534,-1.4867,-1.5239,-1.5267,-1.4967,-1.563,-1.5656,0.0,0.0,0.0,0.0,0.0,0.0,0.0,0.0,0.0,0.0,0.0,0.0,0.0,0.0,0.0,0.0,0.0,0.0,0.0,0.0,0.0,0.0,0.0,0.0,0.0,0.0,0.0,0.0,0.0,0.0,0.0,0.0,0.0,0.0,0.0,0.0,0.0,0.0,0.0,0.0,0.0,0.0,0.0,0.0,0.0,0.0,0.0,0.0,0.0,0.0,0.0,0.0,0.0,0.0,0.0,0.0,0.0,0.0,0.0,0.0,0.0,0.0,0.0,0.0,0.0,0.0,0.0,0.0,0.0,0.0,0.0,0.0,0.0,0.0,0.0,0.0,0.0,0.0,0.0,0.0,0.0,0.0,0.0,0.0,0.0,0.0,0.0,0.0,0.0,0.0,0.0,0.0,0.0,0.0,0.0,0.0,0.0,0.0,0.0,0.0,0.0,0.0,0.0,0.0,0.0,0.0,0.0,0.0,0.0,-1.4181,-1.486,-1.4985,-1.4419,-1.539,-1.5512,0.0,0.0,0.0,0.0,0.0,0.0,0.0,0.0,0.0,0.0,0.0,0.0,0.0,0.0,0.0,0.0,0.0,0.0,0.0,0.0,0.0,0.0,0.0,0.0,0.0,0.0,0.0,0.0,0.0,0.0,0.0,0.0,0.0,0.0,0.0,0.0,0.0,0.0,0.0,0.0,0.0,0.0,0.0,0.0,0.0,0.0,0.0,0.0,0.0,0.0,0.0,0.0,0.0,0.0,0.0,0.0,0.0,0.0,0.0,0.0,0.0,0.0,0.0,0.0,0.0,0.0,0.0,0.0,0.0,0.0,0.0,0.0,0.0,0.0,0.0,0.0,0.0,0.0,0.0,0.0,0.0,0.0,0.0,0.0,0.0,0.0,0.0,0.0,0.0,0.0,0.0,0.0,0.0,0.0,0.0,0.0,0.0,0.0,0.0,0.0,0.0,0.0,0.0,0.0,0.0,0.0,0.0,0.0,0.0,-1.4057,-1.426,-1.4184,-1.3828,-1.4455,-1.4676,-1.4443,0.0,0.0,0.0,0.0,0.0,0.0,0.0,0.0,0.0,0.0,0.0,0.0,0.0,0.0,0.0,0.0,0.0,0.0,0.0,0.0,0.0,0.0,0.0,0.0,0.0,0.0,0.0,0.0,0.0,0.0,0.0,0.0,0.0,0.0,0.0,0.0,0.0,0.0,0.0,0.0,0.0,0.0,0.0,0.0,0.0,0.0,0.0,0.0,0.0,0.0,0.0,0.0,0.0,0.0,0.0,0.0,0.0,0.0,0.0,0.0,0.0,0.0,0.0,0.0,0.0,0.0,0.0,0.0,0.0,0.0,0.0,0.0,0.0,0.0,0.0,0.0,0.0,0.0,0.0,0.0,0.0,0.0,0.0,0.0,0.0,0.0,0.0,0.0,0.0,0.0,0.0,0.0,0.0,0.0,0.0,0.0,0.0,0.0,0.0,0.0,0.0,0.0,0.0,0.0,0.0,0.0,0.0,0.0,-1.4467,-1.3491,-1.3081,-1.3331,-1.3229,-1.3375,0.0,0.0,0.0,0.0,0.0,0.0,0.0,0.0,0.0,0.0,0.0,0.0,0.0,0.0,0.0,0.0,0.0,0.0,0.0,0.0,0.0,0.0,0.0,0.0,0.0,0.0,0.0,0.0,0.0,0.0,0.0,0.0,0.0,0.0,0.0,0.0,0.0,0.0,0.0,0.0,0.0,0.0,0.0,0.0,0.0,0.0,0.0,0.0,0.0,0.0,0.0,0.0,0.0,0.0,0.0,0.0,0.0,0.0,0.0,0.0,0.0,0.0,0.0,0.0,0.0,0.0,0.0,0.0,0.0,0.0,0.0,0.0,0.0,0.0,0.0,0.0,0.0,0.0,0.0,0.0,0.0,0.0,0.0,0.0,0.0,0.0,0.0,0.0,0.0,0.0,0.0,0.0,0.0,0.0,0.0,0.0,0.0,0.0,0.0,0.0,0.0,0.0,0.0,0.0,0.0,0.0,0.0,0.0,0.0,-1.5063,-1.3473,-1.2697,-1.287,-1.3453,-1.3698,0.0,0.0,0.0,0.0,0.0,0.0,0.0,0.0,0.0,0.0,0.0,0.0,0.0,0.0,0.0,0.0,0.0,0.0,0.0,0.0,0.0,0.0,0.0,0.0,0.0,0.0,0.0,0.0,0.0,0.0,0.0,0.0,0.0,0.0,0.0,0.0,0.0,0.0,0.0,0.0,0.0,0.0,0.0,0.0,0.0,0.0,0.0,0.0,0.0,0.0,0.0,0.0,0.0,0.0,0.0,0.0,0.0,0.0,0.0,0.0,0.0,0.0,0.0,0.0,0.0,0.0,0.0,0.0,0.0,0.0,0.0,0.0,0.0,0.0,0.0,0.0,0.0,0.0,0.0,0.0,0.0,0.0,0.0,0.0,0.0,0.0,0.0,0.0,0.0,0.0,0.0,0.0,0.0,0.0,0.0,0.0,0.0,0.0,0.0,0.0,0.0,0.0,0.0,0.0,0.0,0.0,0.0,0.0,-1.53,-1.4843,-1.3493,-1.2437,-1.1904,-1.2443,-1.282,0.0,0.0,0.0,0.0,0.0,0.0,0.0,0.0,0.0,0.0,0.0,0.0,0.0,0.0,0.0,0.0,0.0,0.0,0.0,0.0,0.0,0.0,0.0,0.0,0.0,0.0,0.0,0.0,0.0,0.0,0.0,0.0,0.0,0.0,0.0,0.0,0.0,0.0,0.0,0.0,0.0,0.0,0.0,0.0,0.0,0.0,0.0,0.0,0.0,0.0,0.0,0.0,0.0,0.0,0.0,0.0,0.0,0.0,0.0,0.0,0.0,0.0,0.0,0.0,0.0,0.0,0.0,0.0,0.0,0.0,0.0,0.0,0.0,0.0,0.0,0.0,0.0,0.0,0.0,0.0,0.0,0.0,0.0,0.0,0.0,0.0,0.0,0.0,0.0,0.0,0.0,0.0,0.0,0.0,0.0,0.0,0.0,0.0,0.0,0.0,0.0,0.0,0.0,0.0,0.0,0.0,0.0,0.0,-1.5287,-1.4186,-1.3385,-1.2245,-1.0801,-1.0856,-1.1467,0.0,0.0,0.0,0.0,0.0,0.0,0.0,0.0,0.0,0.0,0.0,0.0,0.0,0.0,0.0,0.0,0.0,0.0,0.0,0.0,0.0,0.0,0.0,0.0,0.0,0.0,0.0,0.0,0.0,0.0,0.0,0.0,0.0,0.0,0.0,0.0,0.0,0.0,0.0,0.0,0.0,0.0,0.0,0.0,0.0,0.0,0.0,0.0,0.0,0.0,0.0,0.0,0.0,0.0,0.0,0.0,0.0,0.0,0.0,0.0,0.0,0.0,0.0,0.0,0.0,0.0,0.0,0.0,0.0,0.0,0.0,0.0,0.0,0.0,0.0,0.0,0.0,0.0,0.0,0.0,0.0,0.0,0.0,0.0,0.0,0.0,0.0,0.0,0.0,0.0,0.0,0.0,0.0,0.0,0.0,0.0,0.0,0.0,0.0,0.0,0.0,0.0,0.0,0.0,0.0,0.0,0.0,0.0,-1.4578,-1.4279,-1.2512,-1.1444,-1.1104,-1.1175,-1.1368,0.0,0.0,0.0,0.0,0.0,0.0,0.0,0.0,0.0,0.0,0.0,0.0,0.0,0.0,0.0,0.0,0.0,0.0,0.0,0.0,0.0,0.0,0.0,0.0,0.0,0.0,0.0,0.0,0.0,0.0,0.0,0.0,0.0,0.0,0.0,0.0,0.0,0.0,0.0,0.0,0.0,0.0,0.0,0.0,0.0,0.0,0.0,0.0,-3.5497,0.0,0.0,0.0,0.0,0.0,0.0,0.0,0.0,0.0,0.0,0.0,0.0,0.0,0.0,0.0,0.0,0.0,0.0,0.0,0.0,0.0,0.0,0.0,0.0,0.0,0.0,0.0,0.0,0.0,0.0,0.0,0.0,0.0,0.0,0.0,0.0,0.0,0.0,0.0,0.0,0.0,0.0,0.0,0.0,0.0,0.0,0.0,0.0,0.0,0.0,0.0,0.0,0.0,0.0,0.0,0.0,0.0,0.0,0.0,-1.3644,-1.2813,-1.1755,-1.0974,-1.0493,-1.0491,-1.0658,0.0,0.0,0.0,0.0,0.0,0.0,0.0,0.0,0.0,0.0,0.0,0.0,0.0,0.0,0.0,0.0,0.0,0.0,0.0,0.0,0.0,0.0,0.0,0.0,0.0,0.0,0.0,0.0,0.0,0.0,0.0,0.0,0.0,0.0,0.0,0.0,0.0,0.0,0.0,0.0,0.0,0.0,0.0,0.0,0.0,0.0,0.0,0.0,0.0,0.0,0.0,0.0,0.0,0.0,0.0,0.0,0.0,0.0,0.0,0.0,0.0,0.0,0.0,0.0,0.0,0.0,0.0,0.0,0.0,0.0,0.0,0.0,0.0,0.0,0.0,0.0,0.0,0.0,0.0,0.0,0.0,0.0,0.0,0.0,0.0,0.0,0.0,0.0,0.0,0.0,0.0,0.0,0.0,0.0,0.0,0.0,0.0,0.0,0.0,0.0,0.0,0.0,0.0,0.0,0.0,0.0,0.0,-1.3126,-1.2662,-1.1249,-1.1072,-1.0493,-0.9624,-0.9533,-0.9854,-1.0492,0.0,0.0,0.0,0.0,0.0,0.0,0.0,0.0,0.0,0.0,0.0,0.0,0.0,0.0,0.0,0.0,0.0,0.0,0.0,0.0,0.0,0.0,0.0,0.0,0.0,0.0,0.0,0.0,0.0,0.0,0.0,0.0,0.0,0.0,0.0,0.0,0.0,0.0,-3.0192,-3.1023,0.0,0.0,0.0,0.0,0.0,0.0,0.0,0.0,-3.6023,0.0,0.0,0.0,0.0,0.0,0.0,0.0,0.0,0.0,0.0,0.0,0.0,0.0,0.0,0.0,0.0,0.0,0.0,0.0,0.0,0.0,0.0,0.0,0.0,0.0,0.0,0.0,0.0,0.0,0.0,0.0,0.0,0.0,0.0,0.0,0.0,0.0,0.0,0.0,0.0,0.0,0.0,0.0,0.0,0.0,0.0,0.0,0.0,0.0,0.0,0.0,0.0,0.0,0.0,0.0,0.0,-1.3544,-1.261,-1.1854,-1.1249,-1.0306,-0.9821,-0.9624,-0.9327,-0.9291,-0.9481,0.0,0.0,0.0,0.0,0.0,0.0,0.0,0.0,0.0,0.0,0.0,0.0,0.0,0.0,0.0,0.0,0.0,0.0,0.0,0.0,0.0,0.0,0.0,0.0,0.0,0.0,0.0,0.0,0.0,0.0,0.0,0.0,0.0,0.0,0.0,0.0,0.0,0.0,0.0,-3.2332,-3.2106,0.0,0.0,0.0,0.0,0.0,0.0,0.0,0.0,-3.5068,0.0,0.0,0.0,0.0,0.0,0.0,0.0,0.0,0.0,0.0,0.0,0.0,0.0,0.0,0.0,0.0,0.0,0.0,0.0,0.0,0.0,0.0,0.0,0.0,0.0,0.0,0.0,0.0,0.0,0.0,0.0,0.0,0.0,0.0,0.0,0.0,0.0,0.0,0.0,0.0,0.0,0.0,0.0,0.0,0.0,0.0,0.0,0.0,0.0,0.0,0.0,0.0,0.0,0.0,0.0,-1.2122,-1.1743,-1.1153,-1.0386,-0.9723,-0.9474,-0.9554,-0.9361,-0.9139,0.0,0.0,0.0,0.0,0.0,0.0,0.0,0.0,0.0,0.0,0.0,0.0,0.0,0.0,0.0,0.0,0.0,0.0,0.0,0.0,0.0,0.0,0.0,0.0,0.0,0.0,0.0,0.0,0.0,0.0,0.0,0.0,0.0,0.0,0.0,0.0,0.0,0.0,0.0,0.0,-3.3373,-3.3643,-3.4465,0.0,0.0,0.0,0.0,0.0,0.0,-3.5018,-3.4848,0.0,0.0,0.0,0.0,0.0,0.0,0.0,0.0,0.0,0.0,0.0,0.0,0.0,0.0,0.0,0.0,0.0,0.0,0.0,0.0,0.0,0.0,0.0,0.0,0.0,0.0,0.0,0.0,0.0,0.0,0.0,0.0,0.0,0.0,0.0,0.0,0.0,0.0,0.0,0.0,0.0,0.0,0.0,0.0,0.0,0.0,0.0,0.0,0.0,0.0,0.0,0.0,0.0,0.0,0.0,-1.0795,-1.0928,-1.0556,-0.963,-0.9438,-0.94,-0.943,-0.9335,-0.9106,0.0,0.0,0.0,0.0,0.0,0.0,0.0,0.0,0.0,0.0,0.0,0.0,0.0,0.0,0.0,0.0,0.0,0.0,0.0,0.0,0.0,0.0,0.0,0.0,0.0,0.0,0.0,0.0,0.0,0.0,0.0,0.0,0.0,0.0,0.0,0.0,0.0,0.0,0.0,0.0,0.0,-3.4864,-3.4395,-3.4575,0.0,0.0,0.0,0.0,-3.631,-3.5548,0.0,0.0,0.0,0.0,0.0,0.0,0.0,0.0,0.0,0.0,0.0,0.0,0.0,0.0,0.0,0.0,0.0,0.0,0.0,0.0,0.0,0.0,0.0,0.0,0.0,0.0,0.0,0.0,0.0,0.0,0.0,0.0,0.0,0.0,0.0,0.0,0.0,0.0,0.0,0.0,0.0,0.0,0.0,0.0,0.0,0.0,0.0,0.0,0.0,0.0,0.0,0.0,0.0,0.0,0.0,0.0,-1.1062,-1.0542,-1.0035,-0.9753,-0.968,-0.9592,-0.9302,-0.9093,-0.8822,0.0,0.0,0.0,0.0,0.0,0.0,0.0,0.0,0.0,0.0,0.0,0.0,0.0,0.0,0.0,0.0,0.0,0.0,0.0,0.0,0.0,0.0,0.0,0.0,0.0,0.0,0.0,0.0,0.0,0.0,0.0,0.0,0.0,0.0,0.0,0.0,0.0,0.0,0.0,0.0,0.0,-3.4375,-3.5579,-3.5386,-3.531,0.0,0.0,-3.5913,-3.6675,-3.625,0.0,0.0,0.0,0.0,0.0,0.0,0.0,0.0,0.0,0.0,0.0,0.0,0.0,0.0,0.0,0.0,0.0,0.0,0.0,0.0,0.0,0.0,0.0,0.0,0.0,0.0,0.0,0.0,0.0,0.0,0.0,0.0,0.0,0.0,0.0,0.0,0.0,0.0,0.0,0.0,0.0,0.0,0.0,0.0,0.0,0.0,0.0,0.0,0.0,0.0,0.0,0.0,0.0,0.0,0.0,-1.069,-0.9966,-0.9862,-0.9742,-0.9421,-0.9324,-0.9264,-0.914,-0.8934,-0.8713,0.0,0.0,0.0,0.0,0.0,0.0,0.0,0.0,0.0,0.0,0.0,0.0,0.0,0.0,0.0,0.0,0.0,0.0,0.0,0.0,0.0,0.0,0.0,0.0,0.0,0.0,0.0,0.0,0.0,0.0,0.0,0.0,0.0,0.0,0.0,0.0,0.0,0.0,0.0,0.0,0.0,0.0,-3.5681,-3.5473,0.0,0.0,0.0,-3.5815,-3.6535,0.0,0.0,0.0,0.0,0.0,0.0,0.0,0.0,0.0,0.0,0.0,0.0,0.0,0.0,0.0,0.0,0.0,0.0,0.0,0.0,0.0,0.0,0.0,0.0,0.0,0.0,0.0,0.0,0.0,0.0,0.0,0.0,0.0,0.0,0.0,0.0,0.0,0.0,0.0,0.0,0.0,0.0,0.0,0.0,0.0,0.0,0.0,0.0,0.0,0.0,0.0,0.0,0.0,0.0,0.0,0.0,0.0,-0.9298,-0.9682,-0.9723,-0.9451,-0.9246,-0.919,-0.919,-0.8981,0.0,0.0,0.0,0.0,0.0,0.0,0.0,0.0,0.0,0.0,0.0,0.0,0.0,0.0,0.0,0.0,0.0,0.0,0.0,0.0,0.0,0.0,0.0,0.0,0.0,0.0,0.0,-1.9089,0.0,0.0,0.0,0.0,0.0,0.0,0.0,0.0,0.0,0.0,0.0,0.0,0.0,0.0,-3.5613,-3.5305,-3.5366,-3.5497,0.0,0.0,-3.5796,-3.6404,-3.5783,-3.5196,0.0,0.0,0.0,0.0,0.0,0.0,0.0,0.0,0.0,0.0,0.0,0.0,0.0,0.0,0.0,0.0,0.0,0.0,0.0,0.0,0.0,0.0,0.0,0.0,0.0,0.0,0.0,0.0,0.0,0.0,0.0,0.0,0.0,0.0,0.0,0.0,0.0,0.0,0.0,0.0,0.0,0.0,0.0,0.0,0.0,0.0,0.0,0.0,0.0,0.0,0.0,0.0,0.0,0.0,-0.979,-0.9786,-1.0171,-1.017,-0.9779,-0.9779,-0.9677,-0.9361,-0.9361,-0.9144,0.0,0.0,0.0,0.0,0.0,0.0,0.0,0.0,0.0,0.0,0.0,0.0,0.0,0.0,0.0,0.0,0.0,0.0,0.0,0.0,0.0,0.0,0.0,0.0,0.0,0.0,0.0,0.0,0.0,0.0,0.0,0.0,0.0,0.0,0.0,0.0,0.0,0.0,0.0,0.0,0.0,-3.3549,-3.4446,-3.5113,-3.5543,0.0,-3.5864,-3.6127,-3.6281,-3.6207,-3.5815,-3.4531,0.0,0.0,0.0,0.0,0.0,0.0,0.0,0.0,0.0,0.0,0.0,0.0,0.0,0.0,0.0,0.0,0.0,0.0,0.0,0.0,0.0,0.0,0.0,0.0,0.0,0.0,0.0,0.0,0.0,0.0,0.0,0.0,0.0,0.0,0.0,0.0,0.0,0.0,0.0,0.0,0.0,0.0,0.0,0.0,0.0,0.0,0.0,0.0,0.0,0.0,0.0,0.0,0.0,-0.9588,-0.8736,-0.9799,-1.0186,-0.9816,-0.9596,-0.9596,-0.9706,-0.9579,-0.9145,0.0,0.0,0.0,0.0,0.0,0.0,0.0,0.0,0.0,0.0,0.0,0.0,0.0,0.0,0.0,0.0,0.0,0.0,0.0,0.0,0.0,0.0,0.0,0.0,0.0,0.0,0.0,0.0,-1.7424,-1.9616,-2.2283,0.0,0.0,0.0,0.0,0.0,0.0,0.0,0.0,0.0,0.0,-3.4787,-3.4974,-3.5305,0.0,0.0,-3.5224,-3.5384,-3.5142,-3.5114,-3.5117,-3.5155,-3.5517,0.0,0.0,0.0,0.0,0.0,0.0,0.0,0.0,0.0,0.0,0.0,0.0,0.0,0.0,0.0,0.0,0.0,0.0,0.0,0.0,0.0,0.0,0.0,0.0,0.0,0.0,0.0,0.0,0.0,0.0,0.0,0.0,0.0,0.0,0.0,0.0,0.0,0.0,0.0,0.0,0.0,0.0,0.0,0.0,0.0,0.0,0.0,0.0,0.0,0.0,0.0,0.0,-0.927,-0.8367,-0.9587,-1.0147,-0.9816,-0.9639,-0.9439,-0.9106,-0.9243,-0.8594,0.0,0.0,0.0,0.0,0.0,0.0,0.0,0.0,0.0,0.0,0.0,0.0,0.0,0.0,0.0,0.0,0.0,0.0,0.0,0.0,0.0,0.0,0.0,0.0,0.0,0.0,0.0,0.0,-1.5481,-1.7876,-2.041,0.0,0.0,0.0,0.0,0.0,0.0,0.0,0.0,0.0,0.0,-3.4392,-3.4484,-3.4573,-3.4529,-3.4126,-3.4244,-3.434,-3.427,-3.4195,-3.434,-3.4812,0.0,0.0,0.0,0.0,0.0,0.0,0.0,0.0,0.0,0.0,0.0,0.0,0.0,0.0,0.0,0.0,0.0,0.0,0.0,0.0,0.0,0.0,0.0,0.0,0.0,0.0,0.0,-1.7885,0.0,0.0,-1.6951,0.0,0.0,0.0,0.0,0.0,0.0,0.0,0.0,0.0,0.0,0.0,0.0,0.0,0.0,0.0,0.0,0.0,0.0,0.0,0.0,0.0,0.0,-0.8987,-0.882,-0.9745,-1.0147,-0.9816,-0.9965,-0.925,-0.7777,-0.8123,-0.7437,-0.5678,0.0,0.0,0.0,0.0,0.0,0.0,0.0,0.0,0.0,0.0,0.0,0.0,0.0,0.0,0.0,0.0,0.0,0.0,0.0,0.0,0.0,0.0,0.0,0.0,0.0,0.0,-1.1272,-1.4859,-1.7763,0.0,0.0,0.0,0.0,0.0,0.0,0.0,0.0,0.0,-3.2272,-3.1855,-3.1627,-3.2578,-3.2683,-3.2883,-3.3344,-3.3217,-3.3244,-3.3709,-3.3736,-3.3597,0.0,0.0,0.0,0.0,0.0,0.0,0.0,0.0,0.0,0.0,0.0,0.0,0.0,0.0,0.0,0.0,0.0,0.0,0.0,0.0,0.0,0.0,0.0,0.0,0.0,0.0,0.0,-1.8421,-1.8035,0.0,0.0,0.0,0.0,0.0,0.0,0.0,0.0,0.0,0.0,0.0,-1.2086,-1.219,0.0,0.0,0.0,0.0,0.0,0.0,0.0,0.0,0.0,0.0,0.0,0.0,-0.8553,-0.8595,-0.9434,-0.9926,-0.9816,-0.895,-0.8231,-0.7897,-0.7236,-0.6182,-0.4818,0.0,0.0,0.0,0.0,0.0,0.0,0.0,0.0,0.0,0.0,0.0,0.0,0.0,0.0,0.0,0.0,0.0,0.0,0.0,0.0,0.0,0.0,0.0,0.0,0.0,-0.9763,0.0,0.0,0.0,0.0,0.0,0.0,0.0,0.0,0.0,0.0,-2.7446,-2.8404,-2.955,-3.0436,-3.1096,-3.1418,-3.185,-3.2094,0.0,0.0,0.0,0.0,0.0,0.0,0.0,0.0,0.0,0.0,0.0,0.0,0.0,0.0,-3.5519,-3.4473,-3.5232,-3.6065,-3.5983,0.0,0.0,0.0,0.0,0.0,0.0,0.0,0.0,0.0,0.0,0.0,0.0,0.0,0.0,-1.858,0.0,-1.8224,0.0,0.0,0.0,0.0,0.0,0.0,0.0,0.0,-1.3913,-1.3299,-1.2099,-1.227,-1.1462,0.0,-0.9528,-0.9221,0.0,0.0,0.0,0.0,0.0,0.0,0.0,0.0,-0.871,-0.8942,-0.9617,-0.9817,-0.942,-0.8571,-0.7758,-0.6985,-0.5766,-0.4706,-0.3888,-0.4085,-0.3606,0.0,0.0,0.0,0.0,0.0,0.0,0.0,0.0,0.0,0.0,0.0,0.0,0.0,0.0,0.0,0.0,0.0,0.0,0.0,0.0,0.0,0.0,0.0,-0.9076,0.0,0.0,0.0,0.0,0.0,0.0,0.0,0.0,0.0,-2.4384,-2.5809,-2.6901,-2.7723,-2.88,-2.9539,-2.9688,0.0,0.0,0.0,0.0,0.0,0.0,0.0,-3.1094,-3.2075,-3.2222,-3.2316,-3.2664,-3.2801,-3.2975,-3.3028,0.0,0.0,-3.5234,-3.5963,-3.6766,-3.7372,-3.8034,-3.8531,-3.8863,-3.906,-3.9562,0.0,0.0,0.0,0.0,0.0,0.0,0.0,0.0,-1.9442,-1.8719,0.0,-1.7367,0.0,0.0,0.0,0.0,-1.4594,-1.4782,0.0,0.0,-1.493,-1.4777,-1.3579,-1.2598,-1.1585,-1.0601,-0.9173,-0.8433,-0.8322,-0.8766,0.0,0.0,0.0,0.0,0.0,0.0,-0.9276,-0.979,-1.0179,-0.981,-0.8678,-0.8815,-0.767,-0.4913,-0.3712,-0.3099,-0.3095,-0.3305,-0.3215,-0.2883,-0.3467,0.0,0.0,0.0,0.0,0.0,0.0,0.0,0.0,0.0,0.0,0.0,0.0,0.0,0.0,0.0,0.0,0.0,0.0,0.0,0.0,-0.8562,0.0,0.0,0.0,0.0,0.0,0.0,0.0,0.0,0.0,-1.9949,-2.301,-2.4867,-2.6133,-2.67,0.0,0.0,0.0,0.0,-2.779,-2.8633,-2.8552,-2.8613,-2.9134,-2.9089,-2.9381,-3.0016,0.0,0.0,-3.1969,-3.1595,-3.1466,-3.1553,-3.267,-3.4384,-3.7014,-3.6985,-3.7117,-3.8806,-3.891,-3.8868,-3.9164,-3.9854,-4.0372,-2.4049,0.0,0.0,0.0,0.0,-2.0296,-2.0234,-2.0783,-1.9239,-1.8394,-1.7985,-1.7707,0.0,0.0,0.0,0.0,0.0,0.0,-1.4891,-1.4621,-1.3788,-1.3116,-1.2618,-1.1394,-1.0257,-0.9241,-0.8988,-0.8764,-0.8783,-0.8822,-0.8542,-0.7871,0.0,0.0,0.0,0.0,-0.8845,-0.9224,-0.8704,-0.8231,-0.8004,-0.6425,-0.5063,-0.3771,-0.3399,-0.3161,-0.3189,-0.3532,-0.3553,-0.314,-0.3635,0.0,0.0,0.0,0.0,0.0,0.0,0.0,0.0,0.0,0.0,0.0,0.0,0.0,0.0,0.0,0.0,0.0,0.0,0.0,-0.7987,-0.8969,-0.9727,0.0,0.0,0.0,0.0,0.0,0.0,0.0,0.0,0.0,-2.0598,-2.1735,-2.2883,0.0,0.0,-2.4935,-2.5915,-2.6491,-2.6919,-2.7159,-2.7453,0.0,-2.825,-2.8469,-2.8828,-2.9878,-3.0641,-3.1079,-3.1406,-3.1463,-3.156,-3.1604,-3.1898,-3.267,-3.4513,-3.6343,-3.7857,-3.9171,-3.9594,-3.9741,-3.9822,-4.0511,-4.1051,-2.5051,-2.4178,-2.3721,-2.3453,-2.3204,-2.1789,-2.1235,-2.1251,-1.9781,-1.8642,-1.7774,-1.729,-1.6733,-1.6111,-1.5979,0.0,0.0,0.0,-1.5076,-1.4311,-1.3303,-1.2283,-1.1394,-1.0749,-0.9869,-0.8798,-0.8832,-0.8879,-0.894,-0.8872,-0.8501,-0.7816,0.0,0.0,-0.8408,-0.8756,-0.8893,-0.8798,-0.8242,-0.751,-0.6509,-0.4731,-0.3653,-0.3187,-0.3189,-0.3204,-0.3226,-0.3497,-0.343,-0.3284,-0.3463,-0.3722,0.0,0.0,0.0,0.0,0.0,0.0,0.0,0.0,0.0,0.0,0.0,-0.726,-0.6783,0.0,0.0,0.0,-0.8255,-0.8564,-0.88,-0.9567,0.0,0.0,0.0,0.0,0.0,0.0,0.0,-1.5909,-1.685,-1.7754,-1.8617,-1.9475,-2.0565,-2.1925,-2.2646,-2.3266,-2.427,0.0,-2.5407,-2.5692,-2.6104,-2.636,-2.6758,-2.6942,-2.7378,-2.8494,-2.9422,-2.9937,-2.9919,-3.0291,-3.0538,-3.0642,-3.0963,-3.1618,-3.3105,-3.4897,-3.6466,-3.7679,-3.8282,-3.8721,-3.9111,-3.9954,-4.0933,-2.6166,-2.6467,-2.5136,-2.4734,-2.4932,-2.4262,-2.3114,-2.1677,-2.0448,-1.9089,-1.7725,-1.6491,-1.5952,-1.5953,-1.5712,0.0,-1.4949,-1.563,-1.4968,-1.3307,-1.2955,-1.2,-1.0329,-1.049,-1.0021,-0.8933,-0.8798,-0.8804,-0.8947,-0.8818,-0.8764,-0.8798,-0.8798,-0.914,-0.9829,-0.9646,-0.9189,-0.861,-0.8493,-0.7229,-0.4646,-0.3713,-0.3228,-0.3228,-0.3228,-0.3228,-0.3228,-0.3228,-0.3228,-0.3222,-0.3284,-0.3307,-0.347,0.0,0.0,0.0,0.0,0.0,0.0,0.0,0.0,0.0,0.0,0.0,0.0,0.0,0.0,0.0,-0.9195,0.0,-0.9943,-0.9731,0.0,0.0,0.0,-1.0373,-1.1552,-1.2858,-1.3863,-1.4706,0.0,0.0,-1.7103,-1.7861,-1.8904,-2.0362,-2.1288,-2.2059,-2.258,-2.3145,-2.3579,-2.4101,-2.439,-2.468,-2.513,-2.5359,-2.5892,-2.6858,-2.7544,-2.8374,-2.8426,-2.8933,-2.9259,-2.933,-3.0101,-3.12,-3.2611,-3.3216,-3.3726,-3.4997,-3.5804,-3.6587,-3.7566,-3.8713,-4.0099,-2.6045,-2.6445,-2.5289,-2.4686,-2.4571,-2.3077,-2.1835,-2.0803,-1.9628,-1.8523,-1.7482,-1.663,-1.5931,-1.532,-1.523,-1.4844,-1.416,-1.5386,-1.4646,-1.2383,-1.1909,-1.1167,-1.0179,-0.9574,-0.9154,-0.8933,-0.8899,-0.896,-0.9096,-0.895,-0.9104,-0.9537,-0.9557,-0.9538,-0.9291,-0.8641,-0.8324,-0.8254,-0.619,-0.4586,-0.3195,-0.2952,-0.2961,-0.3228,-0.3228,-0.3228,-0.3228,-0.3228,-0.3228,-0.3226,-0.3444,-0.368,-0.3689,-0.3688,0.0,0.0,0.0,0.0,0.0,0.0,0.0,0.0,0.0,-0.7328,-0.6411,0.0,-0.736,0.0,-0.6905,-0.7187,-0.6652,-0.6719,0.0,0.0,-0.7022,-0.7376,-0.9222,-0.9341,-1.0293,-1.3236,-1.3501,-1.4045,-1.5596,-1.5621,-1.5706,-1.6138,-1.8887,-2.0712,-2.0472,-2.1752,-2.2432,-2.1883,-2.301,-2.4266,-2.4535,-2.5589,-2.6597,-2.7696,-2.8527,-2.9158,-2.9696,-2.9881,-3.0015,-2.998,-3.0434,-3.1042,-3.1635,-3.22,-3.2816,-3.3514,-3.4931,-3.6201,-3.6474,-3.7542,-3.8756,-2.5887,-2.6198,-2.4547,-2.3751,-2.3603,-2.3277,-2.2307,-2.0853,-2.0068,-1.878,-1.734,-1.671,-1.6138,-1.5656,-1.5553,-1.4904,-1.3965,-1.3173,-1.2262,-1.1437,-1.0327,-0.9786,-0.9581,-0.9037,-0.8712,-0.8712,-0.8778,-0.8851,-0.8931,-0.905,-0.9032,-0.8842,-0.8711,-0.8441,-0.7939,-0.8068,-0.7566,-0.6426,-0.4336,-0.2937,-0.2558,-0.2425,-0.2535,-0.2619,-0.2667,-0.2668,-0.2619,-0.2665,-0.2802,-0.2882,-0.3159,-0.3424,-0.3663,-0.3712,-0.373,0.0,0.0,0.0,0.0,0.0,0.0,0.0,0.0,0.0,0.0,0.0,-0.5907,-0.4902,-0.5814,-0.6246,-0.5725,-0.5977,-0.6365,-0.6821,-0.6419,-0.6694,-0.8331,-0.8113,-0.8758,-1.109,-1.124,-1.1587,-1.2766,-1.3161,-1.3412,-1.3701,-1.5829,-1.7549,-1.8107,-1.905,-1.9714,-1.9554,-2.0678,-2.2089,-2.3332,-2.5157,-2.6466,-2.7061,-2.7794,-2.8406,-2.8874,-2.9319,-2.9593,-2.9576,-3.0376,-3.1194,-3.1576,-3.2224,-3.2841,-3.3431,-3.4478,-3.5394,-3.6011,-3.6816,-3.7989,-2.5577,-2.5743,-2.3488,-2.226,-2.1987,-2.3633,-2.2991,-2.0862,-2.0623,-1.9207,-1.7067,-1.6867,-1.661,-1.6356,-1.6053,-1.5258,-1.3867,-1.0409,-0.945,-1.0225,-0.8749,-0.8213,-0.8719,-0.851,-0.8523,-0.8549,-0.8571,-0.866,-0.8583,-0.9058,-0.8654,-0.7567,-0.6864,-0.6468,-0.6027,-0.7229,-0.6545,-0.4015,-0.2782,-0.2143,-0.2143,-0.2143,-0.2105,-0.2033,-0.2109,-0.2249,-0.2042,-0.2112,-0.2383,-0.2554,-0.2578,-0.2966,-0.3568,-0.371,-0.3781,0.0,-0.3162,0.0,0.0,0.0,0.0,0.0,0.0,0.0,0.0,-0.4674,-0.3933,-0.4247,-0.5228,-0.5833,-0.5573,-0.5819,-0.6038,-0.6454,-0.6454,-0.6733,-0.7287,-0.7422,-0.7841,-0.8676,-0.8906,-0.9117,-0.983,-1.0488,-1.1129,-1.1872,-1.2551,-1.3681,-1.5177,-1.6301,-1.7056,-1.7571,-1.8185,-1.969,-2.1579,-2.3958,-2.5567,-2.5751,-2.6623,-2.7059,-2.7415,-2.8114,-2.8793,-2.8947,-3.0206,-3.1419,-3.1808,-3.2564,-3.3215,-3.3956,-3.4277,-3.4681,-3.557,-3.6246,-3.7635,-2.5011,-2.4878,-2.3278,-2.1171,-1.9273,-2.0977,-2.0794,-1.9367,-1.9252,-1.8403,-1.7134,-1.702,-1.6875,-1.661,-1.6148,-1.4922,-1.2986,-1.0186,-0.8722,-0.8484,-0.8152,-0.7931,-0.7838,-0.8158,-0.8268,-0.8384,-0.8506,-0.8324,-0.7664,-0.8841,-0.8352,-0.6485,-0.4296,-0.3641,-0.4529,0.0,0.0,0.0,-0.2232,-0.2082,-0.208,-0.208,-0.2074,-0.2057,-0.2385,0.0,-0.2131,-0.2414,-0.255,-0.2264,-0.28,0.0,0.0,0.0,0.0,0.0,0.0,0.0,0.0,0.0,0.0,0.0,-0.385,-0.4891,-0.6161,-0.2942,-0.1913,-0.4322,-0.3765,-0.3143,-0.3016,-0.3029,-0.318,-0.318,-0.318,-0.3325,-0.3758,-0.39,-0.4477,-0.6202,-0.5932,-0.6231,-0.7814,-0.7688,-0.7874,-0.8967,-0.92,-0.9954,-1.177,-1.443,-1.6011,-1.5757,-1.6971,-1.8601,-1.9358,-2.1558,-2.3549,-2.4412,-2.5941,-2.7199,-2.7983,-2.8473,-2.8774,-2.9059,-2.9928,-3.0899,-3.1617,-3.2205,-3.3057,-3.4209,-3.4564,-3.4832,-3.493,-3.5002,-3.5672,-2.5044,-2.4771,-2.2752,-2.0667,0.0,-1.9018,-1.8713,-1.8105,-1.8941,-1.8508,-1.7197,-1.6701,-1.64,-1.6149,-1.6523,-1.5063,-1.2072,-0.9876,-0.8626,-0.8249,-0.7903,-0.7823,-0.8117,-0.8299,-0.8518,-0.8659,-0.8908,-0.8547,-0.7546,-0.7653,-0.6859,-0.5125,-0.3171,-0.2512,-0.3163,-0.3206,-0.2961,-0.2155,-0.2124,-0.2109,-0.2109,-0.2109,-0.2087,-0.2046,-0.2248,0.0,0.0,0.0,0.0,0.0,0.0,0.0,0.0,-0.2809,0.0,-0.1689,-0.1148,-0.0632,-0.0382,0.0129,0.0131,-0.0537,-0.1362,-0.2184,-0.3232,-0.125,-0.0706,-0.2247,-0.2001,-0.1884,-0.2188,-0.2043,-0.1896,-0.2187,-0.2333,-0.2333,-0.2624,-0.2625,-0.3061,-0.408,-0.4104,-0.4265,-0.5436,-0.5436,-0.5743,-0.6662,-0.7374,-0.8274,-0.9899,-1.199,-1.3367,-1.3784,-1.5615,-1.7057,-1.7654,-1.9572,-2.1361,-2.2387,-2.4037,-2.5735,-2.6474,-2.768,-2.8418,-2.8707,-2.9568,-3.0743,-3.164,-3.2527,-3.3368,-3.4678,-3.5067,-3.5275,-3.5278,-3.5332,-3.5659,-2.4813,-2.4906,-2.2299,-2.0361,-1.901,-1.8002,-1.7428,-1.7417,-1.8545,0.0,0.0,-1.6219,-1.575,-1.5655,-1.6692,-1.513,-1.1594,-0.9652,-0.8621,-0.8335,-0.7746,-0.7808,-0.8408,-0.8558,-0.8648,-0.8805,-0.9193,-0.8632,-0.739,-0.6774,-0.5537,-0.3833,-0.2672,-0.2151,-0.2154,-0.2155,-0.2155,-0.2154,-0.2144,-0.2139,-0.2139,-0.2139,-0.2104,-0.2029,-0.2241,-0.2252,-0.2048,-0.2252,-0.2128,-0.167,-0.2079,-0.1824,-0.103,-0.143,-0.1329,-0.0549,0.0138,0.0693,0.084,0.1683,0.2248,0.2253,0.1141,0.0286,-0.0,-0.0,-0.0,-0.0,-0.058,-0.1314,-0.1898,-0.146,-0.1313,-0.1895,-0.2187,-0.2334,-0.2339,-0.2335,-0.2481,-0.2781,-0.2946,-0.2963,-0.3405,-0.3707,-0.4312,-0.5212,-0.6255,-0.7459,-0.8865,-1.0293,-1.161,-1.2578,-1.415,-1.5225,-1.5845,-1.7796,-1.9338,-1.9908,-2.2013,-2.3696,-2.4354,-2.6003,-2.7363,-2.7906,-2.9152,-3.0451,-3.1981,-3.2628,-3.3643,-3.5222,-3.5416,-3.5477,-3.5793,-3.5976,-3.6305,-2.3898,-2.4925,-2.2194,-2.0246,-1.9096,-1.8872,-1.8442,-1.7769,-1.7099,-1.6549,-1.6301,-1.6269,-1.5996,-1.5881,-1.5839,-1.44,-1.1779,-0.9258,-0.8055,-0.7985,-0.7752,-0.7702,-0.7823,-0.7922,-0.8088,-0.8309,-0.8447,-0.7903,-0.6792,-0.7646,-0.6317,-0.2818,-0.2287,-0.2154,-0.2155,-0.2155,-0.2155,-0.2154,-0.2102,-0.2076,-0.2076,-0.2076,-0.2071,-0.2061,-0.2386,-0.2418,-0.2138,-0.2445,-0.1913,-0.0272,-0.055,-0.0138,0.1242,0.0414,0.0277,0.1256,0.0978,0.0979,0.1824,0.2105,0.2256,0.2282,0.2168,0.1448,-0.0,-0.0,-0.0,-0.0,-0.0,-0.0146,-0.0292,-0.0876,-0.0876,-0.0584,-0.1458,-0.2342,-0.2365,-0.2348,-0.2342,-0.2514,-0.2499,-0.249,-0.2939,-0.3108,-0.3737,-0.4968,-0.5581,-0.6491,-0.8639,-1.0568,-1.1606,-1.2119,-1.2776,-1.3421,-1.4037,-1.5854,-1.7531,-1.7834,-2.0102,-2.1984,-2.2615,-2.4044,-2.5623,-2.7058,-2.8134,-2.9696,-3.1839,-3.2039,-3.2806,-3.4539,-3.4855,-3.4751,-3.5173,-3.5703,-3.6113,-2.344,-2.3573,-2.1924,-2.0185,-1.8487,-1.7714,-1.7001,-1.6333,-1.5762,-1.5671,-1.6043,-1.5549,-1.5312,-1.5202,-1.4775,-1.3505,-1.1547,-0.9361,-0.8244,-0.815,-0.8033,-0.8099,-0.8089,-0.827,-0.852,-0.883,-0.9162,-0.8153,-0.6317,-0.8504,-0.7018,-0.2154,-0.2021,-0.2155,-0.2155,-0.2155,-0.2155,-0.2154,-0.2127,-0.2113,-0.2113,-0.2129,-0.2138,-0.2138,-0.2317,-0.2342,-0.2204,-0.1523,-0.0833,0.0139,0.0558,0.1399,0.2658,0.2099,0.1966,0.269,0.2407,0.2132,0.2292,0.2308,0.2331,0.236,0.236,0.2059,0.1316,0.0441,-0.0,-0.0,-0.0,-0.0,-0.0,-0.0292,-0.0438,-0.0,-0.0729,-0.1462,-0.2202,-0.2343,-0.2345,-0.2373,-0.238,-0.2388,-0.2705,-0.2873,-0.3192,-0.4126,-0.4891,-0.6274,-0.7999,-0.948,-1.0928,-1.1638,-1.2146,-1.2494,-1.2811,-1.4191,-1.5412,-1.571,-1.7922,-1.9864,-2.091,-2.2529,-2.4379,-2.5563,-2.6682,-2.8431,-3.082,-3.1203,-3.2176,-3.4017,-3.471,-3.4752,-3.5205,-3.5816,-3.6367,-2.262,-2.2297,-2.1245,-1.9736,-1.796,-1.676,-1.5914,-1.526,-1.5211,-1.5192,-1.5294,-1.49,-1.4419,-1.3842,-1.3589,-1.2606,-1.0897,-0.9227,-0.8469,-0.8231,-0.8364,-0.843,-0.841,-0.8677,-0.8881,-0.9001,-0.8873,-0.7799,-0.6464,-0.7962,-0.6472,-0.2019,-0.2021,-0.2155,-0.2155,-0.2162,-0.2165,-0.2165,-0.2172,-0.2172,-0.2166,-0.2188,-0.2203,-0.2211,-0.2233,-0.2105,-0.1683,-0.0422,0.0563,0.1125,0.1973,0.3109,0.4112,0.3973,0.3854,0.4049,0.3912,0.3492,0.2644,0.2516,0.2388,0.241,0.2384,0.2373,0.2237,0.1194,0.0298,-0.0,-0.0,-0.0,-0.0,-0.0,-0.0,-0.0,-0.0,-0.0,-0.1624,-0.2063,-0.2365,-0.2395,-0.2414,-0.2432,-0.2606,-0.2773,-0.3087,-0.3558,-0.449,-0.5748,-0.7045,-0.8163,-0.9392,-1.0744,-1.1528,-1.2057,-1.2387,-1.3176,-1.3819,-1.4291,-1.6113,-1.7785,-1.9108,-2.1257,-2.3247,-2.4108,-2.5383,-2.7018,-2.9168,-3.0166,-3.1151,-3.2872,-3.3331,-3.3889,-3.4743,-3.585,-3.6621,-2.0894,-2.0719,-1.9781,-1.871,-1.7647,-1.7289,-1.6664,-1.6115,-1.5934,-1.4922,-1.3735,-1.4511,-1.3752,-1.2056,-1.2564,-1.1705,-0.9908,-0.8869,-0.837,-0.8247,-0.8236,-0.8301,-0.8416,-0.8421,-0.8486,-0.8333,-0.6313,-0.6321,-0.7425,-0.4717,-0.2828,-0.2155,-0.2155,-0.2157,-0.2158,-0.2183,-0.2196,-0.2196,-0.2223,-0.2223,-0.2198,-0.2199,-0.2213,-0.2241,-0.2244,-0.1543,-0.014,0.0425,0.1853,0.3992,0.4323,0.5101,0.6481,0.6054,0.5793,0.5709,0.5112,0.4367,0.3616,0.2839,0.2383,0.2379,0.2361,0.2365,0.2413,0.2267,0.1497,-0.0,-0.0,-0.0,-0.0,-0.0,-0.0,-0.0,-0.0,-0.0,-0.0457,-0.1519,-0.2427,-0.2457,-0.2439,-0.2427,-0.2439,-0.2612,-0.2946,-0.3595,-0.4224,-0.5011,-0.6128,-0.6802,-0.7794,-0.9504,-1.0878,-1.1804,-1.22,-1.2869,-1.354,-1.4124,-1.4987,-1.6324,-1.7536,-1.8736,-2.0262,-2.2894,-2.3964,-2.5557,-2.7735,-2.9011,-2.9473,-3.0902,-3.1301,-3.138,-3.3106,-3.4984,-3.6263,-1.968,-1.9239,-1.886,-1.8132,-1.7203,-1.6449,-1.5899,-1.5614,-1.541,-1.4268,-1.27,-1.3592,-1.3145,-1.1665,-1.1548,-1.103,-1.0122,-0.9001,-0.8486,-0.8541,-0.8475,-0.847,-0.8513,-0.853,-0.8568,-0.8622,-0.7411,-0.5658,-0.3636,-0.2558,-0.2155,-0.2157,-0.2172,-0.2181,-0.2184,-0.2211,-0.2226,-0.2228,-0.224,-0.2248,-0.2253,-0.2253,-0.1835,-0.0993,-0.0857,-0.0143,0.1291,0.2449,0.3609,0.4624,0.5557,0.6349,0.7125,0.688,0.6601,0.5992,0.5239,0.4504,0.3631,0.3336,0.2896,0.2457,0.2431,0.2425,0.2446,0.2433,0.211,0.1497,0.0601,-0.0,-0.0,-0.0,-0.0,-0.0,-0.0,-0.0,-0.0,-0.0,-0.1217,-0.2154,-0.2458,-0.2458,-0.2473,-0.2488,-0.2813,-0.3609,-0.3927,-0.4567,-0.5384,-0.6525,-0.7517,-0.8518,-1.0094,-1.1531,-1.2058,-1.2861,-1.3532,-1.3902,-1.4639,-1.5554,-1.6555,-1.798,-1.9523,-2.1706,-2.2682,-2.4123,-2.6491,-2.7509,-2.8096,-2.9183,-3.0466,-3.1135,-3.3162,-3.4244,-3.5398,-1.9111,-1.8412,-1.8131,-1.7627,-1.6748,-1.5827,-1.5404,-1.5241,-1.4787,-1.3635,-1.2044,-1.2427,-1.2015,-1.1108,-1.0705,-1.0361,-0.9887,-0.9132,-0.8736,-0.8807,-0.8725,-0.8666,-0.8644,-0.8655,-0.8241,-0.7679,-0.8236,-0.58,-0.1212,-0.1616,-0.2023,-0.1762,-0.2053,-0.2204,-0.2215,-0.2243,-0.2258,-0.2259,-0.2264,-0.2281,-0.2298,-0.187,-0.115,-0.0,0.0725,0.1602,0.291,0.4511,0.5386,0.5386,0.6485,0.7137,0.7166,0.7248,0.7129,0.6488,0.5581,0.4996,0.4428,0.3995,0.3405,0.2808,0.2627,0.2465,0.2473,0.2454,0.2446,0.2462,0.1395,-0.0,0.0304,0.0152,-0.0,-0.0,-0.0,-0.0,-0.0,-0.0,-0.0614,-0.1858,-0.2017,-0.2333,-0.251,-0.2521,-0.2843,-0.3632,-0.38,-0.413,-0.4968,-0.6277,-0.7117,-0.7819,-0.9312,-1.0784,-1.19,-1.2688,-1.3332,-1.3893,-1.449,-1.5357,-1.6162,-1.7602,-1.8971,-2.0596,-2.1577,-2.2717,-2.4467,-2.5518,-2.658,-2.7745,-2.9109,-3.0378,-3.1496,-3.278,-3.4303,-1.9111,-1.8272,-1.758,-1.6875,-1.6282,-1.5914,-1.5819,-1.5772,-1.4481,-1.3311,-1.2201,-1.1138,-1.004,-0.9204,-1.0034,-0.9902,-0.9076,-0.8927,-0.8927,-0.8943,-0.8927,-0.8867,-0.8769,-0.878,-0.7355,-0.5248,-0.6745,-0.5934,-0.2155,-0.2155,-0.1491,-0.0274,-0.1511,-0.2214,-0.2238,-0.2267,-0.2288,-0.2288,-0.2163,-0.2182,-0.2037,-0.0728,-0.0,0.0436,0.233,0.393,0.466,0.6119,0.6853,0.6845,0.7088,0.717,0.7252,0.7333,0.7407,0.7321,0.6711,0.6247,0.5929,0.465,0.3706,0.355,0.2917,0.2454,0.2665,0.2492,0.2497,0.2547,0.239,0.2046,0.138,0.0616,-0.0,-0.0,-0.0,-0.0,-0.0,-0.0,-0.0,-0.1098,-0.141,-0.1726,-0.2358,-0.254,-0.3032,-0.352,-0.3868,-0.4219,-0.5037,-0.5406,-0.6256,-0.7596,-0.8632,-0.9511,-1.1394,-1.2507,-1.3057,-1.3767,-1.4452,-1.5177,-1.6188,-1.7355,-1.8491,-1.9632,-2.0769,-2.19,-2.2717,-2.378,-2.4914,-2.6249,-2.796,-2.9168,-2.9884,-3.2295,-3.375,-1.7721,-1.7017,-1.6744,-1.6461,-1.616,-1.5952,-1.5857,-1.57,-1.4397,-1.3207,-1.2268,-1.1114,-1.004,-0.9068,-0.957,-0.9422,-0.9063,-0.8986,-0.8992,-0.9052,-0.8986,-0.8927,-0.8889,-0.8697,-0.7124,-0.4623,-0.3512,-0.2827,-0.2425,-0.2155,-0.189,-0.1629,-0.1917,-0.2206,-0.2219,-0.2247,-0.2271,-0.2147,-0.1437,-0.0867,-0.0583,0.1602,0.3056,0.3056,0.393,0.495,0.6112,0.6751,0.708,0.708,0.7215,0.7309,0.7341,0.737,0.7403,0.7431,0.7131,0.6818,0.6203,0.5758,0.5162,0.4569,0.3774,0.3311,0.32,0.288,0.2564,0.2582,0.2586,0.2405,0.2233,0.1912,0.1111,-0.0,-0.0,-0.0,-0.0,-0.0,-0.0157,-0.0471,-0.0471,-0.0945,-0.2064,-0.2553,-0.2888,-0.3551,-0.3732,-0.4243,-0.5092,-0.5778,-0.6467,-0.7833,-0.8707,-0.9721,-1.1186,-1.2161,-1.3005,-1.3693,-1.4548,-1.5365,-1.6196,-1.7026,-1.8174,-1.9469,-2.0444,-2.1577,-2.2556,-2.384,-2.4685,-2.5283,-2.7015,-2.7802,-2.8416,-3.0435,-3.2117,-1.6603,-1.6188,-1.6188,-1.6188,-1.6169,-1.6027,-1.5821,-1.5384,-1.3997,-1.2828,-1.1874,-1.0696,-0.9894,-0.9198,-0.9269,-0.9269,-0.9188,-0.9106,-0.9111,-0.9177,-0.9101,-0.9046,-0.9008,-0.8815,-0.7783,-0.5388,-0.1781,-0.0545,-0.1356,-0.1762,-0.1898,-0.2172,-0.2054,-0.2073,-0.2229,-0.2251,-0.2132,-0.1437,-0.0575,0.0145,0.1024,0.3354,0.4668,0.4827,0.5107,0.5981,0.7031,0.7092,0.7145,0.7186,0.7313,0.7403,0.7431,0.7435,0.7431,0.7435,0.7435,0.7123,0.6663,0.64,0.6148,0.5581,0.4474,0.386,0.3913,0.3097,0.2607,0.2612,0.2616,0.2613,0.2609,0.2619,0.2119,0.0959,0.032,-0.0,-0.0,-0.0,-0.0,-0.0,-0.0,-0.0,-0.1445,-0.1937,-0.2597,-0.3106,-0.3444,-0.4127,-0.4979,-0.5657,-0.6327,-0.7543,-0.8395,-0.9402,-1.0737,-1.1754,-1.2573,-1.3258,-1.4434,-1.5247,-1.6056,-1.6879,-1.7691,-1.9153,-2.0282,-2.1265,-2.2556,-2.3852,-2.466,-2.5062,-2.5634,-2.6498,-2.7344,-2.8505,-3.0227,-1.6188,-1.6188,-1.6188,-1.6188,-1.6178,-1.6018,-1.5452,-1.4432,-1.3151,-1.198,-1.1116,-0.9862,-0.9424,-0.9296,-0.9296,-0.9302,-0.9285,-0.9269,-0.9269,-0.9285,-0.9285,-0.9231,-0.915,-0.9144,-0.8369,-0.7157,-0.2523,-0.0,-0.0,-0.0825,-0.1375,-0.1927,-0.1654,-0.1676,-0.2145,-0.1999,-0.1438,-0.029,0.0145,0.1025,0.2514,0.4106,0.4979,0.502,0.6155,0.6893,0.7121,0.7133,0.7178,0.726,0.735,0.7431,0.7501,0.7513,0.7521,0.7513,0.7517,0.7521,0.7365,0.6747,0.6476,0.6228,0.496,0.4208,0.4112,0.328,0.2785,0.2642,0.2646,0.2637,0.2623,0.2653,0.266,0.2451,0.1138,-0.0,-0.0,-0.0,-0.0,-0.0,-0.0,-0.0,-0.0,-0.1147,-0.1978,-0.2649,-0.3166,-0.3854,-0.4528,-0.4865,-0.5373,-0.656,-0.7753,-0.8941,-1.0136,-1.1333,-1.1981,-1.2804,-1.3978,-1.4976,-1.579,-1.6609,-1.7234,-1.8529,-2.012,-2.1092,-2.2406,-2.3668,-2.4294,-2.4735,-2.5153,-2.5423,-2.6253,-2.726,-2.8526,-1.6188,-1.6188,-1.6188,-1.6188,-1.6037,-1.5319,-1.4742,-1.4315,-1.2459,-1.1312,-1.0887,-0.9879,-0.9302,-0.9302,-0.9302,-0.9302,-0.9302,-0.9302,-0.9302,-0.9307,-0.9318,-0.9163,-0.912,-0.9215,-0.6973,-0.3092,-0.0982,-0.0,-0.0,-0.0,-0.098,-0.1975,-0.113,-0.1136,-0.2004,-0.1002,-0.0,0.0291,0.2328,0.3663,0.4149,0.5615,0.633,0.6305,0.6767,0.7125,0.7211,0.7219,0.7264,0.7346,0.7435,0.7497,0.7521,0.7525,0.7525,0.7525,0.7525,0.7525,0.7533,0.7425,0.7175,0.7099,0.6347,0.5599,0.5002,0.3999,0.3331,0.2843,0.2677,0.2672,0.2671,0.2679,0.2667,0.2612,0.213,0.1149,-0.0,-0.0,-0.0,-0.0,-0.0,-0.0,-0.0,-0.0827,-0.1661,-0.2506,-0.3023,-0.3701,-0.4376,-0.4715,-0.5232,-0.6616,-0.7473,-0.8514,-0.9569,-1.0971,-1.2174,-1.2972,-1.3782,-1.4717,-1.5529,-1.6303,-1.7095,-1.821,-1.9642,-2.1092,-2.2234,-2.3312,-2.411,-2.4478,-2.4778,-2.494,-2.501,-2.589,-2.732,-1.6188,-1.6188,-1.6188,-1.6188,-1.6037,-1.5035,-1.4173,-1.3603,-1.1886,-1.0737,-1.0311,-0.959,-0.9302,-0.9302,-0.9302,-0.9302,-0.9302,-0.9302,-0.9307,-0.9313,-0.9323,-0.8744,-0.757,-0.6224,-0.4166,-0.0,-0.0,-0.0,-0.0,-0.0,-0.0567,-0.1278,-0.1142,-0.1005,-0.1298,0.0289,0.1166,0.1914,0.382,0.5311,0.5799,0.6662,0.708,0.7092,0.7117,0.719,0.7297,0.7309,0.735,0.7431,0.7497,0.7537,0.757,0.7546,0.7537,0.7562,0.7546,0.7525,0.7533,0.7574,0.7668,0.7617,0.7037,0.6285,0.5354,0.4539,0.37,0.2861,0.2691,0.2692,0.2691,0.2692,0.2673,0.2643,0.2653,0.1825,-0.0,-0.0,-0.0,-0.0,-0.0,-0.0,-0.0,-0.0833,-0.1669,-0.252,-0.3029,-0.3544,-0.4223,-0.4403,-0.528,-0.6337,-0.7388,-0.8272,-0.918,-1.0594,-1.236,-1.3165,-1.3777,-1.4681,-1.5439,-1.6162,-1.6922,-1.8201,-1.9632,-2.0769,-2.2073,-2.3199,-2.4209,-2.4346,-2.4495,-2.4557,-2.475,-2.5066,-2.631,-1.6188,-1.6188,-1.6188,-1.6178,-1.5895,-1.4742,-1.3603,-1.2459,-1.1312,-1.0311,-0.9446,-0.9302,-0.9313,-0.9313,-0.9313,-0.9313,-0.9318,-0.9302,-0.9313,-0.9179,-0.8744,-0.728,-0.4511,-0.2183,-0.0,-0.0,-0.0,-0.0,-0.0,-0.0,-0.0,-0.0,-0.1582,-0.1448,-0.0,0.1332,0.269,0.3913,0.5078,0.6124,0.7093,0.7113,0.7088,0.7239,0.7207,0.7256,0.7395,0.7435,0.7464,0.7525,0.755,0.7595,0.7631,0.7582,0.7595,0.7635,0.7574,0.7546,0.7533,0.757,0.764,0.7782,0.7173,0.6236,0.5524,0.4707,0.3868,0.2861,0.2692,0.2692,0.2692,0.2692,0.269,0.2691,0.2686,0.1847,0.0337,-0.0,-0.0,-0.0,-0.0,-0.0,-0.0,-0.0,-0.1682,-0.2361,-0.2699,-0.322,-0.3924,-0.4284,-0.4645,-0.5877,-0.7295,-0.8201,-0.8939,-1.1073,-1.268,-1.2979,-1.374,-1.4606,-1.5318,-1.6202,-1.6913,-1.8192,-1.9469,-2.0607,-2.1739,-2.2866,-2.3731,-2.4095,-2.4133,-2.4189,-2.4402,-2.4767,-2.5201,-1.6188,-1.6188,-1.6188,-1.5753,-1.4893,-1.3603,-1.2459,-1.1312,-1.0305,-0.959,-0.9302,-0.9302,-0.9362,-0.9421,-0.9345,-0.9351,-0.9394,-0.934,-0.9313,-0.8889,-0.6841,-0.4223,-0.1749,-0.0,-0.0,-0.0,-0.0,-0.0,-0.0,-0.0,-0.0,-0.0,-0.1484,-0.1049,0.1062,0.2891,0.3816,0.4891,0.6208,0.6931,0.7248,0.7219,0.7215,0.726,0.7358,0.7464,0.7586,0.7656,0.7664,0.7631,0.7693,0.7701,0.768,0.7697,0.7676,0.7607,0.7668,0.7656,0.7582,0.7648,0.7746,0.7795,0.753,0.6952,0.5535,0.5211,0.4204,0.3197,0.2692,0.2692,0.2692,0.2692,0.2692,0.2692,0.2692,0.2188,0.1178,-0.0,-0.0,-0.0,-0.0,-0.0,-0.0,-0.0842,-0.1688,-0.2547,-0.2727,-0.3078,-0.3793,-0.4156,-0.4515,-0.5771,-0.7034,-0.7949,-0.922,-1.1378,-1.2632,-1.2953,-1.3693,-1.4678,-1.5379,-1.6235,-1.6956,-1.7691,-1.9153,-2.0282,-2.1254,-2.2234,-2.2852,-2.3684,-2.384,-2.3953,-2.4189,-2.4428,-2.4586,-1.6197,-1.6207,-1.5612,-1.5044,-1.4047,-1.261,-1.1599,-1.0881,-0.9879,-0.9302,-0.9313,-0.9362,-0.9421,-0.9476,-0.9416,-0.9416,-0.9465,-0.9367,-0.9329,-0.905,-0.7593,-0.4376,-0.0,-0.0,-0.0,-0.0,-0.0,-0.0,-0.0,-0.0,-0.0,-0.0,-0.0907,0.0762,0.524,0.5298,0.5751,0.6473,0.7189,0.7456,0.7268,0.7264,0.7317,0.7374,0.7513,0.7627,0.7717,0.7807,0.7811,0.7754,0.777,0.7791,0.7782,0.7782,0.775,0.7648,0.7746,0.7729,0.7644,0.7721,0.7811,0.7689,0.7585,0.6646,0.5697,0.5041,0.4204,0.3029,0.2692,0.2692,0.2692,0.2692,0.2692,0.2692,0.2692,0.2355,0.1346,0.0505,-0.0,-0.0,-0.0,-0.0,-0.0,-0.0,-0.1699,-0.2563,-0.275,-0.3289,-0.4015,-0.4197,-0.4562,-0.583,-0.7095,-0.8006,-0.926,-1.1062,-1.2638,-1.2972,-1.37,-1.4536,-1.5348,-1.6202,-1.6791,-1.7527,-1.8827,-1.9967,-2.0779,-2.1577,-2.2338,-2.2863,-2.3222,-2.372,-2.3823,-2.4227,-2.4252,-1.6065,-1.6102,-1.4901,-1.4055,-1.3356,-1.1756,-1.0881,-1.0599,-0.9757,-0.9334,-0.9356,-0.9454,-0.9525,-0.9525,-0.9525,-0.9514,-0.953,-0.9427,-0.9367,-0.8925,-0.7606,-0.453,-0.0,-0.0,-0.0,-0.0,-0.0,-0.0,-0.0,-0.0,-0.0,-0.0,-0.0,0.3215,0.6685,0.7582,0.7715,0.7907,0.7833,0.7625,0.7431,0.7284,0.737,0.7525,0.7668,0.7762,0.7836,0.7901,0.7913,0.7831,0.7823,0.7868,0.7917,0.7852,0.7811,0.7803,0.7811,0.7803,0.7713,0.7766,0.7848,0.7745,0.7102,0.6314,0.553,0.4705,0.37,0.2861,0.2692,0.2692,0.2692,0.2692,0.2692,0.2692,0.2692,0.2187,0.1346,-0.0,-0.0,-0.0,-0.0,-0.0,-0.0507,-0.1021,-0.1715,-0.2596,-0.2955,-0.3325,-0.3878,-0.4244,-0.4792,-0.5533,-0.6974,-0.823,-0.9482,-1.0733,-1.1931,-1.2941,-1.3647,-1.4479,-1.4899,-1.5766,-1.6402,-1.7355,-1.8337,-1.9316,-2.013,-2.0931,-2.1566,-2.2178,-2.2704,-2.3099,-2.3611,-2.4028,-2.4174,-1.5346,-1.596,-1.3912,-1.2753,-1.2051,-1.1319,-1.0455,-0.9746,-0.9551,-0.9438,-0.9476,-0.9574,-0.9666,-0.9737,-0.965,-0.9671,-0.9537,-0.9239,-0.9443,-0.8634,-0.3794,-0.0,-0.0,-0.0,-0.0,-0.0,-0.0,-0.0,-0.0,-0.0,-0.0,-0.0,-0.0,0.2172,0.5688,0.6799,0.6919,0.7942,0.7982,0.7759,0.7452,0.7346,0.746,0.7644,0.7848,0.7966,0.7999,0.8023,0.8023,0.8011,0.7999,0.7974,0.7954,0.7974,0.7929,0.7864,0.7929,0.7934,0.7823,0.7852,0.7913,0.7773,0.7121,0.6314,0.5371,0.4539,0.37,0.2861,0.2692,0.2692,0.2692,0.2692,0.2692,0.2692,0.2694,0.2357,0.1346,-0.0,-0.0,-0.0,-0.0,-0.0512,-0.1877,-0.155,-0.2084,-0.2626,-0.2994,-0.3362,-0.3734,-0.4285,-0.4832,-0.5562,-0.6991,-0.8242,-0.9134,-1.054,-1.2073,-1.2879,-1.3588,-1.4083,-1.4681,-1.5216,-1.604,-1.6862,-1.7846,-1.8664,-1.9479,-1.9967,-2.0607,-2.1233,-2.2028,-2.2442,-2.2987,-2.3442,-2.414,-1.4063,-1.4382,-1.2617,-1.1319,-1.0606,-1.0311,-0.9914,-0.954,-0.9454,-0.9487,-0.9514,-0.9617,-0.9671,-0.9671,-0.9617,-0.9622,-0.8875,-0.6378,-0.4985,-0.4233,-0.0,-0.0,-0.0,-0.0,-0.0,-0.0,-0.0,-0.0,-0.0,-0.0,-0.0,-0.0,0.3101,0.4703,0.5109,0.64,0.7619,0.7963,0.7929,0.7723,0.7354,0.7456,0.7631,0.7811,0.7987,0.806,0.8056,0.806,0.806,0.806,0.806,0.8044,0.8007,0.8032,0.7987,0.7917,0.7978,0.7999,0.7917,0.7942,0.7995,0.7991,0.6829,0.6016,0.5203,0.4204,0.3363,0.2861,0.2692,0.2692,0.2692,0.2692,0.2692,0.2695,0.2706,0.2374,0.1357,-0.0,-0.0,-0.0,-0.0,-0.0,-0.173,-0.1917,-0.2276,-0.2821,-0.2842,-0.3213,-0.3926,-0.4299,-0.4838,-0.5739,-0.717,-0.8242,-0.8956,-1.0342,-1.2208,-1.2985,-1.3541,-1.3858,-1.4304,-1.4908,-1.5711,-1.6534,-1.7519,-1.8183,-1.9,-1.9326,-1.9642,-2.0444,-2.1082,-2.175,-2.2361,-2.2863,-2.3452,-1.2488,-1.251,-1.1325,-1.0173,-0.9474,-0.9334,-0.9405,-0.9508,-0.9536,-0.9552,-0.9541,-0.9644,-0.9661,-0.9552,-0.9536,-0.9525,-0.756,-0.0,-0.0,-0.0,-0.0,-0.0,-0.0,-0.0,-0.0,-0.0,-0.0,-0.0,-0.0,-0.0,-0.0,0.2168,0.6747,0.7635,0.6114,0.7121,0.8504,0.8106,0.7955,0.7644,0.7427,0.7554,0.7766,0.7983,0.8044,0.806,0.806,0.806,0.806,0.806,0.806,0.806,0.806,0.8056,0.8036,0.7958,0.8027,0.8019,0.7983,0.8011,0.8052,0.806,0.6382,0.5544,0.5043,0.3868,0.3029,0.2692,0.2692,0.2695,0.2698,0.2703,0.2702,0.2706,0.2728,0.2228,0.1372,-0.0,-0.0,-0.0,-0.0,-0.0,-0.1924,-0.2463,-0.2651,-0.284,-0.286,-0.3233,-0.3769,-0.4487,-0.4845,-0.5559,-0.6812,-0.8421,-0.9313,-1.0259,-1.212,-1.2755,-1.3311,-1.3648,-1.3957,-1.4577,-1.5381,-1.6205,-1.7026,-1.7855,-1.8346,-1.8837,-1.9326,-1.9642,-2.0292,-2.0941,-2.1588,-2.2395,-2.2854,-1.1763,-1.2517,-1.0468,-0.9652,-0.9595,-0.9454,-0.9519,-0.9644,-0.9709,-0.972,-0.965,-0.9748,-0.972,-0.9639,-0.9633,-0.8383,-0.5937,-0.0,-0.0,-0.0,-0.0,-0.0,-0.0,-0.0,-0.0,-0.0,-0.0,-0.0,-0.0,-0.0,-0.0,0.5849,0.7986,0.7906,0.8105,0.8531,0.859,0.8132,0.792,0.7714,0.7615,0.7611,0.7807,0.8036,0.806,0.806,0.806,0.806,0.806,0.806,0.806,0.8064,0.8081,0.8081,0.8064,0.8044,0.8048,0.8048,0.8036,0.8048,0.806,0.7725,0.655,0.5544,0.5043,0.3868,0.3027,0.2692,0.2697,0.2703,0.2728,0.2729,0.2731,0.2737,0.2583,0.2254,0.1389,-0.0,-0.0,-0.0,-0.0,-0.0353,-0.1592,-0.2485,-0.2849,-0.2855,-0.2866,-0.3233,-0.3769,-0.4305,-0.4664,-0.538,-0.6454,-0.8063,-0.9496,-1.0739,-1.2003,-1.2503,-1.2911,-1.3277,-1.3638,-1.4246,-1.5051,-1.5875,-1.6698,-1.7519,-1.801,-1.8346,-1.8673,-1.9163,-1.9642,-2.013,-2.0779,-2.1427,-2.2234,-1.0863,-1.0811,-0.9712,-0.934,-0.9545,-0.9465,-0.9519,-0.9574,-0.9633,-0.9628,-0.9601,-0.9628,-0.959,-0.9508,-0.9492,-0.8426,-0.6352,-0.0,-0.0,-0.0,-0.0,-0.0,-0.0,-0.0,-0.0,-0.0,-0.0,-0.0,-0.0,-0.0,-0.0,0.7982,0.9074,0.9015,0.9221,0.8964,0.8636,0.8387,0.7976,0.7791,0.755,0.7742,0.7946,0.8015,0.806,0.806,0.806,0.806,0.8089,0.8121,0.8134,0.8158,0.8183,0.8187,0.8158,0.8089,0.8068,0.8064,0.8064,0.806,0.806,0.7897,0.6724,0.5882,0.5211,0.4204,0.32,0.2865,0.2712,0.2721,0.2736,0.2752,0.2761,0.2767,0.2788,0.2277,0.1406,0.0531,-0.0,-0.0,-0.0,-0.0534,-0.1248,-0.2146,-0.2692,-0.2874,-0.2874,-0.3233,-0.3768,-0.4126,-0.4485,-0.5719,-0.678,-0.8349,-0.9926,-1.1009,-1.1927,-1.2246,-1.2684,-1.3056,-1.3471,-1.4073,-1.4555,-1.5208,-1.6032,-1.7026,-1.7846,-1.8174,-1.8346,-1.8673,-1.9,-1.9479,-1.9967,-2.0617,-2.1427,-0.9998,-0.9286,-0.9231,-0.9296,-0.9351,-0.9443,-0.9503,-0.9519,-0.9536,-0.9525,-0.9487,-0.9487,-0.9432,-0.9195,-0.8765,-0.8348,-0.8494,-0.2781,-0.0,-0.0,-0.0,-0.0,-0.0,-0.0,-0.0,-0.0,-0.0,-0.0,-0.0,-0.0,-0.0,0.7911,0.9048,0.9448,0.9608,0.9332,0.8922,0.8509,0.7957,0.7806,0.7762,0.7929,0.806,0.806,0.806,0.806,0.806,0.8093,0.813,0.8179,0.8215,0.8256,0.8317,0.8334,0.8264,0.8146,0.8121,0.8117,0.8121,0.813,0.8146,0.815,0.7282,0.6431,0.5422,0.4418,0.3394,0.2885,0.2731,0.2752,0.2766,0.278,0.2791,0.2799,0.2818,0.2484,0.1777,-0.0,-0.0,-0.0,-0.0,-0.0717,-0.1432,-0.2151,-0.2874,-0.2874,-0.2874,-0.3231,-0.3768,-0.4128,-0.4659,-0.6231,-0.7618,-0.8978,-1.0314,-1.1079,-1.1863,-1.2204,-1.2621,-1.2997,-1.3444,-1.4059,-1.4397,-1.4743,-1.5546,-1.6534,-1.7191,-1.801,-1.8174,-1.8346,-1.851,-1.8837,-1.9489,-1.9967,-2.0617,-0.9998,-0.9133,-0.915,-0.9275,-0.9443,-0.9476,-0.9546,-0.9622,-0.9617,-0.9584,-0.947,-0.9476,-0.941,-0.8765,-0.6466,-0.706,-0.6458,-0.0,-0.0,-0.0,-0.0,-0.0,-0.0,-0.0,-0.0,-0.0,-0.0,-0.0,-0.0,0.5968,0.7361,0.7367,0.9076,0.9628,0.9652,0.9307,0.8959,0.8758,0.8382,0.7986,0.7864,0.7999,0.8052,0.806,0.806,0.806,0.8072,0.8121,0.8187,0.8207,0.8281,0.8317,0.8334,0.8334,0.833,0.8309,0.8305,0.8301,0.8285,0.8272,0.8268,0.8093,0.7589,0.657,0.5521,0.3968,0.2935,0.2946,0.2777,0.2787,0.2803,0.2818,0.2823,0.2831,0.2667,0.2681,-0.0,-0.0,-0.0,-0.0,-0.0,-0.1073,-0.1788,-0.2331,-0.2874,-0.2874,-0.3053,-0.3231,-0.3764,-0.4299,-0.4986,-0.6542,-0.7538,-0.9056,-1.0042,-1.096,-1.1628,-1.2143,-1.2421,-1.2817,-1.3485,-1.3971,-1.4123,-1.4629,-1.527,-1.6105,-1.6808,-1.746,-1.7882,-1.8174,-1.8346,-1.851,-1.8837,-1.9316,-1.9967,-0.9811,-0.8895,-0.9034,-0.9291,-0.9383,-0.9454,-0.9476,-0.9465,-0.9459,-0.9438,-0.9389,-0.9383,-0.9362,-0.8614,-0.6009,-0.4392,-0.0,-0.0,-0.0,-0.0,-0.0,-0.0,-0.0,-0.0,-0.0,-0.0,-0.0,-0.0,0.4752,0.4793,0.5026,0.8747,0.9482,1.0319,0.9818,0.9445,0.9162,0.8795,0.8313,0.7902,0.786,0.7983,0.806,0.806,0.8064,0.8064,0.8089,0.815,0.8228,0.8272,0.8362,0.844,0.8477,0.8493,0.8489,0.8489,0.8489,0.844,0.835,0.8342,0.8346,0.8338,0.7818,0.7115,0.5732,0.4001,0.2787,0.2782,0.28,0.2815,0.2831,0.2844,0.2852,0.286,0.2506,0.251,-0.0,-0.0,-0.0,-0.0,-0.1068,-0.16,-0.1956,-0.2497,-0.2859,-0.2861,-0.3042,-0.3401,-0.4107,-0.4809,-0.5833,-0.7,-0.7807,-0.877,-0.9583,-1.0535,-1.139,-1.1914,-1.2295,-1.2726,-1.3412,-1.3909,-1.4084,-1.4594,-1.5272,-1.5949,-1.6459,-1.6842,-1.7372,-1.7682,-1.8019,-1.8183,-1.8346,-1.8673,-1.9632,-0.955,-0.8734,-0.9045,-0.928,-0.9313,-0.9405,-0.9389,-0.9313,-0.9313,-0.9307,-0.9307,-0.9313,-0.9334,-0.891,-0.6857,-0.0,-0.0,-0.0,-0.0,-0.0,-0.0,-0.0,-0.0,-0.0,-0.0,-0.0,-0.0,0.5575,0.7114,0.7015,0.6721,1.0645,1.0206,1.0346,1.023,0.9622,0.9031,0.8781,0.8219,0.7961,0.7868,0.7991,0.8044,0.8068,0.8081,0.8097,0.8113,0.8223,0.8317,0.8366,0.8456,0.8534,0.8575,0.8579,0.8583,0.8583,0.8579,0.8538,0.846,0.8424,0.8403,0.8229,0.7698,0.6842,0.5766,0.402,0.2799,0.28,0.2825,0.2837,0.2845,0.2861,0.2866,0.2511,0.2154,0.2154,-0.0,-0.0,-0.0,-0.0,-0.0885,-0.176,-0.2291,-0.2656,-0.2841,-0.2846,-0.3207,-0.3565,-0.4263,-0.5127,-0.6133,-0.7281,-0.7925,-0.8709,-0.984,-1.0645,-1.1328,-1.1885,-1.2264,-1.2627,-1.3472,-1.3878,-1.4096,-1.4606,-1.5278,-1.5601,-1.5931,-1.6402,-1.6871,-1.726,-1.7616,-1.7873,-1.8174,-1.85,-1.9947,-0.9122,-0.8839,-0.9002,-0.9215,-0.9302,-0.9313,-0.9313,-0.9302,-0.9302,-0.9302,-0.9307,-0.9323,-0.9195,-0.8915,-0.8183,-0.5256,-0.0,-0.0,-0.0,-0.0,-0.0,-0.0,-0.0,-0.0,-0.0,-0.0,0.5049,0.8847,1.0443,0.9534,0.9453,1.057,1.0044,0.9988,0.9717,0.9254,0.8691,0.8482,0.8232,0.8165,0.7909,0.8007,0.806,0.8089,0.8142,0.8191,0.8199,0.8338,0.8424,0.8448,0.853,0.8579,0.8603,0.8607,0.8607,0.8607,0.8607,0.8583,0.855,0.8546,0.8575,0.8048,0.7139,0.6042,0.5475,0.3919,0.3029,0.283,0.2849,0.2863,0.2867,0.2874,0.2874,0.2694,0.2154,0.1434,-0.0,-0.0,-0.0,-0.0,-0.0879,-0.1744,-0.2254,-0.2782,-0.2806,-0.2812,-0.3343,-0.3872,-0.4385,-0.5237,-0.641,-0.7391,-0.7874,-0.884,-1.0283,-1.0953,-1.1345,-1.1926,-1.2331,-1.2847,-1.3519,-1.3777,-1.4119,-1.4421,-1.4922,-1.5071,-1.5531,-1.6037,-1.6585,-1.6901,-1.7207,-1.7616,-1.8192,-1.8818,-2.0737,-0.9237,-0.9093,-0.9242,-0.9264,-0.9302,-0.9302,-0.9302,-0.9302,-0.9302,-0.9302,-0.9307,-0.9179,-0.8164,-0.7438,-0.8334,-0.5842,-0.0,-0.0,-0.0,-0.0,-0.0,-0.0,-0.0,-0.0,-0.0,-0.0,0.6865,1.0545,1.071,1.0727,1.0479,1.02,0.9647,0.9404,0.9298,0.8852,0.8291,0.8171,0.8071,0.8002,0.7934,0.8019,0.8089,0.815,0.8166,0.8232,0.8289,0.8403,0.8452,0.8497,0.8566,0.8595,0.8607,0.8607,0.8611,0.8615,0.8615,0.8619,0.8619,0.8615,0.8429,0.7531,0.6454,0.5552,0.4989,0.3583,0.3047,0.2864,0.2866,0.2874,0.2874,0.2874,0.2874,0.2874,0.2332,0.143,-0.0,-0.0,-0.0,-0.0,-0.1214,-0.172,-0.2224,-0.2725,-0.2754,-0.2778,-0.3474,-0.4168,-0.4675,-0.5189,-0.6191,-0.7199,-0.7858,-0.8539,-1.0003,-1.0688,-1.1216,-1.1968,-1.2569,-1.2943,-1.3495,-1.4034,-1.4331,-1.4451,-1.4743,-1.5075,-1.5519,-1.6034,-1.6285,-1.6784,-1.7002,-1.7356,-1.8101,-1.9019,-2.1254,-0.9302,-0.9302,-0.9302,-0.9302,-0.9302,-0.9302,-0.9302,-0.9302,-0.9302,-0.9307,-0.9313,-0.9189,-0.8169,-0.6857,-0.5544,-0.4541,-0.0,-0.0,-0.0,-0.0,-0.0,-0.0,-0.0,-0.0,-0.0,0.3176,0.5596,0.8733,1.0677,1.0694,1.0394,0.9891,0.9169,0.8912,0.8746,0.8265,0.7876,0.7786,0.7742,0.7819,0.7901,0.8036,0.8121,0.8207,0.8252,0.8317,0.8387,0.8468,0.8513,0.8538,0.857,0.8603,0.8607,0.8611,0.8624,0.8636,0.8648,0.8656,0.8673,0.8632,0.8075,0.7352,0.6279,0.5383,0.4307,0.3411,0.2871,0.2872,0.2874,0.2874,0.2874,0.2694,0.2694,0.2694,0.2856,-0.0,-0.0,-0.0,-0.0,-0.2068,-0.2056,-0.2051,-0.2214,-0.2716,-0.29,-0.309,-0.3591,-0.4107,-0.4622,-0.5306,-0.6001,-0.6843,-0.7692,-0.8552,-0.9588,-1.046,-1.1334,-1.2051,-1.2656,-1.3102,-1.3533,-1.4048,-1.4292,-1.44,-1.4717,-1.525,-1.5707,-1.6105,-1.6371,-1.6665,-1.7019,-1.7521,-1.8293,-1.9396,-2.1405,-0.9302,-0.9302,-0.9302,-0.9302,-0.9302,-0.9302,-0.9302,-0.9302,-0.9302,-0.9313,-0.9184,-0.906,-0.9071,-0.7601,-0.4087,-0.0,-0.0,-0.0,-0.0,-0.0,-0.0,-0.0,-0.0,-0.0,0.2665,0.7409,0.8238,0.8468,1.0389,1.0534,1.0228,0.9532,0.8795,0.8256,0.8397,0.7927,0.7529,0.7554,0.7709,0.7791,0.788,0.806,0.817,0.8244,0.835,0.8424,0.8481,0.8534,0.8575,0.8587,0.8591,0.8607,0.8607,0.8624,0.8652,0.8709,0.8726,0.8766,0.9011,0.8693,0.8083,0.7173,0.6279,0.5559,0.4487,0.3412,0.3233,0.3412,0.3053,0.2874,0.2515,0.2335,0.2515,0.215,0.2316,-0.0,-0.0,-0.0,-0.0,-0.2221,-0.2561,-0.256,-0.2721,-0.2714,-0.3059,-0.3228,-0.3711,-0.4221,-0.4757,-0.529,-0.5833,-0.687,-0.773,-0.88,-0.9688,-1.0574,-1.1285,-1.217,-1.2749,-1.3029,-1.3449,-1.4055,-1.4278,-1.4469,-1.4632,-1.4956,-1.5499,-1.6019,-1.6443,-1.6836,-1.7366,-1.8068,-1.8689,-1.9933,-2.2288,-0.9302,-0.9302,-0.9302,-0.9302,-0.9302,-0.9302,-0.9302,-0.9302,-0.9307,-0.9313,-0.8744,-0.7289,-0.7597,-0.672,-0.0,-0.0,-0.0,-0.0,-0.0,-0.0,-0.0,-0.0,-0.0,-0.0,0.3768,0.8011,0.8646,0.8333,1.0161,1.0329,0.9998,0.9473,0.8641,0.7959,0.777,0.7411,0.7456,0.7546,0.7697,0.7827,0.7905,0.8085,0.8223,0.8281,0.8403,0.8489,0.8538,0.8587,0.8607,0.8607,0.8607,0.8611,0.8628,0.8644,0.8701,0.875,0.8771,0.9347,0.9685,0.9747,0.8429,0.7349,0.6809,0.6094,0.3947,0.3233,0.359,0.4128,0.3949,0.3409,0.1971,0.2334,0.2334,0.1075,0.0712,0.0705,-0.0,-0.0,-0.0685,-0.2038,-0.2707,-0.2727,-0.2728,-0.2746,-0.2924,-0.3452,-0.3786,-0.4291,-0.4652,-0.5348,-0.6058,-0.7097,-0.8145,-0.9056,-0.9961,-1.0688,-1.1253,-1.1817,-1.2384,-1.2978,-1.3382,-1.3912,-1.4102,-1.4299,-1.4476,-1.4822,-1.5528,-1.6225,-1.6737,-1.7165,-1.7707,-1.7913,-1.8336,-2.0437,-2.3515,-0.9302,-0.9302,-0.9302,-0.9302,-0.9302,-0.9302,-0.9302,-0.9307,-0.9318,-0.9329,-0.8459,-0.5098,-0.3935,-0.4236,-0.0,-0.0,-0.0,-0.0,-0.0,-0.0,-0.0,-0.0,-0.0,0.2196,0.5165,0.8279,0.9485,0.9789,1.0052,1.0147,0.9821,0.9351,0.8538,0.7833,0.7486,0.7536,0.7493,0.7599,0.7729,0.784,0.795,0.8093,0.8223,0.8297,0.8395,0.8497,0.855,0.8583,0.8607,0.8607,0.8611,0.8628,0.866,0.8697,0.875,0.8791,0.9369,1.0283,1.1092,1.1759,1.0431,0.8238,0.8409,0.7338,0.5375,0.5378,0.5733,0.6091,0.5378,0.3762,0.2506,-0.0,-0.0,-0.0,-0.0,-0.0,-0.0173,-0.0343,-0.0682,-0.2028,-0.2377,-0.2391,-0.2752,-0.2774,-0.2969,-0.3507,-0.387,-0.4385,-0.4721,-0.5245,-0.5774,-0.6825,-0.7713,-0.8456,-0.9545,-1.0802,-1.1207,-1.1621,-1.2165,-1.2698,-1.323,-1.3755,-1.3938,-1.4299,-1.4476,-1.4829,-1.5528,-1.6225,-1.6745,-1.7247,-1.753,-1.775,-1.7983,-2.0776,-2.4235,-0.9302,-0.9302,-0.9302,-0.9302,-0.9302,-0.9302,-0.9302,-0.9307,-0.934,-0.9211,-0.8619,-0.3209,-0.1751,-0.0,-0.0,-0.0,-0.0,-0.0,-0.0,-0.0,-0.0,-0.0,-0.0,0.5645,0.7018,0.7115,0.7838,0.9682,0.997,0.9587,0.9387,0.8942,0.8287,0.779,0.7663,0.7602,0.7554,0.7627,0.7758,0.7856,0.7958,0.8105,0.8191,0.8268,0.8358,0.8436,0.8489,0.8534,0.8583,0.8603,0.8615,0.8668,0.8709,0.8742,0.8803,0.9399,1.0345,1.1346,1.2903,1.3572,1.2961,1.1088,1.055,0.966,0.8409,0.7517,0.7874,0.8234,0.806,0.5725,-0.0,-0.0,-0.0,-0.0,-0.0,-0.0,-0.0,-0.0853,-0.1356,-0.1865,-0.1885,-0.2075,-0.262,-0.2818,-0.3027,-0.3757,-0.4126,-0.4655,-0.4815,-0.4613,-0.5324,-0.6387,-0.7112,-0.7492,-0.8757,-1.053,-1.1245,-1.1632,-1.1988,-1.252,-1.3059,-1.3591,-1.3945,-1.4122,-1.4299,-1.4829,-1.5528,-1.6233,-1.6928,-1.7263,-1.7597,-1.7746,-1.7801,-2.132,-2.4615,-0.9302,-0.9302,-0.9302,-0.9302,-0.9302,-0.9302,-0.9302,-0.9307,-0.9329,-0.8314,-0.5974,-0.657,-0.3358,-0.0,-0.0,-0.0,-0.0,-0.0,-0.0,-0.0,-0.0,-0.0,-0.0,0.577,0.7911,0.8755,0.898,0.9408,0.9157,0.8975,0.8477,0.7924,0.8021,0.7864,0.7778,0.7723,0.7595,0.7652,0.7799,0.7889,0.797,0.8105,0.8162,0.8228,0.8305,0.8366,0.8395,0.8473,0.8534,0.8595,0.866,0.8734,0.8824,0.8889,0.914,1.0421,1.1064,1.1831,1.3771,1.4044,1.3794,1.3761,1.3224,1.1083,0.9655,0.9121,0.9477,1.0021,1.0204,0.8048,0.643,-0.0,-0.0,-0.0,-0.0,-0.0,-0.1029,-0.1713,-0.2217,-0.2243,-0.2265,-0.2293,-0.2849,-0.3062,-0.3274,-0.3837,-0.4389,-0.4744,-0.4907,-0.4699,-0.5044,-0.5943,-0.6832,-0.7387,-0.8973,-1.0748,-1.1277,-1.1638,-1.1988,-1.2349,-1.29,-1.3432,-1.3774,-1.4122,-1.4469,-1.4999,-1.5528,-1.6233,-1.6761,-1.712,-1.7279,-1.7463,-1.8488,-2.1849,-2.4275,-0.9302,-0.9302,-0.9302,-0.9302,-0.9307,-0.9313,-0.9313,-0.9318,-0.9334,-0.8169,-0.6563,-0.5544,-0.0,-0.0,-0.0,-0.0,-0.0,-0.0928,-0.1093,-0.1254,-0.0314,-0.0,-0.0,0.4951,0.7366,0.8512,0.9226,0.9071,0.8829,0.8477,0.8119,0.7562,0.7829,0.785,0.7761,0.7697,0.7742,0.7774,0.784,0.7934,0.8019,0.8089,0.8121,0.8166,0.824,0.8277,0.8301,0.8395,0.8501,0.8562,0.8636,0.8746,0.9019,0.9477,1.0936,1.2169,1.2921,1.3707,1.5091,1.4871,1.5006,1.4999,1.4653,1.3224,1.2154,1.1438,1.1799,1.1982,1.1455,1.0738,0.9459,-0.0,-0.0,-0.0,-0.0,-0.0,-0.1722,-0.2758,-0.2955,-0.2815,-0.2849,-0.2883,-0.2915,-0.3131,-0.3518,-0.4065,-0.4442,-0.4638,-0.4617,-0.4408,-0.4942,-0.6033,-0.6737,-0.7446,-0.9221,-1.0441,-1.133,-1.1671,-1.1632,-1.2177,-1.274,-1.3274,-1.361,-1.4129,-1.4646,-1.519,-1.5572,-1.6072,-1.6585,-1.68,-1.7411,-1.7983,-1.936,-2.2005,-2.3722,-0.9302,-0.9302,-0.9302,-0.9307,-0.9313,-0.9323,-0.9334,-0.9334,-0.9351,-0.9216,-0.8047,-0.2776,-0.0589,-0.0,-0.0,-0.0762,-0.1079,-0.109,-0.1253,-0.2197,-0.1095,-0.0,-0.0,0.3531,0.6377,0.7823,0.8585,0.8834,0.8534,0.8319,0.7923,0.7517,0.7644,0.7815,0.7881,0.7827,0.788,0.7913,0.7934,0.7987,0.8036,0.8064,0.8064,0.8085,0.8146,0.8211,0.8252,0.8346,0.8477,0.8509,0.8587,0.8717,0.9547,1.0133,1.2267,1.3816,1.4394,1.5049,1.5734,1.5536,1.5175,1.4999,1.4476,1.4115,1.3401,1.3046,1.323,1.2875,1.2343,1.1993,1.09,1.0141,0.7241,0.351,0.1396,-0.0174,-0.1914,-0.2626,-0.302,-0.3056,-0.2908,-0.2939,-0.277,-0.2981,-0.2996,-0.392,-0.411,-0.3943,-0.4681,-0.4467,-0.4457,-0.5557,-0.699,-0.7867,-0.8367,-0.9784,-1.1215,-1.1542,-1.1693,-1.1905,-1.2705,-1.301,-1.3439,-1.4018,-1.4778,-1.5091,-1.5446,-1.6001,-1.6588,-1.7178,-1.7778,-1.8722,-2.0429,-2.2749,-2.4304,-0.9302,-0.9302,-0.9302,-0.9313,-0.9323,-0.9329,-0.9195,-0.9362,-0.9367,-0.9227,-0.8057,-0.3242,-0.0741,-0.1493,-0.0608,-0.0615,-0.0773,-0.1246,-0.1255,-0.125,-0.0778,0.2472,0.5072,0.485,0.6166,0.7686,0.8653,0.851,0.8418,0.8016,0.7894,0.7665,0.777,0.7733,0.8002,0.7938,0.7966,0.8011,0.8019,0.8023,0.8052,0.806,0.8064,0.8089,0.8142,0.8191,0.8256,0.8366,0.8489,0.8575,0.8656,0.9304,1.0509,1.0806,1.2379,1.4475,1.524,1.5712,1.5873,1.5881,1.5528,1.4999,1.4646,1.4476,1.4299,1.4299,1.4122,1.3584,1.3236,1.2704,1.216,1.1566,1.0455,0.6693,0.3335,0.1053,-0.1407,-0.2145,-0.2722,-0.2936,-0.2784,-0.2796,-0.2808,-0.2819,-0.2646,-0.2649,-0.2272,-0.2842,-0.4721,-0.5265,-0.3566,-0.4676,-0.723,-0.8293,-0.843,-0.9321,-1.0962,-1.1677,-1.1656,-1.2068,-1.2665,-1.3362,-1.3848,-1.4209,-1.4757,-1.509,-1.5456,-1.5889,-1.6476,-1.7041,-1.8484,-1.9779,-2.1403,-2.3621,-2.5172,-0.9302,-0.9302,-0.9302,-0.9313,-0.9034,-0.7865,-0.8024,-0.9222,-0.9238,-0.808,-0.6044,-0.2225,-0.0895,-0.2252,-0.153,-0.108,-0.1081,-0.1087,-0.1394,-0.1234,0.1844,0.4883,0.6204,0.6466,0.6939,0.8026,0.8079,0.8115,0.8139,0.7994,0.7856,0.7749,0.7827,0.7827,0.8111,0.797,0.8011,0.8056,0.806,0.806,0.806,0.806,0.806,0.8089,0.8138,0.8191,0.826,0.8366,0.8473,0.893,0.9195,1.0485,1.1639,1.253,1.3925,1.5291,1.6095,1.6042,1.6049,1.5881,1.5352,1.4822,1.4476,1.4299,1.4272,1.4272,1.3892,1.3362,1.3053,1.2704,1.1988,1.1411,1.1417,0.9061,0.7648,0.605,0.3066,0.0735,-0.0372,-0.1311,-0.1882,-0.3009,-0.302,-0.359,-0.3603,-0.3777,-0.3218,-0.2663,-0.4553,-0.5871,-0.4164,-0.3777,-0.655,-0.8381,-0.8724,-0.9631,-1.0911,-1.1452,-1.1792,-1.2346,-1.2919,-1.3891,-1.4467,-1.4604,-1.4753,-1.4915,-1.549,-1.5884,-1.6461,-1.7016,-1.9018,-2.0848,-2.2661,-2.4665,-2.6351,-0.9302,-0.9302,-0.9307,-0.9318,-0.8894,-0.6555,-0.6272,-0.7751,-0.7915,-0.6044,-0.312,-0.119,-0.135,-0.2127,-0.2454,-0.2463,-0.2005,-0.0923,-0.1071,0.0152,0.515,0.605,0.6792,0.7519,0.7578,0.7586,0.7798,0.7952,0.7942,0.7921,0.7909,0.7773,0.7942,0.7942,0.797,0.8011,0.806,0.806,0.806,0.806,0.806,0.8064,0.8072,0.8105,0.8158,0.8215,0.8285,0.837,0.8477,0.9069,0.9876,1.1504,1.2776,1.4037,1.5262,1.6448,1.6601,1.6225,1.5881,1.5528,1.4999,1.4653,1.4476,1.4285,1.4265,1.3879,1.35,1.3148,1.2832,1.2479,1.1948,1.1627,1.1638,1.1325,1.0451,0.9217,0.6075,0.2994,0.1693,0.0379,-0.0756,-0.2076,-0.2461,-0.3035,-0.36,-0.3963,-0.4346,-0.4363,-0.4563,-0.5316,-0.5121,-0.493,-0.6421,-0.7715,-0.8435,-1.0119,-1.1403,-1.1552,-1.1895,-1.2432,-1.3186,-1.3839,-1.444,-1.4765,-1.4923,-1.5107,-1.5441,-1.6,-1.6398,-1.7356,-2.0107,-2.2505,-2.436,-2.6222,-2.795,-0.9302,-0.9302,-0.9318,-0.9334,-0.906,-0.8624,-0.5984,-0.2188,-0.2045,-0.1765,-0.2378,-0.2238,-0.2257,-0.2459,-0.2465,-0.2465,-0.2298,-0.0915,-0.1216,-0.0909,0.4654,0.5709,0.6334,0.7276,0.7519,0.7727,0.7795,0.7929,0.7999,0.7966,0.797,0.8023,0.7958,0.7974,0.8036,0.806,0.806,0.806,0.8064,0.8064,0.8072,0.8085,0.8113,0.817,0.826,0.8342,0.8428,0.8522,0.8566,0.8947,1.0026,1.2165,1.3774,1.502,1.5896,1.6608,1.6928,1.6409,1.5881,1.5344,1.4822,1.4476,1.4299,1.4122,1.3899,1.3657,1.3273,1.2535,1.2372,1.2167,1.1653,1.1594,1.1465,1.086,1.0011,0.8224,0.5546,0.4082,0.2604,0.2238,0.1679,0.1122,0.094,0.0377,-0.0189,-0.0944,-0.2654,-0.2663,-0.3981,-0.4932,-0.5702,-0.6272,-0.6648,-0.6612,-0.7323,-1.0202,-1.1705,-1.1849,-1.2212,-1.2812,-1.3222,-1.3639,-1.4222,-1.4946,-1.5126,-1.5126,-1.5652,-1.5932,-1.7266,-1.8601,-2.1578,-2.4011,-2.5889,-2.762,-2.9171]},{"header":{"parameterUnit":"m.s-1","parameterCategory":1,"la1":31.0,"la2":29.5877,"lo1":-88.7671,"lo2":-86.6584,"dx":0.0162,"dy":0.0185,"nx":115,"ny":88,"refTime":"2022-12-20T06:00:00:Z","depth":0,"parameterNumber":3,"parameterNumberName":"V-component_of_WINDS"},"data":[0.0,0.0,0.0,0.0,0.0,0.0,0.0,0.0,0.0,0.0,0.0,0.0,0.0,0.0,0.0,0.0,0.0,0.0,0.0,0.0,0.0,0.0,0.0,0.0,0.0,0.0,0.0,0.0,0.0,0.0,0.0,0.0,0.0,0.0,0.0,0.0,0.0,0.0,0.0,0.0,0.0,0.0,0.0,0.0,0.0,0.0,0.0,0.0,0.0,0.0,0.0,0.0,0.0,0.0,0.0,0.0,0.0,0.0,0.0,0.0,0.0,0.0,0.0,0.0,0.0,0.0,0.0,0.0,0.0,0.0,0.0,0.0,0.0,0.0,0.0,0.0,0.0,0.0,0.0,0.0,0.0,0.0,0.0,0.0,0.0,0.0,0.0,0.0,0.0,0.0,0.0,0.0,0.0,0.0,0.0,0.0,0.0,0.0,0.0,0.0,0.0,0.0,0.0,0.0,0.0,0.0,0.0,0.0,0.0,0.0,0.0,0.0,0.0,0.0,0.0,0.0,0.0,0.0,0.0,0.0,0.0,0.0,0.0,0.0,0.0,0.0,0.0,0.0,0.0,0.0,0.0,0.0,0.0,0.0,0.0,0.0,0.0,0.0,0.0,0.0,0.0,0.0,0.0,0.0,0.0,0.0,0.0,0.0,0.0,0.0,0.0,0.0,0.0,0.0,0.0,0.0,0.0,0.0,0.0,0.0,0.0,0.0,0.0,0.0,0.0,0.0,0.0,0.0,0.0,0.0,0.0,0.0,0.0,0.0,0.0,0.0,0.0,0.0,0.0,0.0,0.0,0.0,0.0,0.0,0.0,0.0,0.0,0.0,0.0,0.0,0.0,0.0,0.0,0.0,0.0,0.0,0.0,0.0,0.0,0.0,0.0,0.0,0.0,0.0,0.0,0.0,0.0,0.0,0.0,0.0,0.0,0.0,0.0,0.0,0.0,0.0,0.0,0.0,0.0,0.0,0.0,0.0,0.0,0.0,0.0,0.0,0.0,0.0,0.0,0.0,0.0,0.0,0.0,0.0,0.0,0.0,0.0,0.0,0.0,0.0,0.0,0.0,0.0,0.0,0.0,0.0,0.0,0.0,0.0,0.0,0.0,0.0,0.0,0.0,0.0,0.0,0.0,0.0,0.0,0.0,0.0,0.0,0.0,0.0,0.0,0.0,0.0,0.0,0.0,0.0,0.0,0.0,0.0,0.0,0.0,0.0,0.0,0.0,0.0,0.0,0.0,0.0,0.0,0.0,0.0,0.0,0.0,0.0,0.0,0.0,0.0,0.0,0.0,0.0,0.0,0.0,0.0,0.0,0.0,0.0,0.0,0.0,0.0,0.0,0.0,0.0,0.0,0.0,0.0,0.0,0.0,0.0,0.0,0.0,0.0,0.0,0.0,0.0,0.0,0.0,0.0,0.0,0.0,0.0,0.0,0.0,0.0,0.0,0.0,0.0,0.0,0.0,0.0,0.0,0.0,0.0,0.0,0.0,0.0,0.0,0.0,0.0,0.0,0.0,0.0,0.0,0.0,0.0,0.0,0.0,0.0,0.0,0.0,0.0,0.0,0.0,0.0,0.0,0.0,0.0,0.0,0.0,0.0,0.0,0.0,0.0,0.0,0.0,0.0,0.0,0.0,0.0,0.0,0.0,0.0,0.0,0.0,0.0,0.0,0.0,0.0,0.0,0.0,0.0,0.0,0.0,0.0,0.0,0.0,0.0,0.0,0.0,0.0,0.0,0.0,0.0,0.0,0.0,0.0,0.0,0.0,0.0,0.0,0.0,0.0,0.0,0.0,0.0,0.0,0.0,0.0,0.0,0.0,0.0,0.0,0.0,0.0,0.0,0.0,0.0,0.0,0.0,0.0,0.0,0.0,0.0,0.0,0.0,0.0,0.0,0.0,0.0,0.0,0.0,0.0,0.0,0.0,0.0,0.0,0.0,0.0,0.0,0.0,0.0,0.0,0.0,0.0,0.0,0.0,0.0,0.0,0.0,0.0,0.0,0.0,0.0,0.0,0.0,0.0,0.0,0.0,0.0,0.0,0.0,0.0,0.0,0.0,0.0,0.0,0.0,0.0,0.0,0.0,0.0,0.0,0.0,0.0,0.0,0.0,0.0,0.0,0.0,0.0,0.0,0.0,0.0,0.0,0.0,0.0,0.0,0.0,0.0,0.0,0.0,0.0,0.0,0.0,0.0,0.0,0.0,0.0,0.0,0.0,0.0,0.0,0.0,0.0,0.0,0.0,0.0,0.0,0.0,0.0,0.0,0.0,0.0,0.0,0.0,0.0,0.0,0.0,0.0,0.0,0.0,0.0,0.0,0.0,0.0,0.0,0.0,0.0,0.0,0.0,0.0,0.0,0.0,0.0,0.0,0.0,0.0,0.0,0.0,0.0,0.0,0.0,0.0,0.0,0.0,0.0,0.0,0.0,0.0,0.0,0.0,0.0,0.0,0.0,0.0,0.0,0.0,0.0,0.0,0.0,0.0,0.0,0.0,0.0,0.0,0.0,0.0,0.0,0.0,0.0,0.0,0.0,0.0,0.0,0.0,0.0,0.0,0.0,0.0,0.0,0.0,0.0,0.0,0.0,0.0,0.0,0.0,0.0,0.0,0.0,0.0,0.0,0.0,0.0,0.0,0.0,0.0,0.0,0.0,0.0,0.0,0.0,0.0,0.0,0.0,0.0,0.0,0.0,0.0,0.0,0.0,0.0,0.0,0.0,0.0,0.0,0.0,0.0,0.0,0.0,0.0,0.0,0.0,0.0,0.0,0.0,0.0,0.0,0.0,0.0,0.0,0.0,0.0,0.0,0.0,0.0,0.0,0.0,0.0,0.0,0.0,0.0,0.0,0.0,0.0,0.0,0.0,0.0,0.0,0.0,0.0,0.0,0.0,0.0,0.0,0.0,0.0,0.0,0.0,0.0,0.0,0.0,0.0,0.0,0.0,0.0,0.0,0.0,0.0,0.0,0.0,0.0,0.0,0.0,0.0,0.0,0.0,0.0,0.0,0.0,0.0,0.0,0.0,0.0,0.0,0.0,0.0,0.0,0.0,0.0,0.0,0.0,0.0,0.0,0.0,0.0,0.0,0.0,0.0,0.0,0.0,0.0,0.0,0.0,0.0,0.0,0.0,0.0,0.0,0.0,0.0,0.0,0.0,0.0,0.0,0.0,0.0,0.0,0.0,0.0,0.0,0.0,0.0,0.0,0.0,0.0,0.0,0.0,0.0,0.0,0.0,0.0,0.0,0.0,0.0,0.0,0.0,0.0,0.0,0.0,0.0,0.0,0.0,0.0,0.0,0.0,0.0,0.0,0.0,0.0,0.0,0.0,0.0,0.0,0.0,0.0,0.0,0.0,0.0,0.0,0.0,0.0,0.0,0.0,0.0,0.0,0.0,0.0,0.0,0.0,0.0,0.0,0.0,0.0,0.0,0.0,0.0,0.0,0.0,0.0,0.0,0.0,0.0,0.0,0.0,0.0,0.0,0.0,0.0,0.0,0.0,0.0,0.0,0.0,0.0,0.0,0.0,0.0,0.0,0.0,0.0,0.0,0.0,0.0,0.0,0.0,0.0,0.0,0.0,0.0,0.0,0.0,0.0,0.0,0.0,0.0,0.0,0.0,0.0,0.0,0.0,0.0,0.0,0.0,0.0,0.0,0.0,0.0,0.0,0.0,0.0,0.0,0.0,0.0,0.0,0.0,0.0,0.0,0.0,0.0,0.0,0.0,0.0,0.0,0.0,0.0,0.0,0.0,0.0,0.0,0.0,0.0,0.0,0.0,0.0,0.0,0.0,0.0,0.0,0.0,0.0,0.0,0.0,0.0,0.0,0.0,0.0,0.0,0.0,0.0,0.0,0.0,0.0,0.0,0.0,0.0,0.0,0.0,0.0,0.0,0.0,0.0,0.0,0.0,0.0,0.0,0.0,0.0,0.0,0.0,0.0,0.0,0.0,0.0,0.0,0.0,0.0,0.0,0.0,0.0,0.0,0.0,0.0,0.0,0.0,0.0,0.0,0.0,0.0,0.0,0.0,0.0,0.0,0.0,0.0,0.0,0.0,0.0,0.0,0.0,0.0,0.0,0.0,0.0,0.0,0.0,0.0,0.0,0.0,0.0,0.0,0.0,0.0,0.0,0.0,0.0,0.0,0.0,0.0,0.0,0.0,0.0,0.0,0.0,0.0,0.0,0.0,0.0,0.0,0.0,0.0,0.0,0.0,0.0,0.0,0.0,0.0,0.0,0.0,-2.4192,0.0,0.0,0.0,-2.4507,0.0,0.0,0.0,0.0,0.0,0.0,0.0,0.0,0.0,0.0,0.0,0.0,0.0,0.0,0.0,0.0,0.0,0.0,0.0,0.0,0.0,0.0,0.0,0.0,0.0,0.0,0.0,0.0,0.0,0.0,0.0,0.0,0.0,0.0,0.0,0.0,0.0,0.0,0.0,0.0,0.0,0.0,0.0,0.0,0.0,0.0,0.0,0.0,0.0,0.0,0.0,0.0,0.0,0.0,0.0,0.0,0.0,0.0,0.0,0.0,0.0,0.0,0.0,0.0,0.0,0.0,0.0,0.0,0.0,0.0,0.0,0.0,0.0,0.0,0.0,0.0,0.0,0.0,0.0,0.0,0.0,0.0,0.0,0.0,0.0,0.0,0.0,0.0,0.0,0.0,0.0,0.0,0.0,0.0,0.0,0.0,0.0,0.0,0.0,0.0,0.0,0.0,0.0,0.0,0.0,0.0,0.0,0.0,0.0,0.0,-2.4717,-2.6669,-2.4579,-2.3945,-2.5137,0.0,0.0,0.0,0.0,0.0,0.0,0.0,0.0,0.0,0.0,0.0,0.0,0.0,0.0,0.0,0.0,0.0,0.0,0.0,0.0,0.0,0.0,0.0,0.0,0.0,0.0,0.0,0.0,0.0,0.0,0.0,0.0,0.0,0.0,0.0,0.0,0.0,0.0,0.0,0.0,0.0,0.0,0.0,0.0,0.0,0.0,0.0,0.0,0.0,0.0,0.0,0.0,0.0,0.0,0.0,0.0,0.0,0.0,0.0,0.0,0.0,0.0,0.0,0.0,0.0,0.0,0.0,0.0,0.0,0.0,0.0,0.0,0.0,0.0,0.0,0.0,0.0,0.0,0.0,0.0,0.0,0.0,0.0,0.0,0.0,0.0,0.0,0.0,0.0,0.0,0.0,0.0,0.0,0.0,0.0,0.0,0.0,0.0,0.0,0.0,0.0,0.0,0.0,0.0,0.0,0.0,0.0,0.0,0.0,0.0,0.0,0.0,-2.529,-2.448,-2.5468,0.0,0.0,0.0,0.0,0.0,0.0,0.0,0.0,0.0,0.0,0.0,0.0,0.0,0.0,0.0,0.0,0.0,0.0,0.0,0.0,0.0,0.0,0.0,0.0,0.0,0.0,0.0,0.0,0.0,0.0,0.0,0.0,0.0,0.0,0.0,0.0,0.0,0.0,0.0,0.0,0.0,0.0,0.0,0.0,0.0,0.0,0.0,0.0,0.0,0.0,0.0,0.0,0.0,0.0,0.0,0.0,0.0,0.0,0.0,0.0,0.0,0.0,0.0,0.0,0.0,0.0,0.0,0.0,0.0,0.0,0.0,0.0,0.0,0.0,0.0,0.0,0.0,0.0,0.0,0.0,0.0,0.0,0.0,0.0,0.0,0.0,0.0,0.0,0.0,0.0,0.0,0.0,0.0,0.0,0.0,0.0,0.0,0.0,0.0,0.0,0.0,0.0,0.0,0.0,0.0,0.0,0.0,0.0,0.0,0.0,-2.6808,-2.7621,-2.7166,0.0,-2.517,0.0,0.0,0.0,0.0,0.0,0.0,0.0,0.0,0.0,0.0,0.0,0.0,0.0,0.0,0.0,0.0,0.0,0.0,0.0,0.0,0.0,0.0,0.0,0.0,0.0,0.0,0.0,0.0,0.0,0.0,0.0,0.0,0.0,0.0,0.0,0.0,0.0,0.0,0.0,0.0,0.0,0.0,0.0,0.0,0.0,0.0,0.0,0.0,0.0,0.0,0.0,0.0,0.0,0.0,0.0,0.0,0.0,0.0,0.0,0.0,0.0,0.0,0.0,0.0,0.0,0.0,0.0,0.0,0.0,0.0,0.0,0.0,0.0,0.0,0.0,0.0,0.0,0.0,0.0,0.0,0.0,0.0,0.0,0.0,0.0,0.0,0.0,0.0,0.0,0.0,0.0,0.0,0.0,0.0,0.0,0.0,0.0,0.0,0.0,0.0,0.0,0.0,0.0,0.0,0.0,0.0,0.0,0.0,0.0,0.0,-2.7688,-2.8165,-2.7185,-2.6622,0.0,0.0,0.0,0.0,0.0,0.0,0.0,0.0,0.0,0.0,0.0,0.0,0.0,0.0,0.0,0.0,0.0,0.0,0.0,0.0,0.0,0.0,0.0,0.0,0.0,0.0,0.0,0.0,0.0,0.0,0.0,0.0,0.0,0.0,0.0,0.0,0.0,0.0,0.0,0.0,0.0,0.0,0.0,0.0,0.0,0.0,0.0,0.0,0.0,0.0,0.0,0.0,0.0,0.0,0.0,0.0,0.0,0.0,0.0,0.0,0.0,0.0,0.0,0.0,0.0,0.0,0.0,0.0,0.0,0.0,0.0,0.0,0.0,0.0,0.0,0.0,0.0,0.0,0.0,0.0,0.0,0.0,0.0,0.0,0.0,0.0,0.0,0.0,0.0,0.0,0.0,0.0,0.0,0.0,0.0,0.0,0.0,0.0,0.0,0.0,0.0,0.0,0.0,0.0,0.0,0.0,0.0,0.0,0.0,0.0,-2.7763,-2.8369,-2.8706,-2.8232,-2.7767,-2.7355,0.0,0.0,0.0,0.0,0.0,0.0,0.0,0.0,0.0,0.0,0.0,0.0,0.0,0.0,0.0,0.0,0.0,0.0,0.0,0.0,0.0,0.0,0.0,0.0,0.0,0.0,0.0,0.0,0.0,0.0,0.0,0.0,0.0,0.0,0.0,0.0,0.0,0.0,0.0,0.0,0.0,0.0,0.0,0.0,0.0,0.0,0.0,0.0,0.0,0.0,0.0,0.0,0.0,0.0,0.0,0.0,0.0,0.0,0.0,0.0,0.0,0.0,0.0,0.0,0.0,0.0,0.0,0.0,0.0,0.0,0.0,0.0,0.0,0.0,0.0,0.0,0.0,0.0,0.0,0.0,0.0,0.0,0.0,0.0,0.0,0.0,0.0,0.0,0.0,0.0,0.0,0.0,0.0,0.0,0.0,0.0,0.0,0.0,0.0,0.0,0.0,0.0,0.0,0.0,0.0,0.0,0.0,0.0,-2.6891,-2.8002,-2.8777,-2.9274,-3.1219,-3.0564,0.0,0.0,0.0,0.0,0.0,0.0,0.0,0.0,0.0,0.0,0.0,0.0,0.0,0.0,0.0,0.0,0.0,0.0,0.0,0.0,0.0,0.0,0.0,0.0,0.0,0.0,0.0,0.0,0.0,0.0,0.0,0.0,0.0,0.0,0.0,0.0,0.0,0.0,0.0,0.0,0.0,0.0,0.0,0.0,0.0,0.0,0.0,0.0,0.0,0.0,0.0,0.0,0.0,0.0,0.0,0.0,0.0,0.0,0.0,0.0,0.0,0.0,0.0,0.0,0.0,0.0,0.0,0.0,0.0,0.0,0.0,0.0,0.0,0.0,0.0,0.0,0.0,0.0,0.0,0.0,0.0,0.0,0.0,0.0,0.0,0.0,0.0,0.0,0.0,0.0,0.0,0.0,0.0,0.0,0.0,0.0,0.0,0.0,0.0,0.0,0.0,0.0,0.0,0.0,0.0,0.0,0.0,0.0,0.0,-2.753,-2.8766,-3.042,-3.2506,-3.0761,-2.9518,0.0,0.0,0.0,0.0,0.0,0.0,0.0,0.0,0.0,0.0,0.0,0.0,0.0,0.0,0.0,0.0,0.0,0.0,0.0,0.0,0.0,0.0,0.0,0.0,0.0,0.0,0.0,0.0,0.0,0.0,0.0,0.0,0.0,0.0,0.0,0.0,0.0,0.0,0.0,0.0,0.0,0.0,0.0,0.0,0.0,0.0,0.0,0.0,0.0,0.0,0.0,0.0,0.0,0.0,0.0,0.0,0.0,0.0,0.0,0.0,0.0,0.0,0.0,0.0,0.0,0.0,0.0,0.0,0.0,0.0,0.0,0.0,0.0,0.0,0.0,0.0,0.0,0.0,0.0,0.0,0.0,0.0,0.0,0.0,0.0,0.0,0.0,0.0,0.0,0.0,0.0,0.0,0.0,0.0,0.0,0.0,0.0,0.0,0.0,0.0,0.0,0.0,0.0,0.0,0.0,0.0,0.0,0.0,0.0,-2.8527,-2.9934,-3.1567,-3.3318,-3.0595,-2.9248,0.0,0.0,0.0,0.0,0.0,0.0,0.0,0.0,0.0,0.0,0.0,0.0,0.0,0.0,0.0,0.0,0.0,0.0,0.0,0.0,0.0,0.0,0.0,0.0,0.0,0.0,0.0,0.0,0.0,0.0,0.0,0.0,0.0,0.0,0.0,0.0,0.0,0.0,0.0,0.0,0.0,0.0,0.0,0.0,0.0,0.0,0.0,0.0,0.0,0.0,0.0,0.0,0.0,0.0,0.0,0.0,0.0,0.0,0.0,0.0,0.0,0.0,0.0,0.0,0.0,0.0,0.0,0.0,0.0,0.0,0.0,0.0,0.0,0.0,0.0,0.0,0.0,0.0,0.0,0.0,0.0,0.0,0.0,0.0,0.0,0.0,0.0,0.0,0.0,0.0,0.0,0.0,0.0,0.0,0.0,0.0,0.0,0.0,0.0,0.0,0.0,0.0,0.0,0.0,0.0,0.0,0.0,0.0,-2.7673,-2.9819,-3.1595,-3.2188,-3.1379,-3.101,-3.0075,0.0,0.0,0.0,0.0,0.0,0.0,0.0,0.0,0.0,0.0,0.0,0.0,0.0,0.0,0.0,0.0,0.0,0.0,0.0,0.0,0.0,0.0,0.0,0.0,0.0,0.0,0.0,0.0,0.0,0.0,0.0,0.0,0.0,0.0,0.0,0.0,0.0,0.0,0.0,0.0,0.0,0.0,0.0,0.0,0.0,0.0,0.0,0.0,0.0,0.0,0.0,0.0,0.0,0.0,0.0,0.0,0.0,0.0,0.0,0.0,0.0,0.0,0.0,0.0,0.0,0.0,0.0,0.0,0.0,0.0,0.0,0.0,0.0,0.0,0.0,0.0,0.0,0.0,0.0,0.0,0.0,0.0,0.0,0.0,0.0,0.0,0.0,0.0,0.0,0.0,0.0,0.0,0.0,0.0,0.0,0.0,0.0,0.0,0.0,0.0,0.0,0.0,0.0,0.0,0.0,0.0,0.0,0.0,0.0,-3.0238,-3.242,-3.3265,-3.2577,-3.2086,-3.1113,0.0,0.0,0.0,0.0,0.0,0.0,0.0,0.0,0.0,0.0,0.0,0.0,0.0,0.0,0.0,0.0,0.0,0.0,0.0,0.0,0.0,0.0,0.0,0.0,0.0,0.0,0.0,0.0,0.0,0.0,0.0,0.0,0.0,0.0,0.0,0.0,0.0,0.0,0.0,0.0,0.0,0.0,0.0,0.0,0.0,0.0,0.0,0.0,0.0,0.0,0.0,0.0,0.0,0.0,0.0,0.0,0.0,0.0,0.0,0.0,0.0,0.0,0.0,0.0,0.0,0.0,0.0,0.0,0.0,0.0,0.0,0.0,0.0,0.0,0.0,0.0,0.0,0.0,0.0,0.0,0.0,0.0,0.0,0.0,0.0,0.0,0.0,0.0,0.0,0.0,0.0,0.0,0.0,0.0,0.0,0.0,0.0,0.0,0.0,0.0,0.0,0.0,0.0,0.0,0.0,0.0,0.0,0.0,0.0,-3.2522,-3.4006,-3.4672,-3.4226,-3.3243,-3.2204,-3.115,0.0,0.0,0.0,0.0,0.0,0.0,0.0,0.0,0.0,0.0,0.0,0.0,0.0,0.0,0.0,0.0,0.0,0.0,0.0,0.0,0.0,0.0,0.0,0.0,0.0,0.0,0.0,0.0,0.0,0.0,0.0,0.0,0.0,0.0,0.0,0.0,0.0,0.0,0.0,0.0,0.0,0.0,0.0,0.0,0.0,0.0,0.0,0.0,0.0,0.0,0.0,0.0,0.0,0.0,0.0,0.0,0.0,0.0,0.0,0.0,0.0,0.0,0.0,0.0,0.0,0.0,0.0,0.0,0.0,0.0,0.0,0.0,0.0,0.0,0.0,0.0,0.0,0.0,0.0,0.0,0.0,0.0,0.0,0.0,0.0,0.0,0.0,0.0,0.0,0.0,0.0,0.0,0.0,0.0,0.0,0.0,0.0,0.0,0.0,0.0,0.0,0.0,0.0,0.0,0.0,0.0,0.0,0.0,-3.6032,-3.6325,-3.6434,-3.6135,-3.4462,-3.3314,0.0,0.0,0.0,0.0,0.0,0.0,0.0,0.0,0.0,0.0,0.0,0.0,0.0,0.0,0.0,0.0,0.0,0.0,0.0,0.0,0.0,0.0,0.0,0.0,0.0,0.0,0.0,0.0,0.0,0.0,0.0,0.0,0.0,0.0,0.0,0.0,0.0,0.0,0.0,0.0,0.0,0.0,0.0,0.0,0.0,0.0,0.0,0.0,0.0,0.0,0.0,0.0,0.0,0.0,0.0,0.0,0.0,0.0,0.0,0.0,0.0,0.0,0.0,0.0,0.0,0.0,0.0,0.0,0.0,0.0,0.0,0.0,0.0,0.0,0.0,0.0,0.0,0.0,0.0,0.0,0.0,0.0,0.0,0.0,0.0,0.0,0.0,0.0,0.0,0.0,0.0,0.0,0.0,0.0,0.0,0.0,0.0,0.0,0.0,0.0,0.0,0.0,0.0,0.0,0.0,0.0,0.0,0.0,0.0,-3.8485,-3.969,-3.937,-3.7377,-3.6465,-3.5453,0.0,0.0,0.0,0.0,0.0,0.0,0.0,0.0,0.0,0.0,0.0,0.0,0.0,0.0,0.0,0.0,0.0,0.0,0.0,0.0,0.0,0.0,0.0,0.0,0.0,0.0,0.0,0.0,0.0,0.0,0.0,0.0,0.0,0.0,0.0,0.0,0.0,0.0,0.0,0.0,0.0,0.0,0.0,0.0,0.0,0.0,0.0,0.0,0.0,0.0,0.0,0.0,0.0,0.0,0.0,0.0,0.0,0.0,0.0,0.0,0.0,0.0,0.0,0.0,0.0,0.0,0.0,0.0,0.0,0.0,0.0,0.0,0.0,0.0,0.0,0.0,0.0,0.0,0.0,0.0,0.0,0.0,0.0,0.0,0.0,0.0,0.0,0.0,0.0,0.0,0.0,0.0,0.0,0.0,0.0,0.0,0.0,0.0,0.0,0.0,0.0,0.0,0.0,0.0,0.0,0.0,0.0,0.0,-3.835,-4.0781,-4.2151,-4.1986,-4.0188,-3.9165,-3.7766,0.0,0.0,0.0,0.0,0.0,0.0,0.0,0.0,0.0,0.0,0.0,0.0,0.0,0.0,0.0,0.0,0.0,0.0,0.0,0.0,0.0,0.0,0.0,0.0,0.0,0.0,0.0,0.0,0.0,0.0,0.0,0.0,0.0,0.0,0.0,0.0,0.0,0.0,0.0,0.0,0.0,0.0,0.0,0.0,0.0,0.0,0.0,0.0,0.0,0.0,0.0,0.0,0.0,0.0,0.0,0.0,0.0,0.0,0.0,0.0,0.0,0.0,0.0,0.0,0.0,0.0,0.0,0.0,0.0,0.0,0.0,0.0,0.0,0.0,0.0,0.0,0.0,0.0,0.0,0.0,0.0,0.0,0.0,0.0,0.0,0.0,0.0,0.0,0.0,0.0,0.0,0.0,0.0,0.0,0.0,0.0,0.0,0.0,0.0,0.0,0.0,0.0,0.0,0.0,0.0,0.0,0.0,0.0,-4.0617,-4.2706,-4.3781,-4.4154,-4.3725,-4.1978,-3.999,0.0,0.0,0.0,0.0,0.0,0.0,0.0,0.0,0.0,0.0,0.0,0.0,0.0,0.0,0.0,0.0,0.0,0.0,0.0,0.0,0.0,0.0,0.0,0.0,0.0,0.0,0.0,0.0,0.0,0.0,0.0,0.0,0.0,0.0,0.0,0.0,0.0,0.0,0.0,0.0,0.0,0.0,0.0,0.0,0.0,0.0,0.0,0.0,0.0,0.0,0.0,0.0,0.0,0.0,0.0,0.0,0.0,0.0,0.0,0.0,0.0,0.0,0.0,0.0,0.0,0.0,0.0,0.0,0.0,0.0,0.0,0.0,0.0,0.0,0.0,0.0,0.0,0.0,0.0,0.0,0.0,0.0,0.0,0.0,0.0,0.0,0.0,0.0,0.0,0.0,0.0,0.0,0.0,0.0,0.0,0.0,0.0,0.0,0.0,0.0,0.0,0.0,0.0,0.0,0.0,0.0,0.0,0.0,-4.1746,-4.3621,-4.4363,-4.4651,-4.4535,-4.2824,-4.0992,0.0,0.0,0.0,0.0,0.0,0.0,0.0,0.0,0.0,0.0,0.0,0.0,0.0,0.0,0.0,0.0,0.0,0.0,0.0,0.0,0.0,0.0,0.0,0.0,0.0,0.0,0.0,0.0,0.0,0.0,0.0,0.0,0.0,0.0,0.0,0.0,0.0,0.0,0.0,0.0,0.0,0.0,0.0,0.0,0.0,0.0,0.0,0.0,-2.2289,0.0,0.0,0.0,0.0,0.0,0.0,0.0,0.0,0.0,0.0,0.0,0.0,0.0,0.0,0.0,0.0,0.0,0.0,0.0,0.0,0.0,0.0,0.0,0.0,0.0,0.0,0.0,0.0,0.0,0.0,0.0,0.0,0.0,0.0,0.0,0.0,0.0,0.0,0.0,0.0,0.0,0.0,0.0,0.0,0.0,0.0,0.0,0.0,0.0,0.0,0.0,0.0,0.0,0.0,0.0,0.0,0.0,0.0,0.0,-4.2307,-4.4318,-4.465,-4.4849,-4.5004,-4.4121,-4.2351,0.0,0.0,0.0,0.0,0.0,0.0,0.0,0.0,0.0,0.0,0.0,0.0,0.0,0.0,0.0,0.0,0.0,0.0,0.0,0.0,0.0,0.0,0.0,0.0,0.0,0.0,0.0,0.0,0.0,0.0,0.0,0.0,0.0,0.0,0.0,0.0,0.0,0.0,0.0,0.0,0.0,0.0,0.0,0.0,0.0,0.0,0.0,0.0,0.0,0.0,0.0,0.0,0.0,0.0,0.0,0.0,0.0,0.0,0.0,0.0,0.0,0.0,0.0,0.0,0.0,0.0,0.0,0.0,0.0,0.0,0.0,0.0,0.0,0.0,0.0,0.0,0.0,0.0,0.0,0.0,0.0,0.0,0.0,0.0,0.0,0.0,0.0,0.0,0.0,0.0,0.0,0.0,0.0,0.0,0.0,0.0,0.0,0.0,0.0,0.0,0.0,0.0,0.0,0.0,0.0,0.0,0.0,-3.9806,-4.2408,-4.47,-4.4825,-4.5004,-4.5277,-4.5337,-4.3547,-3.9853,0.0,0.0,0.0,0.0,0.0,0.0,0.0,0.0,0.0,0.0,0.0,0.0,0.0,0.0,0.0,0.0,0.0,0.0,0.0,0.0,0.0,0.0,0.0,0.0,0.0,0.0,0.0,0.0,0.0,0.0,0.0,0.0,0.0,0.0,0.0,0.0,0.0,0.0,-2.1239,-2.2026,0.0,0.0,0.0,0.0,0.0,0.0,0.0,0.0,-2.4412,0.0,0.0,0.0,0.0,0.0,0.0,0.0,0.0,0.0,0.0,0.0,0.0,0.0,0.0,0.0,0.0,0.0,0.0,0.0,0.0,0.0,0.0,0.0,0.0,0.0,0.0,0.0,0.0,0.0,0.0,0.0,0.0,0.0,0.0,0.0,0.0,0.0,0.0,0.0,0.0,0.0,0.0,0.0,0.0,0.0,0.0,0.0,0.0,0.0,0.0,0.0,0.0,0.0,0.0,0.0,0.0,-3.9335,-4.03,-4.2032,-4.47,-4.5087,-4.5235,-4.5277,-4.5339,-4.3711,-4.0266,0.0,0.0,0.0,0.0,0.0,0.0,0.0,0.0,0.0,0.0,0.0,0.0,0.0,0.0,0.0,0.0,0.0,0.0,0.0,0.0,0.0,0.0,0.0,0.0,0.0,0.0,0.0,0.0,0.0,0.0,0.0,0.0,0.0,0.0,0.0,0.0,0.0,0.0,0.0,-2.4143,-2.4636,0.0,0.0,0.0,0.0,0.0,0.0,0.0,0.0,-2.4898,0.0,0.0,0.0,0.0,0.0,0.0,0.0,0.0,0.0,0.0,0.0,0.0,0.0,0.0,0.0,0.0,0.0,0.0,0.0,0.0,0.0,0.0,0.0,0.0,0.0,0.0,0.0,0.0,0.0,0.0,0.0,0.0,0.0,0.0,0.0,0.0,0.0,0.0,0.0,0.0,0.0,0.0,0.0,0.0,0.0,0.0,0.0,0.0,0.0,0.0,0.0,0.0,0.0,0.0,0.0,-3.8447,-4.1292,-4.3515,-4.4988,-4.5256,-4.5548,-4.5931,-4.601,-4.4421,0.0,0.0,0.0,0.0,0.0,0.0,0.0,0.0,0.0,0.0,0.0,0.0,0.0,0.0,0.0,0.0,0.0,0.0,0.0,0.0,0.0,0.0,0.0,0.0,0.0,0.0,0.0,0.0,0.0,0.0,0.0,0.0,0.0,0.0,0.0,0.0,0.0,0.0,0.0,0.0,-2.5034,-2.5583,-2.6566,0.0,0.0,0.0,0.0,0.0,0.0,-2.603,-2.5669,0.0,0.0,0.0,0.0,0.0,0.0,0.0,0.0,0.0,0.0,0.0,0.0,0.0,0.0,0.0,0.0,0.0,0.0,0.0,0.0,0.0,0.0,0.0,0.0,0.0,0.0,0.0,0.0,0.0,0.0,0.0,0.0,0.0,0.0,0.0,0.0,0.0,0.0,0.0,0.0,0.0,0.0,0.0,0.0,0.0,0.0,0.0,0.0,0.0,0.0,0.0,0.0,0.0,0.0,0.0,-3.7338,-4.1879,-4.4829,-4.5795,-4.5875,-4.6202,-4.6873,-4.6932,-4.5265,0.0,0.0,0.0,0.0,0.0,0.0,0.0,0.0,0.0,0.0,0.0,0.0,0.0,0.0,0.0,0.0,0.0,0.0,0.0,0.0,0.0,0.0,0.0,0.0,0.0,0.0,0.0,0.0,0.0,0.0,0.0,0.0,0.0,0.0,0.0,0.0,0.0,0.0,0.0,0.0,0.0,-2.6752,-2.7728,-2.7502,0.0,0.0,0.0,0.0,-2.7238,-2.74,0.0,0.0,0.0,0.0,0.0,0.0,0.0,0.0,0.0,0.0,0.0,0.0,0.0,0.0,0.0,0.0,0.0,0.0,0.0,0.0,0.0,0.0,0.0,0.0,0.0,0.0,0.0,0.0,0.0,0.0,0.0,0.0,0.0,0.0,0.0,0.0,0.0,0.0,0.0,0.0,0.0,0.0,0.0,0.0,0.0,0.0,0.0,0.0,0.0,0.0,0.0,0.0,0.0,0.0,0.0,0.0,-3.7952,-4.1131,-4.4347,-4.7406,-4.758,-4.7677,-4.7854,-4.7894,-4.5918,0.0,0.0,0.0,0.0,0.0,0.0,0.0,0.0,0.0,0.0,0.0,0.0,0.0,0.0,0.0,0.0,0.0,0.0,0.0,0.0,0.0,0.0,0.0,0.0,0.0,0.0,0.0,0.0,0.0,0.0,0.0,0.0,0.0,0.0,0.0,0.0,0.0,0.0,0.0,0.0,0.0,-2.9101,-2.8811,-2.917,-2.9628,0.0,0.0,-2.9081,-2.9567,-3.0148,0.0,0.0,0.0,0.0,0.0,0.0,0.0,0.0,0.0,0.0,0.0,0.0,0.0,0.0,0.0,0.0,0.0,0.0,0.0,0.0,0.0,0.0,0.0,0.0,0.0,0.0,0.0,0.0,0.0,0.0,0.0,0.0,0.0,0.0,0.0,0.0,0.0,0.0,0.0,0.0,0.0,0.0,0.0,0.0,0.0,0.0,0.0,0.0,0.0,0.0,0.0,0.0,0.0,0.0,0.0,-3.6677,-3.8537,-4.3145,-4.633,-4.791,-4.7969,-4.822,-4.872,-4.8798,-4.7012,0.0,0.0,0.0,0.0,0.0,0.0,0.0,0.0,0.0,0.0,0.0,0.0,0.0,0.0,0.0,0.0,0.0,0.0,0.0,0.0,0.0,0.0,0.0,0.0,0.0,0.0,0.0,0.0,0.0,0.0,0.0,0.0,0.0,0.0,0.0,0.0,0.0,0.0,0.0,0.0,0.0,0.0,-3.034,-3.0701,0.0,0.0,0.0,-3.0724,-3.1204,0.0,0.0,0.0,0.0,0.0,0.0,0.0,0.0,0.0,0.0,0.0,0.0,0.0,0.0,0.0,0.0,0.0,0.0,0.0,0.0,0.0,0.0,0.0,0.0,0.0,0.0,0.0,0.0,0.0,0.0,0.0,0.0,0.0,0.0,0.0,0.0,0.0,0.0,0.0,0.0,0.0,0.0,0.0,0.0,0.0,0.0,0.0,0.0,0.0,0.0,0.0,0.0,0.0,0.0,0.0,0.0,0.0,-3.9105,-4.5065,-4.8328,-4.8621,-4.87,-4.8989,-4.9585,-4.9663,0.0,0.0,0.0,0.0,0.0,0.0,0.0,0.0,0.0,0.0,0.0,0.0,0.0,0.0,0.0,0.0,0.0,0.0,0.0,0.0,0.0,0.0,0.0,0.0,0.0,0.0,0.0,-2.7262,0.0,0.0,0.0,0.0,0.0,0.0,0.0,0.0,0.0,0.0,0.0,0.0,0.0,0.0,-3.0958,-3.2069,-3.2407,-3.2957,0.0,0.0,-3.2515,-3.3067,-3.3223,-3.2821,0.0,0.0,0.0,0.0,0.0,0.0,0.0,0.0,0.0,0.0,0.0,0.0,0.0,0.0,0.0,0.0,0.0,0.0,0.0,0.0,0.0,0.0,0.0,0.0,0.0,0.0,0.0,0.0,0.0,0.0,0.0,0.0,0.0,0.0,0.0,0.0,0.0,0.0,0.0,0.0,0.0,0.0,0.0,0.0,0.0,0.0,0.0,0.0,0.0,0.0,0.0,0.0,0.0,0.0,-3.8904,-3.9992,-4.5878,-4.9433,-5.0308,-5.0308,-5.0368,-5.0507,-5.0507,-4.8163,0.0,0.0,0.0,0.0,0.0,0.0,0.0,0.0,0.0,0.0,0.0,0.0,0.0,0.0,0.0,0.0,0.0,0.0,0.0,0.0,0.0,0.0,0.0,0.0,0.0,0.0,0.0,0.0,0.0,0.0,0.0,0.0,0.0,0.0,0.0,0.0,0.0,0.0,0.0,0.0,0.0,-3.2682,-3.3998,-3.4657,-3.5388,0.0,-3.5398,-3.4736,-3.5809,-3.605,-3.4889,-3.1642,0.0,0.0,0.0,0.0,0.0,0.0,0.0,0.0,0.0,0.0,0.0,0.0,0.0,0.0,0.0,0.0,0.0,0.0,0.0,0.0,0.0,0.0,0.0,0.0,0.0,0.0,0.0,0.0,0.0,0.0,0.0,0.0,0.0,0.0,0.0,0.0,0.0,0.0,0.0,0.0,0.0,0.0,0.0,0.0,0.0,0.0,0.0,0.0,0.0,0.0,0.0,0.0,0.0,-3.9558,-4.0234,-4.6598,-5.0068,-5.05,-5.0542,-5.0542,-5.0521,-5.1062,-4.9951,0.0,0.0,0.0,0.0,0.0,0.0,0.0,0.0,0.0,0.0,0.0,0.0,0.0,0.0,0.0,0.0,0.0,0.0,0.0,0.0,0.0,0.0,0.0,0.0,0.0,0.0,0.0,0.0,-3.3118,-3.2326,-3.0113,0.0,0.0,0.0,0.0,0.0,0.0,0.0,0.0,0.0,0.0,-3.6023,-3.6059,-3.688,0.0,0.0,-3.6957,-3.6641,-3.7357,-3.7491,-3.6844,-3.5002,-3.4299,0.0,0.0,0.0,0.0,0.0,0.0,0.0,0.0,0.0,0.0,0.0,0.0,0.0,0.0,0.0,0.0,0.0,0.0,0.0,0.0,0.0,0.0,0.0,0.0,0.0,0.0,0.0,0.0,0.0,0.0,0.0,0.0,0.0,0.0,0.0,0.0,0.0,0.0,0.0,0.0,0.0,0.0,0.0,0.0,0.0,0.0,0.0,0.0,0.0,0.0,0.0,0.0,-4.0155,-4.0672,-4.712,-5.0435,-5.05,-5.0773,-5.0929,-5.099,-5.1759,-5.1356,0.0,0.0,0.0,0.0,0.0,0.0,0.0,0.0,0.0,0.0,0.0,0.0,0.0,0.0,0.0,0.0,0.0,0.0,0.0,0.0,0.0,0.0,0.0,0.0,0.0,0.0,0.0,0.0,-3.6034,-3.5083,-3.3306,0.0,0.0,0.0,0.0,0.0,0.0,0.0,0.0,0.0,0.0,-3.9044,-3.8806,-3.9249,-3.9547,-3.9431,-3.8706,-3.8306,-3.8735,-3.9164,-3.8986,-3.7825,0.0,0.0,0.0,0.0,0.0,0.0,0.0,0.0,0.0,0.0,0.0,0.0,0.0,0.0,0.0,0.0,0.0,0.0,0.0,0.0,0.0,0.0,0.0,0.0,0.0,0.0,0.0,-2.9766,0.0,0.0,-2.8777,0.0,0.0,0.0,0.0,0.0,0.0,0.0,0.0,0.0,0.0,0.0,0.0,0.0,0.0,0.0,0.0,0.0,0.0,0.0,0.0,0.0,0.0,-4.0539,-4.1495,-4.7367,-5.0435,-5.05,-5.1267,-5.1798,-5.2039,-5.2777,-5.2089,-4.9834,0.0,0.0,0.0,0.0,0.0,0.0,0.0,0.0,0.0,0.0,0.0,0.0,0.0,0.0,0.0,0.0,0.0,0.0,0.0,0.0,0.0,0.0,0.0,0.0,0.0,0.0,-3.687,-3.6548,-3.6622,0.0,0.0,0.0,0.0,0.0,0.0,0.0,0.0,0.0,-3.8802,-4.0047,-4.1217,-4.2457,-4.1832,-4.1526,-4.2107,-4.0656,-3.9619,-4.0351,-4.1291,-4.1304,0.0,0.0,0.0,0.0,0.0,0.0,0.0,0.0,0.0,0.0,0.0,0.0,0.0,0.0,0.0,0.0,0.0,0.0,0.0,0.0,0.0,0.0,0.0,0.0,0.0,0.0,0.0,-3.2394,-3.1715,0.0,0.0,0.0,0.0,0.0,0.0,0.0,0.0,0.0,0.0,0.0,-3.6652,-3.8958,0.0,0.0,0.0,0.0,0.0,0.0,0.0,0.0,0.0,0.0,0.0,0.0,-4.0673,-4.1781,-4.743,-5.0478,-5.05,-5.1414,-5.1969,-5.2061,-5.4049,-5.4258,-5.2435,0.0,0.0,0.0,0.0,0.0,0.0,0.0,0.0,0.0,0.0,0.0,0.0,0.0,0.0,0.0,0.0,0.0,0.0,0.0,0.0,0.0,0.0,0.0,0.0,0.0,-4.0279,0.0,0.0,0.0,0.0,0.0,0.0,0.0,0.0,0.0,0.0,-3.9198,-4.1717,-4.2398,-4.4492,-4.5885,-4.5713,-4.5699,-4.5623,0.0,0.0,0.0,0.0,0.0,0.0,0.0,0.0,0.0,0.0,0.0,0.0,0.0,0.0,-4.086,-3.6807,-3.4926,-3.3779,-3.3409,0.0,0.0,0.0,0.0,0.0,0.0,0.0,0.0,0.0,0.0,0.0,0.0,0.0,0.0,-3.476,0.0,-3.4639,0.0,0.0,0.0,0.0,0.0,0.0,0.0,0.0,-3.875,-4.0036,-3.9885,-4.2441,-4.3152,0.0,-4.254,-4.1167,0.0,0.0,0.0,0.0,0.0,0.0,0.0,0.0,-4.1877,-4.3465,-4.835,-5.1097,-5.1449,-5.2627,-5.3503,-5.3964,-5.6032,-5.6641,-5.5606,-5.4966,-5.3237,0.0,0.0,0.0,0.0,0.0,0.0,0.0,0.0,0.0,0.0,0.0,0.0,0.0,0.0,0.0,0.0,0.0,0.0,0.0,0.0,0.0,0.0,0.0,-4.1799,0.0,0.0,0.0,0.0,0.0,0.0,0.0,0.0,0.0,-4.0581,-4.3597,-4.6127,-4.6368,-4.8409,-4.9651,-4.8924,0.0,0.0,0.0,0.0,0.0,0.0,0.0,-4.7202,-4.7109,-4.7103,-4.6802,-4.5794,-4.6845,-4.7533,-4.6733,0.0,0.0,-4.162,-3.9419,-3.8239,-3.8196,-3.7869,-3.7699,-3.7694,-3.7884,-3.8038,0.0,0.0,0.0,0.0,0.0,0.0,0.0,0.0,-3.7748,-3.7545,0.0,-3.7243,0.0,0.0,0.0,0.0,-3.5897,-3.8259,0.0,0.0,-4.3361,-4.5143,-4.5477,-4.6609,-4.7796,-4.8823,-4.8316,-4.7222,-4.5455,-4.2145,0.0,0.0,0.0,0.0,0.0,0.0,-4.4113,-4.656,-5.003,-5.2291,-5.3282,-5.4882,-5.6355,-5.7603,-5.8593,-5.9137,-5.9059,-5.6035,-5.4515,-5.5003,-4.8078,0.0,0.0,0.0,0.0,0.0,0.0,0.0,0.0,0.0,0.0,0.0,0.0,0.0,0.0,0.0,0.0,0.0,0.0,0.0,0.0,-4.3541,0.0,0.0,0.0,0.0,0.0,0.0,0.0,0.0,0.0,-4.9068,-4.4918,-4.6769,-4.9148,-5.0748,0.0,0.0,0.0,0.0,-5.0918,-5.139,-4.9955,-4.9063,-4.9708,-5.0638,-5.1146,-5.0957,0.0,0.0,-4.9941,-5.1558,-5.2367,-5.0251,-5.0791,-5.0263,-4.6325,-4.4077,-4.2887,-4.2536,-4.1909,-4.1681,-4.2367,-4.2738,-4.3484,-4.2943,0.0,0.0,0.0,0.0,-3.9197,-3.9712,-4.1011,-4.1025,-4.0597,-3.9925,-4.0006,0.0,0.0,0.0,0.0,0.0,0.0,-4.2051,-4.2765,-4.4065,-4.5368,-4.6684,-4.7922,-4.8777,-4.9258,-4.9702,-4.9702,-4.9183,-4.8183,-4.446,-3.8261,0.0,0.0,0.0,0.0,-4.659,-4.8585,-5.2011,-5.4262,-5.5204,-5.6393,-5.7865,-5.9529,-5.9864,-6.0308,-6.0854,-5.9896,-5.8094,-5.5301,-5.3666,0.0,0.0,0.0,0.0,0.0,0.0,0.0,0.0,0.0,0.0,0.0,0.0,0.0,0.0,0.0,0.0,0.0,0.0,0.0,-4.4166,-4.6685,-4.7809,0.0,0.0,0.0,0.0,0.0,0.0,0.0,0.0,0.0,-5.1629,-5.2473,-5.3261,0.0,0.0,-5.4401,-5.4028,-5.4617,-5.5191,-5.5378,-5.5364,0.0,-5.5444,-5.4981,-5.4793,-5.5029,-5.5279,-5.5213,-5.4397,-5.477,-5.494,-5.4192,-5.3883,-5.3052,-5.1167,-4.867,-4.675,-4.6066,-4.5548,-4.5316,-4.5608,-4.5991,-4.64,-4.6138,-4.43,-4.2142,-4.1665,-4.2295,-4.1856,-4.2358,-4.357,-4.3657,-4.3391,-4.291,-4.3065,-4.1941,-3.9876,-3.955,0.0,0.0,0.0,-4.4096,-4.5047,-4.564,-4.6652,-4.7922,-4.8991,-4.9614,-4.9894,-5.0087,-5.0356,-5.0702,-5.0317,-4.7606,-4.2689,0.0,0.0,-4.4287,-4.7242,-4.9798,-5.1876,-5.4339,-5.6101,-5.713,-5.8481,-5.9732,-6.0815,-6.0854,-6.1127,-6.1556,-6.158,-6.041,-5.7836,-5.6613,-5.4952,0.0,0.0,0.0,0.0,0.0,0.0,0.0,0.0,0.0,0.0,0.0,-4.5202,-4.2825,0.0,0.0,0.0,-4.6817,-4.7357,-4.8664,-5.0389,0.0,0.0,0.0,0.0,0.0,0.0,0.0,-5.3709,-5.5547,-5.674,-5.6874,-5.7371,-5.7279,-5.6018,-5.6405,-5.687,-5.6831,0.0,-5.8085,-5.8045,-5.8289,-5.8516,-5.8378,-5.7777,-5.7399,-5.7464,-5.7126,-5.6902,-5.6867,-5.667,-5.6537,-5.6436,-5.5859,-5.5041,-5.4023,-5.2227,-5.0422,-4.8883,-4.8561,-4.8462,-4.8298,-4.8468,-4.8566,-4.8953,-4.8747,-4.6536,-4.5554,-4.5446,-4.563,-4.561,-4.5446,-4.5927,-4.6086,-4.5875,-4.6249,-4.5363,-4.3536,-4.2876,0.0,-4.5333,-4.5392,-4.6067,-4.7183,-4.7928,-4.8579,-4.9121,-4.9885,-5.038,-5.0664,-4.9894,-4.9933,-5.0741,-5.001,-4.9702,-4.9894,-4.9894,-5.0547,-5.177,-5.2043,-5.3474,-5.5943,-5.683,-5.7831,-5.9036,-6.0707,-6.1595,-6.1595,-6.1595,-6.1595,-6.1595,-6.1595,-6.1595,-6.1478,-5.7836,-5.6074,-5.673,0.0,0.0,0.0,0.0,0.0,0.0,0.0,0.0,0.0,0.0,0.0,0.0,0.0,0.0,0.0,-5.3512,0.0,-5.5682,-5.4489,0.0,0.0,0.0,-5.0987,-5.1053,-5.3556,-5.5602,-5.6355,0.0,0.0,-6.0642,-6.1278,-6.0882,-5.8718,-5.8887,-5.9395,-5.9993,-5.9903,-5.9859,-5.9651,-5.9618,-5.9583,-5.9564,-5.9382,-5.9194,-5.8934,-5.8401,-5.8176,-5.8281,-5.8031,-5.7736,-5.7875,-5.7213,-5.6577,-5.5639,-5.528,-5.4236,-5.1641,-5.1133,-5.1057,-5.0536,-5.0452,-5.0411,-5.0033,-4.9999,-4.9632,-4.8711,-4.7453,-4.8111,-4.8473,-4.8713,-4.9198,-4.9541,-4.9711,-4.8642,-4.727,-4.5786,-4.6186,-4.6722,-4.7423,-4.8066,-4.8664,-4.9208,-4.9606,-4.9858,-5.003,-5.0427,-5.0624,-5.0664,-5.0471,-5.0818,-5.1587,-5.1414,-5.2299,-5.4087,-5.4203,-5.3413,-5.2028,-5.4554,-5.6539,-5.7812,-5.8894,-5.9942,-6.0971,-6.1452,-6.1648,-6.1595,-6.1595,-6.1595,-6.1595,-6.1595,-6.1595,-6.1556,-6.0644,-6.0161,-6.0317,-5.4445,0.0,0.0,0.0,0.0,0.0,0.0,0.0,0.0,0.0,-4.9776,-4.7105,0.0,-5.0758,0.0,-5.8343,-5.9607,-5.7271,-5.7853,0.0,0.0,-5.7188,-5.6985,-5.9919,-5.9822,-5.9903,-6.0962,-6.2184,-6.2704,-6.1974,-6.2652,-6.2993,-6.24,-6.1297,-6.0581,-6.0744,-6.1003,-6.1215,-6.1371,-6.1542,-6.1604,-6.1497,-6.1024,-6.0805,-6.1127,-6.083,-6.079,-6.1225,-6.1265,-6.12,-6.113,-6.0381,-5.9631,-5.9185,-5.839,-5.7416,-5.6331,-5.4306,-5.2427,-5.2333,-5.239,-5.2376,-5.1081,-5.1141,-5.1175,-5.0645,-4.9764,-4.9918,-5.0102,-5.0344,-5.062,-5.0904,-5.1082,-5.0305,-4.9301,-4.8184,-4.8587,-4.8749,-4.8701,-4.9164,-4.9641,-5.0038,-5.0199,-5.0347,-5.0466,-5.0606,-5.0702,-5.0702,-5.1087,-5.1511,-5.1973,-5.2666,-5.3976,-5.5827,-5.6599,-5.6482,-5.5608,-5.7404,-5.8458,-5.8672,-6.0117,-6.114,-6.1666,-6.171,-6.1119,-5.9982,-6.1074,-6.1114,-5.9982,-6.1035,-6.1108,-6.0009,-6.0269,-6.0293,-5.9888,-5.6636,-5.5069,0.0,0.0,0.0,0.0,0.0,0.0,0.0,0.0,0.0,0.0,0.0,-5.3935,-5.6036,-6.0385,-6.203,-5.9451,-6.0683,-6.1861,-6.2284,-6.107,-6.1119,-6.3282,-6.268,-6.2317,-6.2897,-6.3743,-6.4078,-6.3455,-6.3973,-6.4479,-6.4458,-6.3486,-6.2748,-6.263,-6.2799,-6.3003,-6.3462,-6.3639,-6.37,-6.3672,-6.3057,-6.2731,-6.2987,-6.2796,-6.2693,-6.2994,-6.2875,-6.2746,-6.2711,-6.1936,-6.1222,-6.0982,-6.0287,-5.9553,-5.9089,-5.7666,-5.6095,-5.5189,-5.536,-5.5274,-5.2151,-5.2201,-5.2141,-5.2125,-5.2114,-5.156,-5.1337,-5.1312,-5.1366,-5.137,-5.138,-5.1528,-5.1119,-5.0339,-5.0149,-4.9907,-4.9582,-4.9503,-4.9775,-5.0259,-5.026,-5.0429,-5.0741,-5.0855,-5.0932,-5.1086,-5.1914,-5.2454,-5.2704,-5.413,-5.5422,-5.6527,-5.7994,-5.9061,-5.9853,-5.9956,-5.976,-5.9278,-6.0678,-6.1369,-6.1369,-6.1369,-6.0276,-5.8207,-6.0393,-6.0622,-5.848,-6.0471,-6.0656,-5.8499,-5.9045,-5.9066,-5.8328,-5.8554,-5.7689,0.0,-5.5691,0.0,0.0,0.0,0.0,0.0,0.0,0.0,0.0,-5.778,-5.807,-5.7147,-6.1301,-6.3482,-6.2133,-6.3327,-6.417,-6.409,-6.409,-6.4061,-6.3961,-6.3906,-6.3856,-6.3748,-6.4387,-6.487,-6.4805,-6.5296,-6.5625,-6.5654,-6.5329,-6.5061,-6.509,-6.4777,-6.4784,-6.5577,-6.5572,-6.5421,-6.544,-6.494,-6.4492,-6.4545,-6.4274,-6.4135,-6.4196,-6.3893,-6.3547,-6.3519,-6.2974,-6.2334,-6.2092,-6.1567,-6.1174,-6.0944,-6.0585,-5.9768,-5.833,-5.8005,-5.7953,-5.3333,-5.3352,-5.3856,-5.409,-5.4049,-5.4292,-5.3818,-5.2852,-5.2894,-5.2699,-5.2345,-5.2382,-5.1936,-5.1119,-5.0447,-5.0375,-5.0667,-5.0068,-5.0106,-5.0701,-5.0756,-5.0791,-5.0924,-5.1506,-5.2201,-5.2934,-5.3705,-5.488,-5.6317,-5.6618,-5.7601,-5.9216,-5.9572,-5.9537,-5.9202,0.0,0.0,0.0,-6.0154,-5.9612,-5.9573,-5.9573,-5.9378,-5.8909,-6.0695,0.0,-6.1017,-6.1437,-6.147,-6.1013,-6.1069,0.0,0.0,0.0,0.0,0.0,0.0,0.0,0.0,0.0,0.0,0.0,-5.8741,-5.886,-5.8622,-6.1257,-6.2627,-6.1802,-6.3834,-6.5432,-6.579,-6.6063,-6.6213,-6.6213,-6.6213,-6.6205,-6.6182,-6.6135,-6.6098,-6.592,-6.6141,-6.6231,-6.6023,-6.6195,-6.6528,-6.698,-6.6515,-6.6604,-6.7616,-6.6459,-6.6056,-6.692,-6.6824,-6.651,-6.6416,-6.5858,-6.5588,-6.573,-6.5436,-6.5262,-6.5525,-6.5484,-6.5395,-6.5268,-6.4918,-6.4418,-6.4112,-6.3206,-6.2499,-6.2678,-6.2036,-6.0943,-5.9895,-5.9127,-5.8497,-5.4953,-5.4991,-5.4927,-5.4911,0.0,-5.5628,-5.5525,-5.4904,-5.4621,-5.4522,-5.4541,-5.4204,-5.3643,-5.2821,-5.2009,-5.1678,-5.1775,-5.1404,-5.1549,-5.2085,-5.2099,-5.2348,-5.2738,-5.3145,-5.3783,-5.467,-5.5461,-5.6348,-5.7318,-5.8131,-5.9056,-6.0094,-6.0503,-6.0573,-6.0347,-6.1166,-6.1648,-6.172,-6.0822,-6.0393,-6.0393,-6.0393,-5.9768,-5.8597,-6.0583,0.0,0.0,0.0,0.0,0.0,0.0,0.0,0.0,-5.8487,0.0,-5.9546,-5.8465,-5.7926,-5.8319,-5.9179,-6.0195,-6.1521,-6.2407,-6.254,-6.1673,-6.3659,-6.4762,-6.4336,-6.5477,-6.6418,-6.6839,-6.6883,-6.6848,-6.68,-6.6795,-6.6795,-6.6784,-6.6823,-6.6766,-6.6711,-6.7101,-6.7326,-6.7202,-6.7202,-6.7334,-6.7641,-6.7332,-6.7384,-6.827,-6.7141,-6.6442,-6.7752,-6.8316,-6.8413,-6.8262,-6.7696,-6.7235,-6.7395,-6.6948,-6.6607,-6.678,-6.6416,-6.6146,-6.6021,-6.564,-6.5184,-6.5232,-6.4532,-6.41,-6.4202,-6.3589,-6.2668,-6.2038,-6.1197,-6.0236,-5.7065,-5.694,-5.6249,-5.5941,-5.6002,-5.6662,-5.7005,-5.6967,-5.624,0.0,0.0,-5.6101,-5.5382,-5.4597,-5.3757,-5.3203,-5.2844,-5.2717,-5.2935,-5.3377,-5.3426,-5.3851,-5.463,-5.4805,-5.5383,-5.6387,-5.7235,-5.7757,-5.8086,-5.9459,-6.0254,-6.0504,-6.1192,-6.1603,-6.1681,-6.172,-6.172,-6.1681,-6.1408,-6.1252,-6.1252,-6.1252,-6.0237,-5.8089,-6.0388,-6.07,-5.8636,-6.07,-6.0939,-5.8882,-5.9534,-5.9699,-5.9014,-5.9592,-6.0923,-6.2927,-6.3164,-6.3512,-6.4174,-6.4275,-6.4375,-6.4531,-6.5341,-6.5468,-6.4609,-6.5312,-6.582,-6.582,-6.6482,-6.6901,-6.6887,-6.6898,-6.6862,-6.6809,-6.68,-6.6834,-6.699,-6.6873,-6.6868,-6.7052,-6.7475,-6.7865,-6.7805,-6.7907,-6.8067,-6.8121,-6.8072,-6.8108,-6.8491,-6.7856,-6.7564,-6.8702,-6.9552,-7.0124,-7.0026,-6.9435,-6.9143,-6.886,-6.8257,-6.7856,-6.7831,-6.73,-6.6885,-6.6956,-6.6253,-6.6053,-6.5935,-6.5442,-6.5322,-6.5551,-6.4556,-6.3674,-6.3587,-6.2944,-6.1941,-5.9522,-5.9439,-5.8969,-5.8799,-5.8772,-5.8516,-5.849,-5.8575,-5.7267,-5.6778,-5.6849,-5.6737,-5.6246,-5.5385,-5.4787,-5.4214,-5.3684,-5.3184,-5.3103,-5.343,-5.3464,-5.3945,-5.4796,-5.5492,-5.6652,-5.8199,-5.9166,-6.0029,-6.0793,-6.1164,-6.1394,-6.1459,-6.1637,-6.1681,-6.172,-6.172,-6.172,-6.1681,-6.0198,-5.9456,-5.9456,-5.9456,-5.93,-5.9026,-6.0734,-6.1554,-6.1213,-6.2217,-6.2627,-6.2226,-6.3005,-6.3398,-6.323,-6.3241,-6.3593,-6.3972,-6.4016,-6.4094,-6.431,-6.4301,-6.4609,-6.5351,-6.6214,-6.6351,-6.5547,-6.6211,-6.6719,-6.6719,-6.6875,-6.6914,-6.6913,-6.6908,-6.6908,-6.6911,-6.682,-6.7068,-6.7732,-6.7224,-6.7068,-6.7766,-6.7336,-6.7102,-6.7319,-6.778,-6.8453,-6.8883,-6.8993,-6.8992,-6.911,-6.9672,-7.0298,-7.0529,-7.0651,-7.069,-7.057,-7.0064,-6.9664,-6.9587,-6.8966,-6.8677,-6.9088,-6.8852,-6.8531,-6.8691,-6.8342,-6.7891,-6.7129,-6.5689,-6.544,-6.5648,-6.4195,-6.2692,-6.3128,-6.2785,-6.255,-6.0668,-6.0617,-6.0236,-5.9893,-5.9539,-5.9326,-5.929,-5.9397,-5.8823,-5.8484,-5.8342,-5.8031,-5.7649,-5.7234,-5.662,-5.6253,-5.6129,-5.5941,-5.5998,-5.6209,-5.6265,-5.6729,-5.7559,-5.7928,-5.876,-5.9978,-6.0403,-6.0902,-6.1394,-6.1485,-6.1594,-6.1681,-6.1725,-6.172,-6.172,-6.172,-6.172,-6.1681,-6.09,-6.051,-6.051,-6.0978,-6.1213,-6.1213,-6.2457,-6.312,-6.3125,-6.3458,-6.3627,-6.3593,-6.3943,-6.4125,-6.4085,-6.4106,-6.4345,-6.4866,-6.4877,-6.5121,-6.5624,-6.6092,-6.6756,-6.7576,-6.7576,-6.739,-6.7018,-6.7342,-6.7617,-6.7617,-6.7617,-6.7422,-6.6953,-6.6913,-6.6912,-6.6914,-6.6871,-6.7015,-6.7268,-6.7107,-6.7146,-6.7966,-6.8161,-6.8396,-6.8853,-6.9276,-6.9614,-6.9956,-6.9946,-6.9953,-7.021,-7.0813,-7.1,-7.0491,-7.0683,-7.086,-7.0843,-7.054,-7.0243,-7.0137,-6.9927,-6.9847,-7.0031,-6.9855,-6.9811,-6.976,-6.9508,-6.9064,-6.8418,-6.7298,-6.6708,-6.6403,-6.4938,-6.3673,-6.3512,-6.3305,-6.299,-6.1728,-6.1679,-6.1265,-6.0741,-6.0149,-5.9927,-5.9915,-6.0085,-5.9895,-5.982,-5.9673,-5.9209,-5.8925,-5.8783,-5.828,-5.8061,-5.8088,-5.8258,-5.8412,-5.8565,-5.8586,-5.905,-5.9841,-5.9843,-6.0326,-6.1138,-6.1196,-6.1303,-6.1497,-6.1518,-6.1575,-6.1686,-6.1725,-6.172,-6.172,-6.1915,-6.1993,-6.1993,-6.2189,-6.2189,-6.2032,-6.2657,-6.3086,-6.3321,-6.3945,-6.4301,-6.4275,-6.4413,-6.449,-6.4443,-6.4579,-6.473,-6.4909,-6.4957,-6.5355,-6.6204,-6.633,-6.6627,-6.7292,-6.7805,-6.8396,-6.902,-6.8279,-6.7966,-6.8323,-6.8427,-6.828,-6.8008,-6.7851,-6.7578,-6.707,-6.7109,-6.7187,-6.7187,-6.7383,-6.7656,-6.7676,-6.7507,-6.7732,-6.8591,-6.9137,-6.9645,-7.0225,-7.057,-7.0714,-7.0848,-7.0873,-7.1057,-7.1529,-7.1646,-7.1337,-7.083,-7.0786,-7.1094,-7.1156,-7.1094,-7.1091,-7.1037,-7.1207,-7.1332,-7.1312,-7.1191,-7.1018,-7.102,-7.0698,-7.0383,-6.9985,-6.8964,-6.8354,-6.815,-6.6488,-6.4754,-6.3989,-6.3689,-6.3429,-6.3363,-6.3297,-6.2737,-6.2167,-6.1543,-6.0792,-6.0602,-6.067,-5.999,-5.9847,-6.0091,-5.9868,-5.9566,-5.9255,-5.9109,-5.8847,-5.8424,-5.8472,-5.8624,-5.8681,-5.8604,-5.9068,-5.988,-5.9919,-6.0383,-6.1232,-6.1356,-6.1433,-6.1585,-6.1656,-6.1693,-6.172,-6.172,-6.1759,-6.1798,-6.2501,-6.2891,-6.2891,-6.3672,-6.3672,-6.293,-6.2969,-6.336,-6.4179,-6.4258,-6.4278,-6.4336,-6.4959,-6.5325,-6.5269,-6.5952,-6.668,-6.7306,-6.7502,-6.7917,-6.8708,-6.8795,-6.8924,-6.9007,-6.8457,-6.8239,-6.8122,-6.7615,-6.7732,-6.9098,-6.926,-6.8616,-6.7578,-6.7109,-6.7226,-6.6992,-6.7617,-6.8086,-6.8086,-6.8633,-6.9453,-6.9881,-6.9632,-6.9489,-7.0348,-6.984,-6.9489,-6.984,-7.0381,-7.1033,-7.1589,-7.1633,-7.1661,-7.1848,-7.2298,-7.263,-7.2189,-7.1719,-7.1493,-7.1941,-7.2063,-7.2178,-7.2663,-7.2849,-7.2881,-7.3042,-7.3106,-7.3063,-7.2609,-7.2674,-7.2171,-7.132,-7.0473,-6.9857,-6.9408,-6.7898,-6.579,-6.428,-6.3768,-6.377,-6.3873,-6.3925,-6.3671,-6.3233,-6.2561,-6.1389,-6.0928,-6.0921,-6.0127,-6.0007,-6.0398,-6.0684,-6.0542,-6.0009,-6.0112,-6.0248,-6.0487,-6.0229,-6.0383,-6.077,-6.0306,-6.0267,-6.0576,-6.0692,-6.0963,-6.135,-6.1469,-6.1576,-6.1651,-6.1666,-6.172,-6.1759,-6.2189,-6.2462,-6.254,-6.3321,-6.375,-6.3789,-6.414,-6.4375,-6.4531,-6.4531,-6.47,-6.5031,-6.5502,-6.5742,-6.5729,-6.6009,-6.6112,-6.6127,-6.6879,-6.7475,-6.779,-6.8326,-6.855,-6.8488,-6.8472,-6.872,-6.928,-6.9451,-6.9823,-7.0348,-6.9606,-6.945,-7.0035,-6.9684,-6.9069,-6.8616,-6.8864,-6.8945,-6.8515,-6.875,-6.8945,-6.8945,-6.9219,-6.957,-6.9844,-6.9648,-6.9716,-7.0514,-7.0387,-7.0387,-7.0816,-7.1245,-7.1585,-7.1862,-7.1924,-7.2082,-7.2456,-7.2755,-7.3052,-7.3335,-7.2977,-7.2803,-7.3035,-7.2937,-7.3014,-7.3223,-7.3597,-7.3968,-7.3911,-7.418,-7.4153,-7.3869,-7.3616,-7.3156,-7.2291,-7.1198,-7.0422,-7.0021,-6.8832,-6.6769,-6.5436,-6.4744,-6.4521,-6.4004,-6.4209,-6.4289,-6.4105,-6.3613,-6.2318,-6.178,-6.17,-6.1007,-6.0874,-6.1249,-6.177,-6.1812,-6.1426,-6.1497,-6.1912,-6.2425,-6.2027,-6.2162,-6.2665,-6.2085,-6.166,-6.1505,-6.1582,-6.156,-6.1436,-6.1521,-6.1642,-6.1707,-6.1697,-6.1803,-6.2123,-6.2701,-6.3125,-6.3438,-6.4219,-6.4648,-6.4687,-6.4843,-6.5312,-6.5819,-6.5911,-6.5888,-6.5937,-6.6441,-6.6738,-6.6655,-6.6605,-6.6579,-6.6579,-6.7345,-6.7907,-6.8179,-6.8956,-6.9282,-6.8953,-6.8993,-6.9273,-6.9899,-7.0355,-7.0895,-7.1468,-7.081,-7.0582,-7.0816,-7.027,-7.0035,-7.0504,-7.1041,-7.0898,-6.9609,-6.9648,-6.9805,-6.9765,-6.9922,-7.0117,-7.0195,-7.0117,-7.0388,-7.0952,-7.1104,-7.1251,-7.187,-7.2182,-7.2366,-7.2331,-7.2517,-7.2734,-7.3347,-7.36,-7.3916,-7.4395,-7.4498,-7.4378,-7.4089,-7.384,-7.3726,-7.4059,-7.4542,-7.4647,-7.4437,-7.4752,-7.4699,-7.4267,-7.4029,-7.3728,-7.3124,-7.206,-7.1092,-7.0435,-6.9417,-6.823,-6.7161,-6.6108,-6.5199,-6.4004,-6.4249,-6.4482,-6.467,-6.4701,-6.3827,-6.3448,-6.3259,-6.2725,-6.2624,-6.277,-6.3166,-6.3389,-6.3477,-6.3351,-6.3411,-6.3574,-6.3516,-6.3516,-6.3632,-6.3516,-6.3091,-6.2394,-6.2472,-6.2144,-6.1534,-6.1585,-6.1629,-6.172,-6.172,-6.213,-6.289,-6.295,-6.3399,-6.4101,-6.4921,-6.5507,-6.5507,-6.6058,-6.6644,-6.6687,-6.6715,-6.668,-6.6678,-6.6717,-6.6642,-6.6634,-6.6594,-6.6601,-6.6524,-6.7441,-6.8218,-6.8995,-6.9772,-7.0471,-7.1148,-7.1325,-7.1407,-7.1355,-7.0941,-7.0723,-7.0692,-7.033,-7.027,-7.1825,-7.1363,-7.1519,-7.2924,-7.3008,-7.2119,-7.026,-7.0583,-7.0781,-7.0703,-7.1367,-7.1758,-7.1797,-7.1601,-7.1836,-7.1866,-7.1822,-7.1893,-7.2032,-7.2729,-7.3101,-7.3275,-7.3805,-7.4294,-7.4361,-7.4961,-7.5287,-7.5439,-7.576,-7.6087,-7.5117,-7.4742,-7.5005,-7.5195,-7.5226,-7.5441,-7.5351,-7.5171,-7.4859,-7.4568,-7.426,-7.3934,-7.3728,-7.3187,-7.2354,-7.1631,-7.0981,-6.9985,-6.832,-6.6954,-6.5882,-6.4444,-6.4633,-6.4745,-6.4817,-6.4813,-6.3979,-6.36,-6.3558,-6.2985,-6.2806,-6.3115,-6.3844,-6.4299,-6.4522,-6.5002,-6.4984,-6.4483,-6.3942,-6.398,-6.4406,-6.3942,-6.3516,-6.3245,-6.2878,-6.2525,-6.2211,-6.1853,-6.1654,-6.171,-6.172,-6.1846,-6.2205,-6.2744,-6.3164,-6.3555,-6.4336,-6.5038,-6.559,-6.5844,-6.6244,-6.6755,-6.6738,-6.6649,-6.6649,-6.6642,-6.6613,-6.6517,-6.7044,-6.7363,-6.7363,-6.8645,-6.9539,-6.9849,-7.0121,-7.0432,-7.0704,-7.0814,-7.0805,-7.0901,-7.1174,-7.1572,-7.2121,-7.201,-7.2229,-7.3289,-7.3303,-7.3432,-7.3939,-7.4056,-7.3476,-7.3091,-7.3022,-7.2726,-7.1875,-7.2265,-7.2617,-7.2148,-7.1992,-7.1992,-7.199,-7.199,-7.2181,-7.2744,-7.3119,-7.3498,-7.3938,-7.432,-7.4723,-7.5179,-7.5521,-7.5818,-7.6121,-7.6419,-7.6415,-7.5978,-7.5709,-7.5687,-7.5725,-7.5724,-7.5523,-7.5389,-7.5246,-7.4977,-7.4611,-7.435,-7.4029,-7.3777,-7.3372,-7.2721,-7.1895,-7.1304,-7.0581,-6.9028,-6.7563,-6.6216,-6.4781,-6.4926,-6.4926,-6.4926,-6.485,-6.4282,-6.4051,-6.4078,-6.3795,-6.3761,-6.4065,-6.4787,-6.523,-6.545,-6.5953,-6.5953,-6.5373,-6.4793,-6.4831,-6.5296,-6.4754,-6.4367,-6.4097,-6.3729,-6.3391,-6.3169,-6.2787,-6.2419,-6.2134,-6.2123,-6.2119,-6.2189,-6.274,-6.3325,-6.3828,-6.4453,-6.5121,-6.5844,-6.5935,-6.6367,-6.7062,-6.6791,-6.6751,-6.6935,-6.6758,-6.6685,-6.6897,-6.748,-6.7985,-6.8373,-6.9578,-7.0432,-7.0704,-7.0743,-7.0704,-7.0743,-7.0743,-7.0736,-7.082,-7.1354,-7.2082,-7.2951,-7.3144,-7.3649,-7.4663,-7.4662,-7.4642,-7.4798,-7.4915,-7.4837,-7.472,-7.4993,-7.4696,-7.3275,-7.3359,-7.3515,-7.293,-7.289,-7.289,-7.293,-7.2969,-7.3164,-7.3579,-7.3959,-7.4369,-7.4896,-7.5116,-7.559,-7.597,-7.6118,-7.6144,-7.6582,-7.6651,-7.6573,-7.6397,-7.6366,-7.6156,-7.6159,-7.6025,-7.5786,-7.5539,-7.5359,-7.5133,-7.4733,-7.4394,-7.416,-7.3777,-7.341,-7.2647,-7.1765,-7.1397,-7.0872,-6.9418,-6.7976,-6.6714,-6.4926,-6.4926,-6.4926,-6.4926,-6.4888,-6.4848,-6.4985,-6.5099,-6.537,-6.5436,-6.5548,-6.5986,-6.601,-6.6147,-6.6147,-6.6185,-6.6069,-6.5953,-6.5953,-6.6069,-6.6069,-6.5682,-6.5102,-6.5064,-6.4656,-6.4054,-6.4208,-6.3789,-6.3047,-6.3002,-6.3032,-6.3056,-6.3181,-6.4001,-6.5512,-6.5438,-6.5922,-6.6523,-6.664,-6.7101,-6.7766,-6.714,-6.7003,-6.7548,-6.6983,-6.699,-6.7752,-6.7868,-6.8296,-6.9072,-6.9927,-7.0704,-7.1365,-7.1481,-7.1559,-7.1481,-7.152,-7.1559,-7.1575,-7.1714,-7.221,-7.3016,-7.323,-7.4099,-7.5317,-7.5124,-7.5065,-7.5657,-7.5774,-7.5501,-7.511,-7.5969,-7.6164,-7.4882,-7.4483,-7.4531,-7.4453,-7.4531,-7.4531,-7.4414,-7.4297,-7.4531,-7.4726,-7.5069,-7.5521,-7.5852,-7.634,-7.6739,-7.678,-7.6799,-7.6843,-7.6908,-7.6993,-7.6982,-7.6992,-7.6983,-7.6726,-7.6514,-7.6348,-7.6158,-7.5914,-7.5699,-7.5399,-7.5011,-7.4438,-7.4168,-7.3864,-7.3387,-7.2606,-7.1837,-7.1526,-7.0809,-6.9295,-6.7896,-6.7204,-6.4926,-6.4926,-6.4926,-6.4926,-6.4924,-6.5057,-6.515,-6.5245,-6.5624,-6.5832,-6.5943,-6.6102,-6.6185,-6.6185,-6.6185,-6.6185,-6.6185,-6.6185,-6.6185,-6.6224,-6.6301,-6.6244,-6.5935,-6.5566,-6.4978,-6.4379,-6.4289,-6.418,-6.3945,-6.3906,-6.4172,-6.4657,-6.4756,-6.5068,-6.5594,-6.5578,-6.5937,-6.664,-6.6678,-6.7087,-6.7842,-6.7579,-6.7281,-6.7009,-6.7199,-6.779,-6.8606,-6.8684,-6.9111,-6.9888,-7.0743,-7.1326,-7.1559,-7.1598,-7.1598,-7.1598,-7.1598,-7.1598,-7.1675,-7.2158,-7.285,-7.3721,-7.4417,-7.5339,-7.632,-7.6301,-7.6294,-7.6627,-7.6672,-7.6516,-7.6477,-7.6711,-7.636,-7.4798,-7.5087,-7.5225,-7.4844,-7.4687,-7.457,-7.457,-7.457,-7.4844,-7.5351,-7.5855,-7.6115,-7.656,-7.6933,-7.7059,-7.7063,-7.7082,-7.7245,-7.757,-7.761,-7.7738,-7.793,-7.8061,-7.7961,-7.7516,-7.7177,-7.6607,-7.6327,-7.5886,-7.5551,-7.5129,-7.4606,-7.4168,-7.3875,-7.3378,-7.2585,-7.1595,-7.0954,-6.9944,-6.8715,-6.7887,-6.7197,-6.4926,-6.4926,-6.4926,-6.4926,-6.4924,-6.5123,-6.5276,-6.5397,-6.5731,-6.5928,-6.6036,-6.6144,-6.6185,-6.6185,-6.6185,-6.6185,-6.6185,-6.6185,-6.6224,-6.6263,-6.634,-6.6419,-6.6445,-6.6153,-6.5766,-6.5351,-6.5273,-6.5078,-6.4765,-6.4805,-6.4919,-6.5104,-6.542,-6.5773,-6.6081,-6.6327,-6.6826,-6.7473,-6.7274,-6.7486,-6.7995,-6.7641,-6.7363,-6.748,-6.7713,-6.8412,-6.9422,-6.9539,-6.9927,-7.0704,-7.1326,-7.1714,-7.2025,-7.1792,-7.1714,-7.1947,-7.1792,-7.1598,-7.1675,-7.2064,-7.2957,-7.4023,-7.4787,-7.5638,-7.6571,-7.6975,-7.702,-7.7095,-7.7062,-7.7101,-7.7062,-7.7101,-7.6555,-7.5696,-7.5969,-7.6033,-7.5625,-7.5547,-7.5586,-7.5664,-7.5664,-7.5859,-7.6211,-7.6362,-7.6505,-7.699,-7.7089,-7.7301,-7.7346,-7.7531,-7.7946,-7.8338,-7.852,-7.8707,-7.9039,-7.9138,-7.9158,-7.8672,-7.813,-7.7329,-7.6743,-7.6036,-7.555,-7.5091,-7.4568,-7.426,-7.3923,-7.3578,-7.2881,-7.1722,-7.0639,-6.9831,-6.8934,-6.7945,-6.7222,-6.4926,-6.4926,-6.4926,-6.4888,-6.4958,-6.515,-6.5397,-6.5624,-6.5832,-6.6036,-6.6165,-6.6185,-6.6263,-6.6263,-6.6263,-6.6263,-6.6301,-6.6185,-6.6263,-6.636,-6.6419,-6.6477,-6.6605,-6.6683,-6.664,-6.668,-6.668,-6.6367,-6.5703,-6.5664,-6.5312,-6.5195,-6.5918,-6.6351,-6.7265,-6.7838,-6.8463,-6.8912,-6.8327,-6.828,-6.8933,-6.7674,-6.7441,-6.8878,-6.8567,-6.9034,-7.0354,-7.0743,-7.1015,-7.1598,-7.1831,-7.2258,-7.2608,-7.2142,-7.2258,-7.2647,-7.2064,-7.1792,-7.1675,-7.2025,-7.2685,-7.4045,-7.4499,-7.5054,-7.6598,-7.6965,-7.7012,-7.7095,-7.7101,-7.7101,-7.7101,-7.7101,-7.7023,-7.7062,-7.6906,-7.6931,-7.7148,-7.707,-7.6875,-7.6992,-7.7148,-7.7148,-7.707,-7.7031,-7.7091,-7.7268,-7.7296,-7.7628,-7.8144,-7.8477,-7.8769,-7.9079,-7.9392,-7.9696,-8.001,-8.0058,-8.0057,-7.9692,-7.893,-7.786,-7.7007,-7.6227,-7.5512,-7.5053,-7.4611,-7.4305,-7.3981,-7.3641,-7.3038,-7.2013,-7.1094,-7.0249,-6.9389,-6.8512,-6.7854,-6.4926,-6.4926,-6.4926,-6.4993,-6.5155,-6.5397,-6.5624,-6.5832,-6.5997,-6.6144,-6.6185,-6.6185,-6.6611,-6.7036,-6.6495,-6.6533,-6.6843,-6.6456,-6.6263,-6.64,-6.6485,-6.6663,-6.6774,-6.6875,-6.6914,-6.6914,-6.6875,-6.6797,-6.6562,-6.6484,-6.6953,-6.8047,-6.8031,-6.8703,-6.9562,-6.9706,-6.9896,-6.9946,-6.9214,-6.8831,-6.8956,-6.8684,-6.8645,-6.9072,-7.0005,-7.1015,-7.218,-7.2841,-7.2918,-7.2608,-7.319,-7.3268,-7.3074,-7.3229,-7.3035,-7.2375,-7.2957,-7.2841,-7.2142,-7.2763,-7.3695,-7.4162,-7.4778,-7.5658,-7.6754,-7.6933,-7.6995,-7.7082,-7.7101,-7.7101,-7.7101,-7.7101,-7.7101,-7.7101,-7.7101,-7.7117,-7.7139,-7.7148,-7.7226,-7.7226,-7.7226,-7.7226,-7.7187,-7.7222,-7.7364,-7.781,-7.8077,-7.8338,-7.8971,-7.9305,-7.952,-8.0026,-8.0396,-8.0703,-8.0922,-8.0962,-8.0895,-8.0646,-7.9691,-7.8244,-7.7313,-7.6379,-7.5702,-7.5133,-7.4733,-7.4394,-7.4122,-7.3875,-7.3032,-7.2355,-7.1769,-7.1072,-7.0249,-6.9463,-6.8951,-6.4964,-6.5002,-6.5027,-6.5161,-6.5383,-6.5635,-6.5782,-6.5905,-6.6102,-6.6185,-6.6263,-6.6611,-6.7036,-6.7423,-6.6998,-6.6998,-6.7346,-6.665,-6.6379,-6.6496,-6.6639,-6.6771,-6.6875,-6.6914,-6.6914,-6.6914,-6.6914,-6.6875,-6.6875,-6.6914,-6.7656,-6.8594,-6.9252,-6.9839,-7.0509,-7.1288,-7.1096,-7.0445,-6.9865,-6.9484,-6.915,-6.9111,-6.9616,-7.016,-7.1481,-7.2569,-7.3424,-7.4278,-7.4317,-7.3773,-7.3929,-7.4123,-7.4045,-7.4045,-7.3734,-7.2763,-7.3695,-7.354,-7.2724,-7.3462,-7.4317,-7.4722,-7.5322,-7.596,-7.6663,-7.6905,-7.6995,-7.7089,-7.7101,-7.7101,-7.7101,-7.7101,-7.7101,-7.7101,-7.7101,-7.7073,-7.7097,-7.7147,-7.7187,-7.7226,-7.7226,-7.7226,-7.7226,-7.7461,-7.7872,-7.8278,-7.8741,-7.9307,-7.9938,-8.0085,-8.0339,-8.0845,-8.1096,-8.1286,-8.1271,-8.1282,-8.0933,-8.0762,-7.973,-7.843,-7.716,-7.6227,-7.5739,-7.5171,-7.4816,-7.4519,-7.4297,-7.4029,-7.3639,-7.3069,-7.2546,-7.1932,-7.1198,-7.036,-6.9938,-6.5037,-6.5189,-6.5194,-6.5421,-6.5647,-6.5833,-6.5905,-6.599,-6.6278,-6.6417,-6.6572,-6.7268,-6.7771,-6.7771,-6.7771,-6.7694,-6.781,-6.7075,-6.665,-6.6671,-6.6755,-6.6878,-6.6875,-6.6914,-6.6914,-6.6914,-6.6914,-6.7031,-6.7148,-6.7109,-6.7617,-6.8711,-6.9453,-7.0121,-7.1053,-7.2142,-7.1892,-7.077,-7.011,-6.9623,-6.9251,-6.9306,-7.0121,-7.1598,-7.2957,-7.3851,-7.455,-7.5172,-7.5288,-7.4511,-7.4434,-7.4861,-7.5327,-7.4706,-7.4317,-7.4239,-7.4317,-7.4239,-7.3385,-7.389,-7.4667,-7.5266,-7.5487,-7.5988,-7.6676,-7.6926,-7.702,-7.7095,-7.7101,-7.7101,-7.7101,-7.7101,-7.7101,-7.7101,-7.7101,-7.7078,-7.7097,-7.7148,-7.7226,-7.7226,-7.7265,-7.7344,-7.7498,-7.7962,-7.8614,-7.9293,-7.9633,-8.0165,-8.0727,-8.0982,-8.1265,-8.1688,-8.1773,-8.1735,-8.1639,-8.1523,-8.104,-8.0569,-7.9422,-7.8122,-7.6651,-7.5799,-7.5544,-7.5171,-7.4937,-7.4691,-7.4476,-7.4214,-7.3991,-7.3688,-7.3119,-7.2708,-7.2132,-7.1294,-7.0708,-6.5171,-6.5224,-6.5452,-6.5608,-6.582,-6.587,-6.6013,-6.62,-6.69,-6.7152,-6.7423,-6.8119,-6.8777,-6.928,-6.8661,-6.8816,-6.8953,-6.789,-6.7191,-6.6709,-6.6806,-6.6875,-6.6914,-6.6914,-6.6914,-6.6914,-6.6914,-6.7265,-6.7695,-6.793,-6.8711,-6.9961,-7.0273,-7.1099,-7.2276,-7.2259,-7.1855,-7.1081,-7.0054,-6.9451,-6.9445,-6.9888,-7.0976,-7.2724,-7.4667,-7.5793,-7.6104,-7.6337,-7.6337,-7.6221,-7.6104,-7.5871,-7.5677,-7.5871,-7.5444,-7.4822,-7.5444,-7.5482,-7.4434,-7.4706,-7.5288,-7.5538,-7.5681,-7.5988,-7.6804,-7.6975,-7.702,-7.7095,-7.7101,-7.7101,-7.7101,-7.7101,-7.7101,-7.7101,-7.714,-7.7151,-7.7137,-7.7187,-7.7265,-7.7383,-7.7851,-7.8201,-7.818,-7.893,-7.9582,-8.023,-8.0686,-8.1063,-8.1438,-8.1763,-8.1928,-8.2116,-8.1968,-8.1852,-8.1757,-8.143,-8.0782,-8.0183,-7.9075,-7.7877,-7.6415,-7.5633,-7.5462,-7.5283,-7.5056,-7.4857,-7.4649,-7.4519,-7.4305,-7.4047,-7.3774,-7.3404,-7.2907,-7.2146,-7.1627,-6.5459,-6.555,-6.5674,-6.587,-6.6029,-6.6036,-6.6333,-6.6822,-6.7268,-6.7501,-6.7694,-6.8429,-6.8816,-6.8816,-6.8429,-6.8468,-6.8568,-6.7786,-6.7081,-6.6819,-6.6875,-6.6875,-6.6914,-6.6914,-6.6914,-6.6914,-6.6914,-6.7383,-6.7969,-6.8359,-6.9023,-7.0625,-7.1026,-7.176,-7.3064,-7.3158,-7.2491,-7.1275,-7.0965,-7.0516,-6.9966,-7.0937,-7.2608,-7.4317,-7.5988,-7.6687,-7.6648,-7.6687,-7.6687,-7.6687,-7.6687,-7.6531,-7.6182,-7.6415,-7.5988,-7.5327,-7.591,-7.6104,-7.5327,-7.556,-7.6065,-7.6026,-7.614,-7.6443,-7.6816,-7.6995,-7.7036,-7.7095,-7.7101,-7.7101,-7.7101,-7.7101,-7.7101,-7.7179,-7.7492,-7.7698,-7.7722,-7.7773,-7.7812,-7.7969,-7.8594,-7.8906,-7.9278,-7.986,-8.0241,-8.0771,-8.1396,-8.1773,-8.1742,-8.2036,-8.2045,-8.2065,-8.1952,-8.1852,-8.1776,-8.1298,-8.0485,-7.9731,-7.8806,-7.76,-7.6248,-7.5814,-7.5532,-7.5356,-7.5133,-7.5015,-7.4812,-7.4729,-7.4606,-7.435,-7.4131,-7.4019,-7.3714,-7.3069,-7.2718,-6.5778,-6.5893,-6.5909,-6.6097,-6.6358,-6.6417,-6.692,-6.7655,-6.7849,-6.7965,-6.7887,-6.8622,-6.8738,-6.7965,-6.7849,-6.7771,-6.7665,-6.7617,-6.7383,-6.6914,-6.6875,-6.6914,-6.6914,-6.6914,-6.7031,-6.707,-6.6953,-6.7422,-6.8203,-6.8555,-6.957,-7.0943,-7.1714,-7.2647,-7.3574,-7.3955,-7.3219,-7.1141,-7.1197,-7.1231,-7.0665,-7.187,-7.389,-7.5949,-7.6531,-7.6687,-7.6687,-7.6687,-7.6687,-7.6687,-7.6687,-7.6687,-7.6687,-7.6648,-7.6454,-7.5716,-7.6376,-7.6298,-7.5949,-7.6221,-7.6609,-7.6687,-7.6805,-7.687,-7.6944,-7.7012,-7.7089,-7.7101,-7.7101,-7.7179,-7.7257,-7.7414,-7.7375,-7.7492,-7.8116,-7.8523,-7.8621,-7.8711,-7.8906,-7.8789,-7.9375,-7.9844,-8.0172,-8.0626,-8.0972,-8.1317,-8.1903,-8.228,-8.2218,-8.2182,-8.2162,-8.2077,-8.1983,-8.1833,-8.1737,-8.0639,-7.9906,-7.9412,-7.8489,-7.74,-7.6233,-7.5878,-7.5599,-7.5427,-7.5246,-7.5094,-7.4975,-7.4854,-7.4729,-7.4606,-7.4432,-7.4252,-7.4066,-7.3826,-7.3604,-6.5872,-6.5931,-6.609,-6.6569,-6.7209,-6.7268,-6.7733,-6.8622,-6.9087,-6.9164,-6.8661,-6.9357,-6.9164,-6.8584,-6.8545,-6.8276,-6.7866,-6.7969,-6.7851,-6.707,-6.6914,-6.6914,-6.6914,-6.6914,-6.7226,-6.7617,-6.7422,-6.7773,-6.8906,-6.9336,-7.0508,-7.2303,-7.2923,-7.3678,-7.401,-7.3451,-7.2579,-7.1374,-7.0887,-7.0438,-7.096,-7.2413,-7.4278,-7.6454,-7.6687,-7.6687,-7.6687,-7.6687,-7.6687,-7.6687,-7.6687,-7.6726,-7.6881,-7.6881,-7.6726,-7.6531,-7.657,-7.657,-7.6454,-7.657,-7.6687,-7.6721,-7.6791,-7.687,-7.6944,-7.7012,-7.705,-7.7101,-7.7218,-7.7414,-7.8116,-7.8155,-7.8194,-7.839,-7.8903,-7.946,-7.9597,-8.0,-8.0195,-7.9883,-8.0351,-8.0819,-8.1078,-8.1329,-8.1591,-8.1747,-8.2059,-8.228,-8.2218,-8.2153,-8.2133,-8.2089,-8.2012,-8.1869,-8.1755,-8.0222,-7.9134,-7.8938,-7.8199,-7.7266,-7.637,-7.5941,-7.5666,-7.5497,-7.532,-7.5133,-7.5017,-7.4975,-7.4895,-7.4771,-7.4606,-7.4476,-7.4297,-7.4113,-7.3875,-6.4917,-6.5481,-6.5968,-6.6456,-6.6861,-6.7346,-6.7733,-6.8119,-6.8545,-6.8506,-6.8313,-6.8506,-6.8236,-6.7655,-6.7539,-6.7405,-6.7514,-6.7734,-6.7578,-6.6953,-6.6914,-6.6914,-6.6914,-6.6914,-6.7109,-6.7461,-6.7539,-6.8437,-7.0,-7.0586,-7.1601,-7.2884,-7.3898,-7.4771,-7.51,-7.4344,-7.2967,-7.221,-7.1392,-7.1137,-7.1831,-7.3657,-7.5599,-7.6259,-7.6687,-7.6687,-7.6687,-7.6687,-7.6959,-7.727,-7.7386,-7.7619,-7.7852,-7.7891,-7.7619,-7.6959,-7.6764,-7.6726,-7.6726,-7.6687,-7.6687,-7.6743,-7.6855,-7.6885,-7.6933,-7.6995,-7.716,-7.7212,-7.7648,-7.7921,-7.835,-7.8819,-7.9053,-7.9248,-7.9834,-8.028,-8.0534,-8.117,-8.1172,-8.0937,-8.1328,-8.1639,-8.1709,-8.1964,-8.2221,-8.2293,-8.2293,-8.228,-8.2179,-8.2162,-8.2143,-8.1792,-8.1594,-8.1134,-8.0838,-7.9594,-7.8632,-7.8424,-7.788,-7.6987,-7.6399,-7.5933,-7.5763,-7.5595,-7.5424,-7.5246,-7.5056,-7.4977,-7.4975,-7.4895,-7.4812,-7.4649,-7.4519,-7.4342,-7.4113,-6.4029,-6.5043,-6.5682,-6.6147,-6.6533,-6.7191,-6.7617,-6.7733,-6.7849,-6.7771,-6.7501,-6.7501,-6.7114,-6.6476,-6.6574,-6.6785,-6.6766,-6.7052,-6.7187,-6.6953,-6.6914,-6.6914,-6.6914,-6.7148,-6.7422,-6.7969,-6.8515,-6.9375,-7.0469,-7.1328,-7.2461,-7.3717,-7.5042,-7.5583,-7.5524,-7.4653,-7.3995,-7.3257,-7.2651,-7.2746,-7.3851,-7.5444,-7.6687,-7.6687,-7.6687,-7.6687,-7.6687,-7.6998,-7.7347,-7.7813,-7.8163,-7.8552,-7.9134,-7.929,-7.8629,-7.7503,-7.727,-7.7231,-7.727,-7.7347,-7.7503,-7.7541,-7.7392,-7.7389,-7.7545,-7.7804,-7.7738,-7.7759,-7.8194,-7.8819,-7.9209,-7.96,-7.9912,-8.0146,-8.0693,-8.129,-8.1426,-8.1719,-8.2031,-8.2031,-8.2304,-8.2184,-8.2019,-8.2159,-8.2293,-8.2293,-8.2293,-8.2241,-8.2179,-8.2201,-8.2055,-8.1441,-8.097,-8.0359,-7.9687,-7.8834,-7.8207,-7.8154,-7.7494,-7.664,-7.6245,-7.5856,-7.5833,-7.5846,-7.5566,-7.5356,-7.5209,-7.5017,-7.4977,-7.4975,-7.4935,-7.4854,-7.4686,-7.4519,-7.4342,-6.4029,-6.4986,-6.5102,-6.5992,-6.7191,-6.7423,-6.7926,-6.8468,-6.8429,-6.8197,-6.7384,-6.7423,-6.6959,-6.6574,-6.715,-6.7169,-6.7072,-6.7383,-6.7422,-6.6953,-6.6914,-6.6953,-6.707,-6.7734,-6.8398,-6.8984,-6.9883,-7.039,-7.1172,-7.1823,-7.3107,-7.4794,-7.5275,-7.5679,-7.5873,-7.4459,-7.2967,-7.2638,-7.2171,-7.2923,-7.4822,-7.6104,-7.6609,-7.6687,-7.6687,-7.6687,-7.6803,-7.727,-7.7891,-7.8085,-7.8785,-7.9134,-7.929,-7.929,-7.9251,-7.9057,-7.9018,-7.8979,-7.8823,-7.8707,-7.8668,-7.8647,-7.8815,-7.9063,-7.8948,-7.9002,-7.9086,-7.9398,-7.9522,-7.9795,-8.0263,-8.0693,-8.0849,-8.1083,-8.148,-8.1909,-8.2109,-8.1914,-8.2226,-8.2031,-8.1953,-8.1985,-8.1933,-8.2154,-8.2293,-8.2293,-8.2287,-8.2241,-8.2101,-8.2036,-8.1527,-8.0868,-8.0115,-7.9486,-7.8934,-7.7983,-7.7808,-7.7768,-7.7329,-7.6591,-7.6476,-7.631,-7.6202,-7.6146,-7.5901,-7.5768,-7.5815,-7.5628,-7.5208,-7.4977,-7.4975,-7.4935,-7.4854,-7.4691,-7.4519,-6.3741,-6.4309,-6.5316,-6.6108,-6.6766,-6.7268,-6.7423,-6.7346,-6.7307,-6.7152,-6.6804,-6.6766,-6.6611,-6.6554,-6.6997,-6.7005,-6.6914,-6.7305,-6.7305,-6.7031,-6.6992,-6.7187,-6.7617,-6.8086,-6.8789,-7.0078,-7.1094,-7.207,-7.2501,-7.3124,-7.4205,-7.5314,-7.5855,-7.5824,-7.5851,-7.4245,-7.3297,-7.2948,-7.2965,-7.364,-7.4783,-7.5949,-7.6687,-7.6687,-7.6726,-7.6726,-7.6959,-7.7541,-7.828,-7.8707,-7.9562,-8.03,-8.0649,-8.0805,-8.0766,-8.0766,-8.0766,-8.03,-7.9445,-7.9367,-7.9406,-7.9328,-7.9381,-7.933,-7.9481,-7.9665,-7.9795,-7.9678,-8.0185,-8.0615,-8.1083,-8.1435,-8.1669,-8.1903,-8.2032,-8.2149,-8.2304,-8.2265,-8.2187,-8.1875,-8.1555,-8.1468,-8.15,-8.1719,-8.1864,-8.1942,-8.1975,-8.2,-8.1772,-8.1538,-8.0883,-8.0007,-7.9265,-7.8496,-7.8047,-7.7411,-7.7369,-7.7409,-7.7626,-7.7081,-7.7044,-7.6916,-7.6924,-7.6869,-7.6777,-7.6679,-7.6611,-7.5968,-7.5247,-7.5095,-7.5055,-7.5015,-7.4975,-7.4895,-7.4568,-6.39,-6.4174,-6.5393,-6.6031,-6.6263,-6.692,-6.6804,-6.6263,-6.6263,-6.6224,-6.6224,-6.6263,-6.6417,-6.6555,-6.664,-6.6797,-6.6914,-6.6914,-6.707,-6.7148,-6.7344,-6.7773,-6.8398,-6.8828,-6.9531,-7.0742,-7.1758,-7.2873,-7.3877,-7.4553,-7.4933,-7.574,-7.6234,-7.6018,-7.5166,-7.4341,-7.3549,-7.2832,-7.3566,-7.4183,-7.4861,-7.6026,-7.6531,-7.6764,-7.6881,-7.7036,-7.7192,-7.8241,-7.9134,-7.96,-8.0455,-8.1193,-8.1582,-8.1621,-8.1659,-8.1659,-8.1621,-8.1232,-8.0494,-8.0144,-7.995,-7.9968,-7.9943,-8.0216,-7.9948,-8.0055,-8.0146,-8.0185,-8.0888,-8.1239,-8.1474,-8.1942,-8.2059,-8.2188,-8.2276,-8.2276,-8.2265,-8.2187,-8.1953,-8.1523,-8.1128,-8.0645,-8.0749,-8.1128,-8.1356,-8.1513,-8.1617,-8.1641,-8.1334,-8.0931,-8.0156,-7.9236,-7.8703,-7.7952,-7.7345,-7.6962,-7.6944,-7.7216,-7.7433,-7.7533,-7.7391,-7.7716,-7.7954,-7.786,-7.7692,-7.7548,-7.7441,-7.6344,-7.5321,-7.5513,-7.5551,-7.517,-7.4977,-7.4897,-7.4444,-6.4909,-6.4948,-6.5083,-6.5566,-6.6185,-6.6263,-6.6263,-6.6185,-6.6185,-6.6185,-6.6224,-6.634,-6.6476,-6.6593,-6.6648,-6.6786,-6.6914,-6.6914,-6.7383,-6.7851,-6.8203,-6.8633,-6.9258,-6.9961,-7.0547,-7.1133,-7.2206,-7.3375,-7.4309,-7.4943,-7.5622,-7.6421,-7.6295,-7.5869,-7.5077,-7.4033,-7.3433,-7.3025,-7.3682,-7.4554,-7.5249,-7.6182,-7.6687,-7.6959,-7.7464,-7.793,-7.8008,-7.9328,-8.0144,-8.0377,-8.1154,-8.1621,-8.1854,-8.1892,-8.1892,-8.1892,-8.1892,-8.1659,-8.1349,-8.131,-8.1582,-8.1714,-8.1602,-8.1299,-8.083,-8.1585,-8.1623,-8.1044,-8.1591,-8.1981,-8.2098,-8.2293,-8.2293,-8.2299,-8.2276,-8.2136,-8.207,-8.2031,-8.1719,-8.1211,-8.0581,-7.9942,-7.946,-7.9678,-8.0341,-8.0537,-8.0595,-8.061,-8.031,-7.9906,-7.9233,-7.8559,-7.8198,-7.7584,-7.6815,-7.6722,-7.706,-7.7486,-7.7857,-7.7814,-7.766,-7.813,-7.9062,-7.8769,-7.8596,-7.8448,-7.808,-7.71,-7.6384,-7.6235,-7.6046,-7.5551,-7.5053,-7.4778,-7.4147,-6.5721,-6.5741,-6.576,-6.5915,-6.6185,-6.6185,-6.6185,-6.6185,-6.6185,-6.6185,-6.6224,-6.636,-6.6493,-6.6578,-6.6669,-6.6776,-6.6953,-6.75,-6.789,-6.8281,-6.8711,-6.9414,-7.0117,-7.0664,-7.1172,-7.207,-7.2959,-7.386,-7.502,-7.5136,-7.5763,-7.6195,-7.5834,-7.5235,-7.4382,-7.3413,-7.2771,-7.3139,-7.37,-7.4572,-7.5482,-7.6298,-7.6959,-7.7541,-7.7697,-7.8318,-7.8862,-7.995,-8.0416,-8.0844,-8.1504,-8.1776,-8.1892,-8.1892,-8.1931,-8.197,-8.197,-8.2009,-8.2009,-8.197,-8.1911,-8.1959,-8.2012,-8.196,-8.1566,-8.207,-8.2131,-8.202,-8.2059,-8.2293,-8.2293,-8.2293,-8.2293,-8.2293,-8.2193,-8.194,-8.1758,-8.164,-8.0937,-8.0117,-7.9483,-7.8809,-7.8406,-7.8038,-7.8858,-7.9561,-7.9572,-7.9539,-7.9276,-7.9166,-7.8663,-7.8342,-7.8043,-7.7971,-7.7285,-7.7272,-7.7355,-7.7756,-7.8255,-7.8392,-7.8536,-7.9592,-8.0254,-7.9915,-7.9544,-7.9402,-7.8918,-7.7938,-7.7447,-7.73,-7.6692,-7.5932,-7.5396,-7.4888,-7.4122,-6.6185,-6.6185,-6.6185,-6.6185,-6.6185,-6.6185,-6.6185,-6.6185,-6.6185,-6.6224,-6.6263,-6.6438,-6.6531,-6.664,-6.6723,-6.7034,-6.7383,-6.789,-6.8476,-6.9023,-6.9648,-7.0312,-7.082,-7.125,-7.168,-7.2743,-7.3145,-7.3782,-7.4788,-7.4904,-7.5144,-7.5133,-7.4673,-7.3918,-7.3898,-7.2538,-7.1914,-7.2552,-7.3657,-7.4395,-7.5172,-7.6454,-7.727,-7.8085,-7.8513,-7.9134,-7.9795,-8.0572,-8.0999,-8.1232,-8.1543,-8.1854,-8.1892,-8.1931,-8.2048,-8.2164,-8.2281,-8.2359,-8.2514,-8.2126,-8.1986,-8.1975,-8.2065,-8.2128,-8.2192,-8.2234,-8.2215,-8.2254,-8.2293,-8.2293,-8.2293,-8.2299,-8.2299,-8.2299,-8.1786,-8.1523,-8.1172,-8.0898,-7.9883,-7.8957,-7.8528,-7.8332,-7.8054,-7.7765,-7.8149,-7.865,-7.8316,-7.8369,-7.8379,-7.8336,-7.8442,-7.8217,-7.8098,-7.8088,-7.8085,-7.8131,-7.8167,-7.8297,-7.8795,-7.9355,-7.9798,-8.07,-8.1054,-8.0638,-8.0382,-8.0323,-7.9876,-7.9159,-7.8706,-7.8404,-7.7569,-7.6656,-7.6194,-7.5679,-7.4648,-6.6185,-6.6185,-6.6185,-6.6185,-6.6185,-6.6185,-6.6185,-6.6185,-6.6185,-6.6263,-6.6399,-6.6574,-6.6651,-6.6717,-6.6828,-6.7265,-6.793,-6.8281,-6.8984,-7.0078,-7.0547,-7.1172,-7.1562,-7.1875,-7.1825,-7.2002,-7.2305,-7.2908,-7.3922,-7.3783,-7.3944,-7.3643,-7.2948,-7.2461,-7.3703,-7.238,-7.1636,-7.187,-7.3346,-7.4123,-7.4977,-7.6687,-7.7736,-7.8435,-7.9445,-8.0144,-8.0688,-8.1193,-8.1582,-8.1698,-8.1737,-8.1892,-8.1892,-8.2048,-8.232,-8.2864,-8.3019,-8.3408,-8.3971,-8.2708,-8.2064,-8.1991,-8.2065,-8.2077,-8.2182,-8.2273,-8.228,-8.2273,-8.2287,-8.2293,-8.2305,-8.231,-8.2305,-8.212,-8.1647,-8.1054,-8.0703,-8.0078,-7.9101,-7.8289,-7.8239,-7.82,-7.7921,-7.7726,-7.7869,-7.7824,-7.7255,-7.7307,-7.7784,-7.8102,-7.8494,-7.8528,-7.8487,-7.8768,-7.8899,-7.8983,-7.9042,-7.9069,-7.9373,-8.0,-8.0367,-8.0739,-8.0977,-8.1023,-8.0914,-8.0696,-8.0673,-8.0531,-7.9928,-7.9207,-7.8332,-7.7492,-7.7103,-7.6387,-7.5245,-6.6185,-6.6185,-6.6185,-6.6185,-6.6185,-6.6185,-6.6185,-6.6185,-6.6224,-6.6263,-6.6419,-6.6555,-6.6678,-6.6733,-6.6953,-6.7422,-6.8203,-6.8984,-6.9805,-7.0664,-7.1211,-7.164,-7.1953,-7.1953,-7.1893,-7.1702,-7.1707,-7.1744,-7.2297,-7.2352,-7.228,-7.1957,-7.1668,-7.1236,-7.0943,-7.051,-7.0937,-7.1792,-7.3229,-7.4472,-7.5211,-7.692,-7.8241,-7.8785,-7.995,-8.0766,-8.1232,-8.1698,-8.1892,-8.1892,-8.1892,-8.1931,-8.2087,-8.2242,-8.2786,-8.3252,-8.3446,-8.3659,-8.3385,-8.2355,-8.1911,-8.1937,-8.1944,-8.2,-8.2171,-8.228,-8.2226,-8.2201,-8.221,-8.2195,-8.2125,-8.2271,-8.2271,-8.2102,-8.1598,-8.0778,-8.0156,-7.9336,-7.8512,-7.7825,-7.7531,-7.8077,-7.8116,-7.8624,-7.8813,-7.9065,-7.8815,-7.8594,-7.8886,-7.896,-7.9182,-7.9135,-7.9152,-7.9486,-7.9692,-7.9834,-8.0072,-8.0267,-8.0459,-8.08,-8.1051,-8.0962,-8.1008,-8.1093,-8.1061,-8.0959,-8.0826,-8.065,-8.0465,-7.9896,-7.9057,-7.8369,-7.787,-7.6941,-7.573,-6.6185,-6.6185,-6.6185,-6.6185,-6.6185,-6.6185,-6.6185,-6.6224,-6.6301,-6.6379,-6.6495,-6.6641,-6.672,-6.6858,-6.7226,-6.7812,-6.8672,-6.9531,-7.0351,-7.1133,-7.168,-7.1914,-7.1953,-7.188,-7.1611,-7.1278,-7.0852,-7.0771,-7.1523,-7.1076,-7.1004,-7.1028,-7.0815,-7.011,-6.9756,-7.0222,-7.1287,-7.2297,-7.354,-7.4589,-7.5638,-7.6998,-7.8241,-7.894,-7.9872,-8.0844,-8.1349,-8.1659,-8.1892,-8.1892,-8.1931,-8.2087,-8.2398,-8.2747,-8.3252,-8.3641,-8.3853,-8.3746,-8.2854,-8.2368,-8.1995,-8.1813,-8.1717,-8.182,-8.2011,-8.205,-8.1987,-8.1961,-8.205,-8.2062,-8.2032,-8.2187,-8.2031,-8.1875,-8.1054,-8.0195,-7.9453,-7.8632,-7.8122,-7.7434,-7.7815,-7.8245,-7.8819,-7.9444,-8.0023,-8.0314,-8.0571,-8.031,-8.0056,-8.0023,-8.0065,-8.0022,-8.0098,-8.0455,-8.0648,-8.0686,-8.1025,-8.1401,-8.14,-8.1319,-8.1234,-8.1107,-8.1116,-8.1093,-8.1061,-8.0997,-8.0826,-8.065,-8.0503,-8.0277,-7.9896,-7.9247,-7.8674,-7.7538,-7.6282,-6.6185,-6.6185,-6.6185,-6.6185,-6.6185,-6.6185,-6.6185,-6.6224,-6.6456,-6.6592,-6.6593,-6.6798,-6.6852,-6.707,-6.7734,-6.8515,-6.9297,-7.0195,-7.1015,-7.164,-7.1953,-7.1992,-7.1914,-7.1731,-7.1257,-7.0658,-7.0149,-6.9997,-7.0943,-7.0444,-7.0117,-7.0293,-7.0019,-6.9722,-6.9972,-7.0843,-7.187,-7.2569,-7.3812,-7.4744,-7.5716,-7.7114,-7.793,-7.8668,-7.9523,-8.0261,-8.0766,-8.1193,-8.1659,-8.1854,-8.197,-8.2475,-8.2864,-8.3174,-8.3757,-8.4125,-8.425,-8.3372,-8.2631,-8.2207,-8.1831,-8.1475,-8.1507,-8.1618,-8.1717,-8.1804,-8.177,-8.1774,-8.183,-8.187,-8.1953,-8.1797,-8.1679,-8.1015,-8.0234,-7.9453,-7.875,-7.8159,-7.7683,-7.7712,-7.8532,-7.923,-8.0035,-8.0693,-8.1584,-8.1945,-8.2162,-8.1977,-8.1655,-8.1236,-8.1232,-8.1155,-8.1291,-8.1531,-8.1602,-8.1352,-8.1296,-8.1478,-8.1427,-8.1347,-8.1301,-8.1214,-8.1154,-8.1124,-8.1093,-8.0997,-8.0826,-8.0688,-8.0505,-8.0354,-8.0201,-8.0048,-7.9476,-7.82,-7.6898,-6.6185,-6.6185,-6.6185,-6.6185,-6.6185,-6.6185,-6.6185,-6.6224,-6.6379,-6.6513,-6.6607,-6.6708,-6.6869,-6.6992,-6.7812,-6.8633,-6.9492,-7.0312,-7.1172,-7.168,-7.1992,-7.1992,-7.1758,-7.1329,-7.0809,-7.0041,-6.9382,-6.9128,-6.9556,-6.9343,-7.0311,-7.0926,-7.0404,-7.0382,-7.1021,-7.1969,-7.2258,-7.2802,-7.42,-7.5055,-7.5832,-7.7114,-7.7658,-7.828,-7.9018,-7.96,-7.9872,-8.061,-8.1193,-8.1776,-8.2398,-8.3097,-8.3951,-8.4573,-8.5175,-8.487,-8.404,-8.287,-8.2293,-8.1732,-8.1338,-8.1146,-8.1196,-8.1437,-8.1579,-8.164,-8.16,-8.1613,-8.163,-8.1714,-8.17,-8.1562,-8.125,-8.0625,-7.9844,-7.918,-7.8587,-7.8497,-7.8132,-7.907,-7.9851,-8.0827,-8.1591,-8.2521,-8.3334,-8.3701,-8.3752,-8.3537,-8.3215,-8.2757,-8.2463,-8.2403,-8.2216,-8.2365,-8.1932,-8.1639,-8.1528,-8.1517,-8.1427,-8.1412,-8.1446,-8.1359,-8.1223,-8.1124,-8.1023,-8.0926,-8.0826,-8.0688,-8.058,-8.0544,-8.043,-8.0431,-8.0081,-7.8784,-7.758,-6.6185,-6.6185,-6.6185,-6.6185,-6.6224,-6.6263,-6.6263,-6.6301,-6.6417,-6.6531,-6.6631,-6.6723,-6.6992,-6.7578,-6.8359,-6.9219,-7.0039,-7.0892,-7.1593,-7.1825,-7.1952,-7.168,-7.1328,-7.0804,-7.0083,-6.9323,-6.8916,-6.8898,-6.9401,-7.0311,-7.1258,-7.1947,-7.1486,-7.1681,-7.2319,-7.3229,-7.3657,-7.3967,-7.4589,-7.5482,-7.6298,-7.6959,-7.727,-7.7697,-7.8396,-7.8746,-7.8979,-7.9872,-8.0882,-8.1465,-8.2164,-8.3213,-8.4049,-8.4824,-8.449,-8.3927,-8.2747,-8.1908,-8.1426,-8.1228,-8.0965,-8.0926,-8.1029,-8.1196,-8.1323,-8.1387,-8.1375,-8.1388,-8.1504,-8.1562,-8.1444,-8.1289,-8.082,-8.0312,-7.9687,-7.9023,-7.8926,-7.8975,-7.9633,-8.0615,-8.1591,-8.2567,-8.3465,-8.4395,-8.481,-8.4629,-8.4766,-8.4951,-8.4561,-8.4103,-8.38,-8.365,-8.3282,-8.3026,-8.2533,-8.2073,-8.1915,-8.1749,-8.1478,-8.1478,-8.1589,-8.1504,-8.133,-8.1162,-8.0991,-8.097,-8.1057,-8.08,-8.0616,-8.0771,-8.1041,-8.1116,-8.0638,-7.9349,-7.82,-6.6185,-6.6185,-6.6185,-6.6224,-6.6263,-6.634,-6.6417,-6.6417,-6.6533,-6.6631,-6.6743,-6.6934,-6.7458,-6.8125,-6.9062,-6.9878,-7.0617,-7.1359,-7.1786,-7.1919,-7.171,-7.1406,-7.0898,-7.0302,-6.9395,-6.8657,-6.8684,-6.944,-7.0776,-7.1628,-7.2341,-7.3052,-7.2724,-7.2824,-7.3445,-7.4472,-7.4977,-7.5288,-7.5482,-7.5988,-7.6454,-7.6726,-7.6726,-7.692,-7.7503,-7.8124,-7.8513,-7.9406,-8.0649,-8.096,-8.1698,-8.2941,-8.3794,-8.404,-8.332,-8.2563,-8.1631,-8.1195,-8.0946,-8.0865,-8.0893,-8.0926,-8.1061,-8.1085,-8.1167,-8.1224,-8.1234,-8.1291,-8.1374,-8.1465,-8.1422,-8.1126,-8.073,-8.0392,-7.9949,-7.9687,-7.9742,-8.023,-8.1389,-8.2365,-8.3269,-8.4167,-8.4603,-8.5377,-8.5807,-8.5496,-8.5565,-8.6003,-8.5732,-8.5234,-8.5039,-8.4779,-8.4124,-8.3615,-8.3095,-8.2665,-8.2404,-8.2122,-8.1904,-8.211,-8.2543,-8.214,-8.1398,-8.1578,-8.1721,-8.1426,-8.1359,-8.1371,-8.1533,-8.169,-8.1881,-8.1911,-8.118,-7.9992,-7.8879,-6.6185,-6.6185,-6.6185,-6.6263,-6.634,-6.6379,-6.6476,-6.6611,-6.665,-6.6709,-6.6821,-6.75,-6.7965,-6.8421,-6.9724,-7.0505,-7.0816,-7.1395,-7.1903,-7.159,-7.1285,-7.0777,-7.0325,-6.9362,-6.8747,-6.8791,-6.9227,-7.0582,-7.2481,-7.3195,-7.3562,-7.4489,-7.3929,-7.3579,-7.4572,-7.5521,-7.5793,-7.6221,-7.6298,-7.6337,-7.6609,-7.6687,-7.6726,-7.6959,-7.7464,-7.793,-7.8552,-7.96,-8.0766,-8.1582,-8.2359,-8.3271,-8.4072,-8.3483,-8.283,-8.2093,-8.1239,-8.0831,-8.072,-8.0758,-8.0826,-8.0926,-8.0991,-8.1061,-8.1093,-8.1093,-8.1124,-8.1176,-8.1273,-8.1358,-8.1362,-8.1014,-8.0771,-8.0543,-8.0399,-8.0462,-8.0613,-8.1925,-8.3158,-8.4089,-8.5032,-8.5423,-8.5774,-8.6126,-8.66,-8.6717,-8.6767,-8.6828,-8.6473,-8.6089,-8.5981,-8.5653,-8.477,-8.4202,-8.3717,-8.3426,-8.3266,-8.3089,-8.2935,-8.3231,-8.3498,-8.3191,-8.2755,-8.2694,-8.2638,-8.2419,-8.2391,-8.2706,-8.283,-8.2835,-8.2525,-8.2385,-8.2019,-8.1042,-7.9836,-6.6185,-6.6185,-6.6185,-6.6263,-6.638,-6.645,-6.6549,-6.667,-6.6786,-6.7014,-6.7386,-6.7971,-6.8392,-6.8791,-7.0139,-7.0695,-7.0773,-7.1163,-7.0963,-7.0692,-7.0405,-6.9829,-6.9175,-6.872,-6.8909,-6.9106,-7.0908,-7.2634,-7.4321,-7.4494,-7.4744,-7.5305,-7.4472,-7.4472,-7.5582,-7.5832,-7.6221,-7.6648,-7.6687,-7.6687,-7.6687,-7.6687,-7.6687,-7.6959,-7.7425,-7.793,-7.859,-7.96,-8.061,-8.1543,-8.23,-8.2421,-8.2819,-8.261,-8.2109,-8.1508,-8.0915,-8.0646,-8.0685,-8.0758,-8.086,-8.0959,-8.1061,-8.1093,-8.0939,-8.0939,-8.0846,-8.0935,-8.1263,-8.1358,-8.1427,-8.1194,-8.1233,-8.1097,-8.1281,-8.1416,-8.2638,-8.4254,-8.5155,-8.581,-8.6268,-8.6158,-8.6471,-8.6566,-8.6878,-8.6519,-8.6737,-8.7147,-8.6873,-8.6676,-8.6697,-8.6519,-8.5609,-8.5096,-8.4786,-8.4531,-8.4297,-8.4146,-8.3902,-8.3861,-8.3933,-8.4134,-8.4196,-8.3894,-8.367,-8.3522,-8.3576,-8.3662,-8.3709,-8.3638,-8.3206,-8.2847,-8.241,-8.1954,-8.11,-6.6185,-6.6185,-6.6224,-6.6301,-6.6438,-6.6553,-6.6659,-6.6739,-6.6877,-6.7386,-6.8053,-6.8154,-6.8737,-6.9616,-7.027,-7.0543,-7.0675,-7.0541,-7.0109,-6.9687,-6.9301,-6.915,-6.8963,-6.8652,-6.9195,-7.0688,-7.2669,-7.4106,-7.556,-7.5366,-7.5249,-7.5538,-7.556,-7.556,-7.5832,-7.6221,-7.6687,-7.6687,-7.6687,-7.6687,-7.6687,-7.6726,-7.6803,-7.7114,-7.7619,-7.8163,-7.8823,-7.9639,-8.0649,-8.1174,-8.1907,-8.1852,-8.1821,-8.1693,-8.1354,-8.0844,-8.0693,-8.065,-8.0758,-8.0826,-8.0926,-8.1029,-8.1061,-8.1016,-8.09,-8.0769,-8.0675,-8.0733,-8.1021,-8.1076,-8.1156,-8.144,-8.1517,-8.1877,-8.215,-8.2494,-8.4234,-8.5729,-8.6233,-8.6796,-8.6676,-8.6498,-8.6762,-8.69,-8.68,-8.6432,-8.6531,-8.6882,-8.7068,-8.6908,-8.6841,-8.6813,-8.6402,-8.6022,-8.564,-8.5497,-8.5177,-8.4881,-8.4637,-8.4441,-8.4445,-8.4974,-8.5151,-8.4818,-8.4632,-8.4599,-8.434,-8.4276,-8.4358,-8.4366,-8.3753,-8.3262,-8.2901,-8.2536,-8.2338,-6.6185,-6.6185,-6.6301,-6.6417,-6.6574,-6.6632,-6.6724,-6.6839,-6.6922,-6.7399,-6.8083,-6.8362,-6.8947,-7.0426,-7.0582,-7.0582,-7.0197,-6.9916,-6.9677,-6.9408,-6.871,-6.8708,-6.8928,-6.9228,-7.0066,-7.2008,-7.4162,-7.5444,-7.6104,-7.5793,-7.5832,-7.6337,-7.5716,-7.5871,-7.6454,-7.6687,-7.6687,-7.6687,-7.6726,-7.6726,-7.6803,-7.692,-7.7192,-7.7736,-7.859,-7.9367,-8.0183,-8.1077,-8.1504,-8.1699,-8.1652,-8.14,-8.1223,-8.1042,-8.0835,-8.0731,-8.0505,-8.0652,-8.0758,-8.0822,-8.0959,-8.1061,-8.1093,-8.1124,-8.0885,-8.053,-8.0396,-8.0277,-8.0381,-8.0215,-8.037,-8.1208,-8.1581,-8.2491,-8.3031,-8.3502,-8.4623,-8.498,-8.5233,-8.5478,-8.5491,-8.5735,-8.6206,-8.6405,-8.6718,-8.6557,-8.6873,-8.7147,-8.6823,-8.6852,-8.7001,-8.6961,-8.6894,-8.6427,-8.586,-8.6195,-8.6004,-8.5669,-8.5539,-8.5727,-8.5902,-8.6114,-8.6138,-8.5857,-8.5786,-8.5786,-8.5493,-8.4925,-8.4863,-8.478,-8.4193,-8.3735,-8.3378,-8.315,-8.295]}]]